<?xml version="1.0" encoding="UTF-8" standalone="no" ?>
<gpx xmlns="http://www.topografix.com/GPX/1/1" xmlns:xsi="http://www.w3.org/2001/XMLSchema-instance" xsi:schemaLocation="http://www.topografix.com/GPX/1/1 http://www.topografix.com/GPX/1/1/gpx.xsd" version="1.1" creator="VisuGPX - https://www.visugpx.com">
  <metadata>
    <name>mrt fil de l eau</name>
    <desc><![CDATA[départ du parking joseph turmel]]></desc>
  </metadata>
  <trk>
    <name><![CDATA[mrt fil de l eau_1]]></name>
    <trkseg>
      <trkpt lat="48.48267" lon="-2.67161">
        <ele>9</ele>
        <time>2019-10-29T13:58:33Z</time>
      </trkpt>
      <trkpt lat="48.48286" lon="-2.67129">
        <ele>2</ele>
        <time>2019-10-29T13:59:51Z</time>
      </trkpt>
      <trkpt lat="48.48288" lon="-2.67124">
        <ele>10</ele>
        <time>2019-10-29T13:59:54Z</time>
      </trkpt>
      <trkpt lat="48.48291" lon="-2.67118">
        <ele>10</ele>
        <time>2019-10-29T13:59:58Z</time>
      </trkpt>
      <trkpt lat="48.48292" lon="-2.67114">
        <ele>10</ele>
        <time>2019-10-29T14:00:01Z</time>
      </trkpt>
      <trkpt lat="48.48293" lon="-2.67107">
        <ele>10</ele>
        <time>2019-10-29T14:00:05Z</time>
      </trkpt>
      <trkpt lat="48.48295" lon="-2.67103">
        <ele>10</ele>
        <time>2019-10-29T14:00:08Z</time>
      </trkpt>
      <trkpt lat="48.48295" lon="-2.67097">
        <ele>10</ele>
        <time>2019-10-29T14:00:11Z</time>
      </trkpt>
      <trkpt lat="48.48298" lon="-2.67092">
        <ele>10</ele>
        <time>2019-10-29T14:00:15Z</time>
      </trkpt>
      <trkpt lat="48.48299" lon="-2.67088">
        <ele>10</ele>
        <time>2019-10-29T14:00:18Z</time>
      </trkpt>
      <trkpt lat="48.48301" lon="-2.67083">
        <ele>10</ele>
        <time>2019-10-29T14:00:22Z</time>
      </trkpt>
      <trkpt lat="48.48301" lon="-2.67077">
        <ele>10.2</ele>
        <time>2019-10-29T14:00:26Z</time>
      </trkpt>
      <trkpt lat="48.48301" lon="-2.67071">
        <ele>10.4</ele>
        <time>2019-10-29T14:00:30Z</time>
      </trkpt>
      <trkpt lat="48.48299" lon="-2.67064">
        <ele>10.5</ele>
        <time>2019-10-29T14:00:33Z</time>
      </trkpt>
      <trkpt lat="48.48302" lon="-2.67058">
        <ele>10.8</ele>
        <time>2019-10-29T14:00:37Z</time>
      </trkpt>
      <trkpt lat="48.48301" lon="-2.67051">
        <ele>10.8</ele>
        <time>2019-10-29T14:00:40Z</time>
      </trkpt>
      <trkpt lat="48.48304" lon="-2.67043">
        <ele>10.9</ele>
        <time>2019-10-29T14:00:44Z</time>
      </trkpt>
      <trkpt lat="48.48304" lon="-2.67038">
        <ele>10.9</ele>
        <time>2019-10-29T14:00:47Z</time>
      </trkpt>
      <trkpt lat="48.48304" lon="-2.67033">
        <ele>11</ele>
        <time>2019-10-29T14:00:50Z</time>
      </trkpt>
      <trkpt lat="48.48306" lon="-2.67027">
        <ele>11</ele>
        <time>2019-10-29T14:00:54Z</time>
      </trkpt>
      <trkpt lat="48.48307" lon="-2.67022">
        <ele>10.8</ele>
        <time>2019-10-29T14:00:57Z</time>
      </trkpt>
      <trkpt lat="48.48307" lon="-2.67017">
        <ele>10.6</ele>
        <time>2019-10-29T14:01:00Z</time>
      </trkpt>
      <trkpt lat="48.48307" lon="-2.67011">
        <ele>10.4</ele>
        <time>2019-10-29T14:01:04Z</time>
      </trkpt>
      <trkpt lat="48.48308" lon="-2.67007">
        <ele>10.3</ele>
        <time>2019-10-29T14:01:08Z</time>
      </trkpt>
      <trkpt lat="48.48309" lon="-2.67004">
        <ele>10.2</ele>
        <time>2019-10-29T14:01:11Z</time>
      </trkpt>
      <trkpt lat="48.48309" lon="-2.66999">
        <ele>10.1</ele>
        <time>2019-10-29T14:01:14Z</time>
      </trkpt>
      <trkpt lat="48.48308" lon="-2.66992">
        <ele>10</ele>
        <time>2019-10-29T14:01:17Z</time>
      </trkpt>
      <trkpt lat="48.48308" lon="-2.66985">
        <ele>10</ele>
        <time>2019-10-29T14:01:20Z</time>
      </trkpt>
      <trkpt lat="48.48307" lon="-2.66982">
        <ele>1</ele>
        <time>2019-10-29T14:01:23Z</time>
      </trkpt>
      <trkpt lat="48.48309" lon="-2.66978">
        <ele>3</ele>
        <time>2019-10-29T14:01:26Z</time>
      </trkpt>
      <trkpt lat="48.48312" lon="-2.66975">
        <ele>3</ele>
        <time>2019-10-29T14:01:29Z</time>
      </trkpt>
      <trkpt lat="48.48314" lon="-2.66977">
        <ele>5</ele>
        <time>2019-10-29T14:01:33Z</time>
      </trkpt>
      <trkpt lat="48.48316" lon="-2.66982">
        <ele>5</ele>
        <time>2019-10-29T14:01:38Z</time>
      </trkpt>
      <trkpt lat="48.48321" lon="-2.66988">
        <ele>5</ele>
        <time>2019-10-29T14:01:41Z</time>
      </trkpt>
      <trkpt lat="48.48326" lon="-2.66991">
        <ele>5</ele>
        <time>2019-10-29T14:01:45Z</time>
      </trkpt>
      <trkpt lat="48.4833" lon="-2.66995">
        <ele>5</ele>
        <time>2019-10-29T14:01:50Z</time>
      </trkpt>
      <trkpt lat="48.48332" lon="-2.67">
        <ele>5</ele>
        <time>2019-10-29T14:01:55Z</time>
      </trkpt>
      <trkpt lat="48.48336" lon="-2.66998">
        <ele>5</ele>
        <time>2019-10-29T14:01:59Z</time>
      </trkpt>
      <trkpt lat="48.4834" lon="-2.67">
        <ele>5</ele>
        <time>2019-10-29T14:02:02Z</time>
      </trkpt>
      <trkpt lat="48.48344" lon="-2.67003">
        <ele>5</ele>
        <time>2019-10-29T14:02:05Z</time>
      </trkpt>
      <trkpt lat="48.48347" lon="-2.67004">
        <ele>5</ele>
        <time>2019-10-29T14:02:08Z</time>
      </trkpt>
      <trkpt lat="48.48352" lon="-2.67003">
        <ele>5</ele>
        <time>2019-10-29T14:02:12Z</time>
      </trkpt>
      <trkpt lat="48.48357" lon="-2.67005">
        <ele>5</ele>
        <time>2019-10-29T14:02:16Z</time>
      </trkpt>
      <trkpt lat="48.48361" lon="-2.67007">
        <ele>4</ele>
        <time>2019-10-29T14:02:21Z</time>
      </trkpt>
      <trkpt lat="48.48364" lon="-2.67007">
        <ele>3</ele>
        <time>2019-10-29T14:02:24Z</time>
      </trkpt>
      <trkpt lat="48.48368" lon="-2.6701">
        <ele>3</ele>
        <time>2019-10-29T14:02:27Z</time>
      </trkpt>
      <trkpt lat="48.48373" lon="-2.67011">
        <ele>2</ele>
        <time>2019-10-29T14:02:30Z</time>
      </trkpt>
      <trkpt lat="48.48377" lon="-2.67013">
        <ele>9.5</ele>
        <time>2019-10-29T14:02:33Z</time>
      </trkpt>
      <trkpt lat="48.4838" lon="-2.67014">
        <ele>9.5</ele>
        <time>2019-10-29T14:02:37Z</time>
      </trkpt>
      <trkpt lat="48.48382" lon="-2.67015">
        <ele>9.5</ele>
        <time>2019-10-29T14:02:40Z</time>
      </trkpt>
      <trkpt lat="48.48386" lon="-2.67016">
        <ele>9.6</ele>
        <time>2019-10-29T14:02:44Z</time>
      </trkpt>
      <trkpt lat="48.48391" lon="-2.67014">
        <ele>9.5</ele>
        <time>2019-10-29T14:02:47Z</time>
      </trkpt>
      <trkpt lat="48.48392" lon="-2.67015">
        <ele>9.5</ele>
        <time>2019-10-29T14:02:50Z</time>
      </trkpt>
      <trkpt lat="48.48394" lon="-2.67015">
        <ele>9.5</ele>
        <time>2019-10-29T14:02:53Z</time>
      </trkpt>
      <trkpt lat="48.48396" lon="-2.67016">
        <ele>9.6</ele>
        <time>2019-10-29T14:02:56Z</time>
      </trkpt>
      <trkpt lat="48.48409" lon="-2.67023">
        <ele>2</ele>
        <time>2019-10-29T14:02:59Z</time>
      </trkpt>
      <trkpt lat="48.48415" lon="-2.67022">
        <ele>2</ele>
        <time>2019-10-29T14:03:03Z</time>
      </trkpt>
      <trkpt lat="48.48418" lon="-2.67022">
        <ele>2</ele>
        <time>2019-10-29T14:03:06Z</time>
      </trkpt>
      <trkpt lat="48.48421" lon="-2.67021">
        <ele>2</ele>
        <time>2019-10-29T14:03:10Z</time>
      </trkpt>
      <trkpt lat="48.48428" lon="-2.67025">
        <ele>2</ele>
        <time>2019-10-29T14:03:15Z</time>
      </trkpt>
      <trkpt lat="48.48433" lon="-2.6703">
        <ele>2</ele>
        <time>2019-10-29T14:03:18Z</time>
      </trkpt>
      <trkpt lat="48.48436" lon="-2.67034">
        <ele>2</ele>
        <time>2019-10-29T14:03:21Z</time>
      </trkpt>
      <trkpt lat="48.4844" lon="-2.67039">
        <ele>2</ele>
        <time>2019-10-29T14:03:25Z</time>
      </trkpt>
      <trkpt lat="48.48443" lon="-2.67041">
        <ele>2</ele>
        <time>2019-10-29T14:03:30Z</time>
      </trkpt>
      <trkpt lat="48.48448" lon="-2.67045">
        <ele>2</ele>
        <time>2019-10-29T14:03:33Z</time>
      </trkpt>
      <trkpt lat="48.48451" lon="-2.6705">
        <ele>1</ele>
        <time>2019-10-29T14:03:36Z</time>
      </trkpt>
      <trkpt lat="48.48453" lon="-2.67056">
        <ele>8.7</ele>
        <time>2019-10-29T14:03:39Z</time>
      </trkpt>
      <trkpt lat="48.48458" lon="-2.6706">
        <ele>8.5</ele>
        <time>2019-10-29T14:03:43Z</time>
      </trkpt>
      <trkpt lat="48.4846" lon="-2.67066">
        <ele>8.5</ele>
        <time>2019-10-29T14:03:46Z</time>
      </trkpt>
      <trkpt lat="48.48462" lon="-2.67072">
        <ele>8.4</ele>
        <time>2019-10-29T14:03:49Z</time>
      </trkpt>
      <trkpt lat="48.48465" lon="-2.67075">
        <ele>8.3</ele>
        <time>2019-10-29T14:03:52Z</time>
      </trkpt>
      <trkpt lat="48.48466" lon="-2.67076">
        <ele>8.2</ele>
        <time>2019-10-29T14:03:55Z</time>
      </trkpt>
      <trkpt lat="48.4847" lon="-2.67079">
        <ele>8.1</ele>
        <time>2019-10-29T14:03:59Z</time>
      </trkpt>
      <trkpt lat="48.48471" lon="-2.67079">
        <ele>8</ele>
        <time>2019-10-29T14:04:03Z</time>
      </trkpt>
      <trkpt lat="48.48475" lon="-2.67083">
        <ele>8</ele>
        <time>2019-10-29T14:04:07Z</time>
      </trkpt>
      <trkpt lat="48.48478" lon="-2.67084">
        <ele>8</ele>
        <time>2019-10-29T14:04:11Z</time>
      </trkpt>
      <trkpt lat="48.48481" lon="-2.67086">
        <ele>8</ele>
        <time>2019-10-29T14:04:15Z</time>
      </trkpt>
      <trkpt lat="48.48486" lon="-2.67087">
        <ele>8</ele>
        <time>2019-10-29T14:04:18Z</time>
      </trkpt>
      <trkpt lat="48.48489" lon="-2.67087">
        <ele>8</ele>
        <time>2019-10-29T14:04:21Z</time>
      </trkpt>
      <trkpt lat="48.48493" lon="-2.67086">
        <ele>8</ele>
        <time>2019-10-29T14:04:24Z</time>
      </trkpt>
      <trkpt lat="48.48496" lon="-2.67086">
        <ele>8</ele>
        <time>2019-10-29T14:04:27Z</time>
      </trkpt>
      <trkpt lat="48.485" lon="-2.67087">
        <ele>8</ele>
        <time>2019-10-29T14:04:30Z</time>
      </trkpt>
      <trkpt lat="48.48506" lon="-2.67088">
        <ele>8</ele>
        <time>2019-10-29T14:04:33Z</time>
      </trkpt>
      <trkpt lat="48.48511" lon="-2.6709">
        <ele>8</ele>
        <time>2019-10-29T14:04:36Z</time>
      </trkpt>
      <trkpt lat="48.48516" lon="-2.67092">
        <ele>8</ele>
        <time>2019-10-29T14:04:39Z</time>
      </trkpt>
      <trkpt lat="48.4852" lon="-2.67097">
        <ele>8</ele>
        <time>2019-10-29T14:04:43Z</time>
      </trkpt>
      <trkpt lat="48.48519" lon="-2.67105">
        <ele>8</ele>
        <time>2019-10-29T14:04:47Z</time>
      </trkpt>
      <trkpt lat="48.48519" lon="-2.67111">
        <ele>8</ele>
        <time>2019-10-29T14:04:51Z</time>
      </trkpt>
      <trkpt lat="48.48518" lon="-2.67117">
        <ele>8</ele>
        <time>2019-10-29T14:04:54Z</time>
      </trkpt>
      <trkpt lat="48.48517" lon="-2.67125">
        <ele>8</ele>
        <time>2019-10-29T14:04:57Z</time>
      </trkpt>
      <trkpt lat="48.48516" lon="-2.67133">
        <ele>2</ele>
        <time>2019-10-29T14:05:00Z</time>
      </trkpt>
      <trkpt lat="48.48517" lon="-2.67139">
        <ele>5</ele>
        <time>2019-10-29T14:05:04Z</time>
      </trkpt>
      <trkpt lat="48.48519" lon="-2.67144">
        <ele>5</ele>
        <time>2019-10-29T14:05:08Z</time>
      </trkpt>
      <trkpt lat="48.48519" lon="-2.6715">
        <ele>5</ele>
        <time>2019-10-29T14:05:11Z</time>
      </trkpt>
      <trkpt lat="48.48519" lon="-2.67154">
        <ele>5</ele>
        <time>2019-10-29T14:05:14Z</time>
      </trkpt>
      <trkpt lat="48.48519" lon="-2.67159">
        <ele>5</ele>
        <time>2019-10-29T14:05:17Z</time>
      </trkpt>
      <trkpt lat="48.48519" lon="-2.67167">
        <ele>5</ele>
        <time>2019-10-29T14:05:20Z</time>
      </trkpt>
      <trkpt lat="48.48519" lon="-2.67174">
        <ele>5</ele>
        <time>2019-10-29T14:05:23Z</time>
      </trkpt>
      <trkpt lat="48.48518" lon="-2.67184">
        <ele>5</ele>
        <time>2019-10-29T14:05:26Z</time>
      </trkpt>
      <trkpt lat="48.48518" lon="-2.6719">
        <ele>5</ele>
        <time>2019-10-29T14:05:29Z</time>
      </trkpt>
      <trkpt lat="48.48518" lon="-2.67197">
        <ele>5</ele>
        <time>2019-10-29T14:05:32Z</time>
      </trkpt>
      <trkpt lat="48.48518" lon="-2.67204">
        <ele>5</ele>
        <time>2019-10-29T14:05:35Z</time>
      </trkpt>
      <trkpt lat="48.48518" lon="-2.67211">
        <ele>5</ele>
        <time>2019-10-29T14:05:38Z</time>
      </trkpt>
      <trkpt lat="48.4852" lon="-2.67215">
        <ele>5</ele>
        <time>2019-10-29T14:05:41Z</time>
      </trkpt>
      <trkpt lat="48.48526" lon="-2.67213">
        <ele>5</ele>
        <time>2019-10-29T14:05:45Z</time>
      </trkpt>
      <trkpt lat="48.48532" lon="-2.6721">
        <ele>5</ele>
        <time>2019-10-29T14:05:49Z</time>
      </trkpt>
      <trkpt lat="48.48537" lon="-2.67211">
        <ele>3</ele>
        <time>2019-10-29T14:05:53Z</time>
      </trkpt>
      <trkpt lat="48.48542" lon="-2.67215">
        <ele>2</ele>
        <time>2019-10-29T14:05:57Z</time>
      </trkpt>
      <trkpt lat="48.48545" lon="-2.67219">
        <ele>2</ele>
        <time>2019-10-29T14:06:00Z</time>
      </trkpt>
      <trkpt lat="48.48549" lon="-2.67222">
        <ele>1</ele>
        <time>2019-10-29T14:06:03Z</time>
      </trkpt>
      <trkpt lat="48.48553" lon="-2.67225">
        <ele>1</ele>
        <time>2019-10-29T14:06:06Z</time>
      </trkpt>
      <trkpt lat="48.48555" lon="-2.67228">
        <ele>1</ele>
        <time>2019-10-29T14:06:09Z</time>
      </trkpt>
      <trkpt lat="48.48559" lon="-2.67229">
        <ele>1</ele>
        <time>2019-10-29T14:06:12Z</time>
      </trkpt>
      <trkpt lat="48.48563" lon="-2.67227">
        <ele>1</ele>
        <time>2019-10-29T14:06:16Z</time>
      </trkpt>
      <trkpt lat="48.48569" lon="-2.67228">
        <ele>1</ele>
        <time>2019-10-29T14:06:19Z</time>
      </trkpt>
      <trkpt lat="48.48572" lon="-2.67231">
        <ele>1</ele>
        <time>2019-10-29T14:06:22Z</time>
      </trkpt>
      <trkpt lat="48.48576" lon="-2.67233">
        <ele>1</ele>
        <time>2019-10-29T14:06:25Z</time>
      </trkpt>
      <trkpt lat="48.4858" lon="-2.67234">
        <ele>1</ele>
        <time>2019-10-29T14:06:28Z</time>
      </trkpt>
      <trkpt lat="48.48581" lon="-2.67235">
        <ele>1</ele>
        <time>2019-10-29T14:06:32Z</time>
      </trkpt>
      <trkpt lat="48.48583" lon="-2.67235">
        <ele>1</ele>
        <time>2019-10-29T14:06:35Z</time>
      </trkpt>
      <trkpt lat="48.48589" lon="-2.67234">
        <ele>1</ele>
        <time>2019-10-29T14:06:38Z</time>
      </trkpt>
      <trkpt lat="48.48596" lon="-2.67235">
        <ele>1</ele>
        <time>2019-10-29T14:06:41Z</time>
      </trkpt>
      <trkpt lat="48.486" lon="-2.67237">
        <ele>1</ele>
        <time>2019-10-29T14:06:44Z</time>
      </trkpt>
      <trkpt lat="48.48603" lon="-2.67237">
        <ele>1</ele>
        <time>2019-10-29T14:06:47Z</time>
      </trkpt>
      <trkpt lat="48.48606" lon="-2.67235">
        <ele>1</ele>
        <time>2019-10-29T14:06:50Z</time>
      </trkpt>
      <trkpt lat="48.48613" lon="-2.67238">
        <ele>1</ele>
        <time>2019-10-29T14:06:54Z</time>
      </trkpt>
      <trkpt lat="48.48617" lon="-2.6724">
        <ele>1</ele>
        <time>2019-10-29T14:06:57Z</time>
      </trkpt>
      <trkpt lat="48.48621" lon="-2.67243">
        <ele>1</ele>
        <time>2019-10-29T14:07:00Z</time>
      </trkpt>
      <trkpt lat="48.48626" lon="-2.67243">
        <ele>7</ele>
        <time>2019-10-29T14:07:04Z</time>
      </trkpt>
      <trkpt lat="48.48629" lon="-2.67243">
        <ele>7</ele>
        <time>2019-10-29T14:07:08Z</time>
      </trkpt>
      <trkpt lat="48.48632" lon="-2.67245">
        <ele>7</ele>
        <time>2019-10-29T14:07:11Z</time>
      </trkpt>
      <trkpt lat="48.48637" lon="-2.67246">
        <ele>7</ele>
        <time>2019-10-29T14:07:14Z</time>
      </trkpt>
      <trkpt lat="48.48642" lon="-2.67247">
        <ele>6.9</ele>
        <time>2019-10-29T14:07:20Z</time>
      </trkpt>
      <trkpt lat="48.48647" lon="-2.6725">
        <ele>6.7</ele>
        <time>2019-10-29T14:07:24Z</time>
      </trkpt>
      <trkpt lat="48.48653" lon="-2.67253">
        <ele>6.6</ele>
        <time>2019-10-29T14:07:27Z</time>
      </trkpt>
      <trkpt lat="48.48657" lon="-2.67251">
        <ele>6.4</ele>
        <time>2019-10-29T14:07:31Z</time>
      </trkpt>
      <trkpt lat="48.48662" lon="-2.67251">
        <ele>6.2</ele>
        <time>2019-10-29T14:07:35Z</time>
      </trkpt>
      <trkpt lat="48.48666" lon="-2.6725">
        <ele>6</ele>
        <time>2019-10-29T14:07:38Z</time>
      </trkpt>
      <trkpt lat="48.48669" lon="-2.67248">
        <ele>6</ele>
        <time>2019-10-29T14:07:41Z</time>
      </trkpt>
      <trkpt lat="48.48672" lon="-2.67248">
        <ele>6</ele>
        <time>2019-10-29T14:07:44Z</time>
      </trkpt>
      <trkpt lat="48.48676" lon="-2.67248">
        <ele>6</ele>
        <time>2019-10-29T14:07:48Z</time>
      </trkpt>
      <trkpt lat="48.4868" lon="-2.67249">
        <ele>6</ele>
        <time>2019-10-29T14:07:51Z</time>
      </trkpt>
      <trkpt lat="48.48685" lon="-2.67252">
        <ele>6.1</ele>
        <time>2019-10-29T14:07:55Z</time>
      </trkpt>
      <trkpt lat="48.4869" lon="-2.67254">
        <ele>6.1</ele>
        <time>2019-10-29T14:07:58Z</time>
      </trkpt>
      <trkpt lat="48.48693" lon="-2.6726">
        <ele>6.3</ele>
        <time>2019-10-29T14:08:02Z</time>
      </trkpt>
      <trkpt lat="48.48695" lon="-2.67264">
        <ele>6.5</ele>
        <time>2019-10-29T14:08:05Z</time>
      </trkpt>
      <trkpt lat="48.48698" lon="-2.67269">
        <ele>6.6</ele>
        <time>2019-10-29T14:08:08Z</time>
      </trkpt>
      <trkpt lat="48.48698" lon="-2.67278">
        <ele>6.8</ele>
        <time>2019-10-29T14:08:12Z</time>
      </trkpt>
      <trkpt lat="48.487" lon="-2.67283">
        <ele>6.8</ele>
        <time>2019-10-29T14:08:15Z</time>
      </trkpt>
      <trkpt lat="48.48701" lon="-2.67289">
        <ele>6.7</ele>
        <time>2019-10-29T14:08:18Z</time>
      </trkpt>
      <trkpt lat="48.48703" lon="-2.67294">
        <ele>6.7</ele>
        <time>2019-10-29T14:08:21Z</time>
      </trkpt>
      <trkpt lat="48.48706" lon="-2.67298">
        <ele>6.6</ele>
        <time>2019-10-29T14:08:24Z</time>
      </trkpt>
      <trkpt lat="48.48708" lon="-2.67304">
        <ele>6.5</ele>
        <time>2019-10-29T14:08:28Z</time>
      </trkpt>
      <trkpt lat="48.48709" lon="-2.6731">
        <ele>6.6</ele>
        <time>2019-10-29T14:08:31Z</time>
      </trkpt>
      <trkpt lat="48.4871" lon="-2.67317">
        <ele>6.7</ele>
        <time>2019-10-29T14:08:34Z</time>
      </trkpt>
      <trkpt lat="48.48711" lon="-2.67322">
        <ele>6.8</ele>
        <time>2019-10-29T14:08:37Z</time>
      </trkpt>
      <trkpt lat="48.48713" lon="-2.67327">
        <ele>6.9</ele>
        <time>2019-10-29T14:08:40Z</time>
      </trkpt>
      <trkpt lat="48.48715" lon="-2.67334">
        <ele>7</ele>
        <time>2019-10-29T14:08:44Z</time>
      </trkpt>
      <trkpt lat="48.48718" lon="-2.67336">
        <ele>6.9</ele>
        <time>2019-10-29T14:08:47Z</time>
      </trkpt>
      <trkpt lat="48.48718" lon="-2.67342">
        <ele>6.7</ele>
        <time>2019-10-29T14:08:51Z</time>
      </trkpt>
      <trkpt lat="48.48715" lon="-2.67348">
        <ele>6.5</ele>
        <time>2019-10-29T14:08:54Z</time>
      </trkpt>
      <trkpt lat="48.48713" lon="-2.67352">
        <ele>6.3</ele>
        <time>2019-10-29T14:08:58Z</time>
      </trkpt>
      <trkpt lat="48.48711" lon="-2.67359">
        <ele>6.1</ele>
        <time>2019-10-29T14:09:01Z</time>
      </trkpt>
      <trkpt lat="48.48713" lon="-2.67362">
        <ele>6</ele>
        <time>2019-10-29T14:09:04Z</time>
      </trkpt>
      <trkpt lat="48.48716" lon="-2.67368">
        <ele>6</ele>
        <time>2019-10-29T14:09:08Z</time>
      </trkpt>
      <trkpt lat="48.48718" lon="-2.67373">
        <ele>6</ele>
        <time>2019-10-29T14:09:11Z</time>
      </trkpt>
      <trkpt lat="48.48721" lon="-2.67376">
        <ele>6</ele>
        <time>2019-10-29T14:09:14Z</time>
      </trkpt>
      <trkpt lat="48.48726" lon="-2.67378">
        <ele>6</ele>
        <time>2019-10-29T14:09:17Z</time>
      </trkpt>
      <trkpt lat="48.48728" lon="-2.6738">
        <ele>5.9</ele>
        <time>2019-10-29T14:09:20Z</time>
      </trkpt>
      <trkpt lat="48.48732" lon="-2.67382">
        <ele>5.9</ele>
        <time>2019-10-29T14:09:23Z</time>
      </trkpt>
      <trkpt lat="48.48735" lon="-2.67385">
        <ele>5.9</ele>
        <time>2019-10-29T14:09:26Z</time>
      </trkpt>
      <trkpt lat="48.48738" lon="-2.6739">
        <ele>6</ele>
        <time>2019-10-29T14:09:30Z</time>
      </trkpt>
      <trkpt lat="48.4874" lon="-2.67395">
        <ele>6</ele>
        <time>2019-10-29T14:09:33Z</time>
      </trkpt>
      <trkpt lat="48.48744" lon="-2.67399">
        <ele>6</ele>
        <time>2019-10-29T14:09:37Z</time>
      </trkpt>
      <trkpt lat="48.48747" lon="-2.67404">
        <ele>6</ele>
        <time>2019-10-29T14:09:41Z</time>
      </trkpt>
      <trkpt lat="48.4875" lon="-2.67408">
        <ele>6</ele>
        <time>2019-10-29T14:09:45Z</time>
      </trkpt>
      <trkpt lat="48.48755" lon="-2.67411">
        <ele>6</ele>
        <time>2019-10-29T14:09:49Z</time>
      </trkpt>
      <trkpt lat="48.48758" lon="-2.67414">
        <ele>6</ele>
        <time>2019-10-29T14:09:52Z</time>
      </trkpt>
      <trkpt lat="48.48759" lon="-2.67419">
        <ele>6.1</ele>
        <time>2019-10-29T14:09:55Z</time>
      </trkpt>
      <trkpt lat="48.48763" lon="-2.67424">
        <ele>6.1</ele>
        <time>2019-10-29T14:09:59Z</time>
      </trkpt>
      <trkpt lat="48.48762" lon="-2.67431">
        <ele>6.3</ele>
        <time>2019-10-29T14:10:02Z</time>
      </trkpt>
      <trkpt lat="48.48761" lon="-2.67435">
        <ele>6.4</ele>
        <time>2019-10-29T14:10:05Z</time>
      </trkpt>
      <trkpt lat="48.48759" lon="-2.67441">
        <ele>6.6</ele>
        <time>2019-10-29T14:10:08Z</time>
      </trkpt>
      <trkpt lat="48.48759" lon="-2.67449">
        <ele>6.7</ele>
        <time>2019-10-29T14:10:12Z</time>
      </trkpt>
      <trkpt lat="48.48761" lon="-2.67455">
        <ele>6.6</ele>
        <time>2019-10-29T14:10:16Z</time>
      </trkpt>
      <trkpt lat="48.48764" lon="-2.6746">
        <ele>6.5</ele>
        <time>2019-10-29T14:10:20Z</time>
      </trkpt>
      <trkpt lat="48.48766" lon="-2.67464">
        <ele>6.4</ele>
        <time>2019-10-29T14:10:23Z</time>
      </trkpt>
      <trkpt lat="48.48767" lon="-2.67469">
        <ele>6.4</ele>
        <time>2019-10-29T14:10:26Z</time>
      </trkpt>
      <trkpt lat="48.4877" lon="-2.67472">
        <ele>6.3</ele>
        <time>2019-10-29T14:10:29Z</time>
      </trkpt>
      <trkpt lat="48.48773" lon="-2.67476">
        <ele>6.3</ele>
        <time>2019-10-29T14:10:32Z</time>
      </trkpt>
      <trkpt lat="48.48775" lon="-2.6748">
        <ele>6.3</ele>
        <time>2019-10-29T14:10:35Z</time>
      </trkpt>
      <trkpt lat="48.48779" lon="-2.67485">
        <ele>6.5</ele>
        <time>2019-10-29T14:10:39Z</time>
      </trkpt>
      <trkpt lat="48.48781" lon="-2.67489">
        <ele>6.7</ele>
        <time>2019-10-29T14:10:42Z</time>
      </trkpt>
      <trkpt lat="48.48783" lon="-2.67494">
        <ele>6.8</ele>
        <time>2019-10-29T14:10:45Z</time>
      </trkpt>
      <trkpt lat="48.48784" lon="-2.67499">
        <ele>7</ele>
        <time>2019-10-29T14:10:48Z</time>
      </trkpt>
      <trkpt lat="48.48788" lon="-2.67503">
        <ele>7</ele>
        <time>2019-10-29T14:10:51Z</time>
      </trkpt>
      <trkpt lat="48.48794" lon="-2.67508">
        <ele>7</ele>
        <time>2019-10-29T14:10:55Z</time>
      </trkpt>
      <trkpt lat="48.48798" lon="-2.6751">
        <ele>7</ele>
        <time>2019-10-29T14:10:58Z</time>
      </trkpt>
      <trkpt lat="48.48801" lon="-2.67514">
        <ele>7</ele>
        <time>2019-10-29T14:11:01Z</time>
      </trkpt>
      <trkpt lat="48.48805" lon="-2.67517">
        <ele>7</ele>
        <time>2019-10-29T14:11:05Z</time>
      </trkpt>
      <trkpt lat="48.48808" lon="-2.6752">
        <ele>7</ele>
        <time>2019-10-29T14:11:08Z</time>
      </trkpt>
      <trkpt lat="48.48812" lon="-2.67524">
        <ele>7</ele>
        <time>2019-10-29T14:11:11Z</time>
      </trkpt>
      <trkpt lat="48.48814" lon="-2.67529">
        <ele>7</ele>
        <time>2019-10-29T14:11:14Z</time>
      </trkpt>
      <trkpt lat="48.48817" lon="-2.67533">
        <ele>7</ele>
        <time>2019-10-29T14:11:18Z</time>
      </trkpt>
      <trkpt lat="48.48823" lon="-2.67536">
        <ele>6.9</ele>
        <time>2019-10-29T14:11:22Z</time>
      </trkpt>
      <trkpt lat="48.48827" lon="-2.67537">
        <ele>6.8</ele>
        <time>2019-10-29T14:11:25Z</time>
      </trkpt>
      <trkpt lat="48.48826" lon="-2.67539">
        <ele>6.8</ele>
        <time>2019-10-29T14:11:29Z</time>
      </trkpt>
      <trkpt lat="48.48828" lon="-2.67541">
        <ele>6.7</ele>
        <time>2019-10-29T14:11:37Z</time>
      </trkpt>
      <trkpt lat="48.48831" lon="-2.67541">
        <ele>6.6</ele>
        <time>2019-10-29T14:11:40Z</time>
      </trkpt>
      <trkpt lat="48.48836" lon="-2.67542">
        <ele>6.5</ele>
        <time>2019-10-29T14:11:43Z</time>
      </trkpt>
      <trkpt lat="48.48841" lon="-2.67542">
        <ele>6.7</ele>
        <time>2019-10-29T14:11:46Z</time>
      </trkpt>
      <trkpt lat="48.48844" lon="-2.67538">
        <ele>6.8</ele>
        <time>2019-10-29T14:11:49Z</time>
      </trkpt>
      <trkpt lat="48.48847" lon="-2.67535">
        <ele>6.9</ele>
        <time>2019-10-29T14:11:53Z</time>
      </trkpt>
      <trkpt lat="48.48851" lon="-2.67532">
        <ele>6.9</ele>
        <time>2019-10-29T14:11:57Z</time>
      </trkpt>
      <trkpt lat="48.48855" lon="-2.6753">
        <ele>7</ele>
        <time>2019-10-29T14:12:00Z</time>
      </trkpt>
      <trkpt lat="48.48858" lon="-2.6753">
        <ele>7</ele>
        <time>2019-10-29T14:12:04Z</time>
      </trkpt>
      <trkpt lat="48.48862" lon="-2.67529">
        <ele>7</ele>
        <time>2019-10-29T14:12:07Z</time>
      </trkpt>
      <trkpt lat="48.48866" lon="-2.67528">
        <ele>1</ele>
        <time>2019-10-29T14:12:11Z</time>
      </trkpt>
      <trkpt lat="48.4887" lon="-2.67529">
        <ele>1</ele>
        <time>2019-10-29T14:12:14Z</time>
      </trkpt>
      <trkpt lat="48.48874" lon="-2.67529">
        <ele>1</ele>
        <time>2019-10-29T14:12:18Z</time>
      </trkpt>
      <trkpt lat="48.48878" lon="-2.67528">
        <ele>2</ele>
        <time>2019-10-29T14:12:22Z</time>
      </trkpt>
      <trkpt lat="48.48883" lon="-2.67527">
        <ele>3</ele>
        <time>2019-10-29T14:12:25Z</time>
      </trkpt>
      <trkpt lat="48.48888" lon="-2.67525">
        <ele>3</ele>
        <time>2019-10-29T14:12:29Z</time>
      </trkpt>
      <trkpt lat="48.48894" lon="-2.67525">
        <ele>3</ele>
        <time>2019-10-29T14:12:33Z</time>
      </trkpt>
      <trkpt lat="48.48896" lon="-2.67524">
        <ele>3</ele>
        <time>2019-10-29T14:12:36Z</time>
      </trkpt>
      <trkpt lat="48.48903" lon="-2.67523">
        <ele>3</ele>
        <time>2019-10-29T14:12:39Z</time>
      </trkpt>
      <trkpt lat="48.48907" lon="-2.67523">
        <ele>3</ele>
        <time>2019-10-29T14:12:42Z</time>
      </trkpt>
      <trkpt lat="48.48912" lon="-2.67523">
        <ele>3</ele>
        <time>2019-10-29T14:12:45Z</time>
      </trkpt>
      <trkpt lat="48.48916" lon="-2.67524">
        <ele>3</ele>
        <time>2019-10-29T14:12:48Z</time>
      </trkpt>
      <trkpt lat="48.48922" lon="-2.67525">
        <ele>3</ele>
        <time>2019-10-29T14:12:51Z</time>
      </trkpt>
      <trkpt lat="48.48927" lon="-2.67526">
        <ele>2</ele>
        <time>2019-10-29T14:12:55Z</time>
      </trkpt>
      <trkpt lat="48.48931" lon="-2.67527">
        <ele>2</ele>
        <time>2019-10-29T14:12:58Z</time>
      </trkpt>
      <trkpt lat="48.48935" lon="-2.67529">
        <ele>2</ele>
        <time>2019-10-29T14:13:01Z</time>
      </trkpt>
      <trkpt lat="48.48938" lon="-2.6753">
        <ele>2</ele>
        <time>2019-10-29T14:13:04Z</time>
      </trkpt>
      <trkpt lat="48.48943" lon="-2.67533">
        <ele>2</ele>
        <time>2019-10-29T14:13:07Z</time>
      </trkpt>
      <trkpt lat="48.48946" lon="-2.67537">
        <ele>2</ele>
        <time>2019-10-29T14:13:11Z</time>
      </trkpt>
      <trkpt lat="48.48949" lon="-2.6754">
        <ele>2</ele>
        <time>2019-10-29T14:13:14Z</time>
      </trkpt>
      <trkpt lat="48.48952" lon="-2.67544">
        <ele>2</ele>
        <time>2019-10-29T14:13:18Z</time>
      </trkpt>
      <trkpt lat="48.48955" lon="-2.67546">
        <ele>2</ele>
        <time>2019-10-29T14:13:21Z</time>
      </trkpt>
      <trkpt lat="48.48958" lon="-2.67549">
        <ele>2</ele>
        <time>2019-10-29T14:13:24Z</time>
      </trkpt>
      <trkpt lat="48.48961" lon="-2.67553">
        <ele>2</ele>
        <time>2019-10-29T14:13:27Z</time>
      </trkpt>
      <trkpt lat="48.48965" lon="-2.67557">
        <ele>2</ele>
        <time>2019-10-29T14:13:30Z</time>
      </trkpt>
      <trkpt lat="48.48967" lon="-2.67563">
        <ele>2</ele>
        <time>2019-10-29T14:13:34Z</time>
      </trkpt>
      <trkpt lat="48.48969" lon="-2.67567">
        <ele>2</ele>
        <time>2019-10-29T14:13:37Z</time>
      </trkpt>
      <trkpt lat="48.48971" lon="-2.67572">
        <ele>2</ele>
        <time>2019-10-29T14:13:40Z</time>
      </trkpt>
      <trkpt lat="48.48972" lon="-2.67579">
        <ele>2</ele>
        <time>2019-10-29T14:13:43Z</time>
      </trkpt>
      <trkpt lat="48.48974" lon="-2.67584">
        <ele>3</ele>
        <time>2019-10-29T14:13:46Z</time>
      </trkpt>
      <trkpt lat="48.48977" lon="-2.67589">
        <ele>4</ele>
        <time>2019-10-29T14:13:50Z</time>
      </trkpt>
      <trkpt lat="48.48979" lon="-2.67594">
        <ele>4</ele>
        <time>2019-10-29T14:13:53Z</time>
      </trkpt>
      <trkpt lat="48.48981" lon="-2.67598">
        <ele>4</ele>
        <time>2019-10-29T14:13:56Z</time>
      </trkpt>
      <trkpt lat="48.48982" lon="-2.67603">
        <ele>4</ele>
        <time>2019-10-29T14:13:59Z</time>
      </trkpt>
      <trkpt lat="48.48983" lon="-2.67609">
        <ele>4</ele>
        <time>2019-10-29T14:14:02Z</time>
      </trkpt>
      <trkpt lat="48.48983" lon="-2.67616">
        <ele>4</ele>
        <time>2019-10-29T14:14:05Z</time>
      </trkpt>
      <trkpt lat="48.48985" lon="-2.67621">
        <ele>4</ele>
        <time>2019-10-29T14:14:08Z</time>
      </trkpt>
      <trkpt lat="48.48988" lon="-2.67627">
        <ele>4</ele>
        <time>2019-10-29T14:14:12Z</time>
      </trkpt>
      <trkpt lat="48.48989" lon="-2.67632">
        <ele>4</ele>
        <time>2019-10-29T14:14:15Z</time>
      </trkpt>
      <trkpt lat="48.4899" lon="-2.67637">
        <ele>4</ele>
        <time>2019-10-29T14:14:18Z</time>
      </trkpt>
      <trkpt lat="48.4899" lon="-2.67644">
        <ele>4</ele>
        <time>2019-10-29T14:14:22Z</time>
      </trkpt>
      <trkpt lat="48.48991" lon="-2.67651">
        <ele>4</ele>
        <time>2019-10-29T14:14:25Z</time>
      </trkpt>
      <trkpt lat="48.48991" lon="-2.67657">
        <ele>4</ele>
        <time>2019-10-29T14:14:28Z</time>
      </trkpt>
      <trkpt lat="48.48991" lon="-2.67663">
        <ele>4</ele>
        <time>2019-10-29T14:14:31Z</time>
      </trkpt>
      <trkpt lat="48.48991" lon="-2.67669">
        <ele>4</ele>
        <time>2019-10-29T14:14:34Z</time>
      </trkpt>
      <trkpt lat="48.48991" lon="-2.67675">
        <ele>4</ele>
        <time>2019-10-29T14:14:37Z</time>
      </trkpt>
      <trkpt lat="48.48993" lon="-2.67682">
        <ele>4</ele>
        <time>2019-10-29T14:14:41Z</time>
      </trkpt>
      <trkpt lat="48.48993" lon="-2.67688">
        <ele>4</ele>
        <time>2019-10-29T14:14:44Z</time>
      </trkpt>
      <trkpt lat="48.48993" lon="-2.67693">
        <ele>4</ele>
        <time>2019-10-29T14:14:47Z</time>
      </trkpt>
      <trkpt lat="48.48994" lon="-2.67698">
        <ele>4</ele>
        <time>2019-10-29T14:14:50Z</time>
      </trkpt>
      <trkpt lat="48.48994" lon="-2.67705">
        <ele>4</ele>
        <time>2019-10-29T14:14:53Z</time>
      </trkpt>
      <trkpt lat="48.48995" lon="-2.67712">
        <ele>4</ele>
        <time>2019-10-29T14:14:56Z</time>
      </trkpt>
      <trkpt lat="48.48999" lon="-2.67714">
        <ele>4</ele>
        <time>2019-10-29T14:15:00Z</time>
      </trkpt>
      <trkpt lat="48.49003" lon="-2.6771">
        <ele>4</ele>
        <time>2019-10-29T14:15:04Z</time>
      </trkpt>
      <trkpt lat="48.49007" lon="-2.67706">
        <ele>4</ele>
        <time>2019-10-29T14:15:07Z</time>
      </trkpt>
      <trkpt lat="48.4901" lon="-2.67701">
        <ele>4</ele>
        <time>2019-10-29T14:15:10Z</time>
      </trkpt>
      <trkpt lat="48.49014" lon="-2.67694">
        <ele>4</ele>
        <time>2019-10-29T14:15:14Z</time>
      </trkpt>
      <trkpt lat="48.49015" lon="-2.67689">
        <ele>4</ele>
        <time>2019-10-29T14:15:17Z</time>
      </trkpt>
      <trkpt lat="48.49017" lon="-2.67683">
        <ele>4</ele>
        <time>2019-10-29T14:15:21Z</time>
      </trkpt>
      <trkpt lat="48.4902" lon="-2.67678">
        <ele>4</ele>
        <time>2019-10-29T14:15:24Z</time>
      </trkpt>
      <trkpt lat="48.49023" lon="-2.67673">
        <ele>4</ele>
        <time>2019-10-29T14:15:28Z</time>
      </trkpt>
      <trkpt lat="48.49026" lon="-2.67667">
        <ele>4</ele>
        <time>2019-10-29T14:15:32Z</time>
      </trkpt>
      <trkpt lat="48.4903" lon="-2.67661">
        <ele>4</ele>
        <time>2019-10-29T14:15:36Z</time>
      </trkpt>
      <trkpt lat="48.49033" lon="-2.67655">
        <ele>4</ele>
        <time>2019-10-29T14:15:40Z</time>
      </trkpt>
      <trkpt lat="48.49036" lon="-2.67649">
        <ele>4</ele>
        <time>2019-10-29T14:15:44Z</time>
      </trkpt>
      <trkpt lat="48.49039" lon="-2.67643">
        <ele>4</ele>
        <time>2019-10-29T14:15:48Z</time>
      </trkpt>
      <trkpt lat="48.49042" lon="-2.67637">
        <ele>4</ele>
        <time>2019-10-29T14:15:52Z</time>
      </trkpt>
      <trkpt lat="48.49045" lon="-2.67631">
        <ele>4</ele>
        <time>2019-10-29T14:15:56Z</time>
      </trkpt>
      <trkpt lat="48.49048" lon="-2.67625">
        <ele>4</ele>
        <time>2019-10-29T14:16:00Z</time>
      </trkpt>
      <trkpt lat="48.49051" lon="-2.6762">
        <ele>4</ele>
        <time>2019-10-29T14:16:03Z</time>
      </trkpt>
      <trkpt lat="48.49054" lon="-2.67617">
        <ele>4</ele>
        <time>2019-10-29T14:16:06Z</time>
      </trkpt>
      <trkpt lat="48.49056" lon="-2.67612">
        <ele>4</ele>
        <time>2019-10-29T14:16:09Z</time>
      </trkpt>
      <trkpt lat="48.49059" lon="-2.67606">
        <ele>4</ele>
        <time>2019-10-29T14:16:13Z</time>
      </trkpt>
      <trkpt lat="48.49062" lon="-2.676">
        <ele>4</ele>
        <time>2019-10-29T14:16:17Z</time>
      </trkpt>
      <trkpt lat="48.49065" lon="-2.67594">
        <ele>4</ele>
        <time>2019-10-29T14:16:21Z</time>
      </trkpt>
      <trkpt lat="48.49067" lon="-2.67589">
        <ele>4</ele>
        <time>2019-10-29T14:16:24Z</time>
      </trkpt>
      <trkpt lat="48.49069" lon="-2.67584">
        <ele>4</ele>
        <time>2019-10-29T14:16:27Z</time>
      </trkpt>
      <trkpt lat="48.49072" lon="-2.67579">
        <ele>4</ele>
        <time>2019-10-29T14:16:30Z</time>
      </trkpt>
      <trkpt lat="48.49074" lon="-2.67574">
        <ele>4</ele>
        <time>2019-10-29T14:16:33Z</time>
      </trkpt>
      <trkpt lat="48.49076" lon="-2.67569">
        <ele>4</ele>
        <time>2019-10-29T14:16:36Z</time>
      </trkpt>
      <trkpt lat="48.49078" lon="-2.67564">
        <ele>4</ele>
        <time>2019-10-29T14:16:39Z</time>
      </trkpt>
      <trkpt lat="48.4908" lon="-2.67559">
        <ele>4</ele>
        <time>2019-10-29T14:16:42Z</time>
      </trkpt>
      <trkpt lat="48.49083" lon="-2.67554">
        <ele>4</ele>
        <time>2019-10-29T14:16:45Z</time>
      </trkpt>
      <trkpt lat="48.49085" lon="-2.6755">
        <ele>4</ele>
        <time>2019-10-29T14:16:48Z</time>
      </trkpt>
      <trkpt lat="48.49087" lon="-2.67546">
        <ele>4</ele>
        <time>2019-10-29T14:16:51Z</time>
      </trkpt>
      <trkpt lat="48.4909" lon="-2.6754">
        <ele>4</ele>
        <time>2019-10-29T14:16:55Z</time>
      </trkpt>
      <trkpt lat="48.49093" lon="-2.67536">
        <ele>4</ele>
        <time>2019-10-29T14:16:58Z</time>
      </trkpt>
      <trkpt lat="48.49096" lon="-2.67531">
        <ele>4</ele>
        <time>2019-10-29T14:17:02Z</time>
      </trkpt>
      <trkpt lat="48.49099" lon="-2.67526">
        <ele>4</ele>
        <time>2019-10-29T14:17:06Z</time>
      </trkpt>
      <trkpt lat="48.49101" lon="-2.67522">
        <ele>4</ele>
        <time>2019-10-29T14:17:09Z</time>
      </trkpt>
      <trkpt lat="48.49104" lon="-2.67515">
        <ele>4</ele>
        <time>2019-10-29T14:17:13Z</time>
      </trkpt>
      <trkpt lat="48.49107" lon="-2.6751">
        <ele>4</ele>
        <time>2019-10-29T14:17:16Z</time>
      </trkpt>
      <trkpt lat="48.4911" lon="-2.67505">
        <ele>4</ele>
        <time>2019-10-29T14:17:20Z</time>
      </trkpt>
      <trkpt lat="48.49112" lon="-2.675">
        <ele>5</ele>
        <time>2019-10-29T14:17:23Z</time>
      </trkpt>
      <trkpt lat="48.49115" lon="-2.67495">
        <ele>5</ele>
        <time>2019-10-29T14:17:26Z</time>
      </trkpt>
      <trkpt lat="48.49118" lon="-2.67489">
        <ele>5</ele>
        <time>2019-10-29T14:17:30Z</time>
      </trkpt>
      <trkpt lat="48.4912" lon="-2.67484">
        <ele>6</ele>
        <time>2019-10-29T14:17:33Z</time>
      </trkpt>
      <trkpt lat="48.49122" lon="-2.67478">
        <ele>7</ele>
        <time>2019-10-29T14:17:37Z</time>
      </trkpt>
      <trkpt lat="48.49126" lon="-2.67473">
        <ele>7</ele>
        <time>2019-10-29T14:17:41Z</time>
      </trkpt>
      <trkpt lat="48.4913" lon="-2.6747">
        <ele>7</ele>
        <time>2019-10-29T14:17:44Z</time>
      </trkpt>
      <trkpt lat="48.49135" lon="-2.67472">
        <ele>7</ele>
        <time>2019-10-29T14:17:48Z</time>
      </trkpt>
      <trkpt lat="48.49138" lon="-2.67471">
        <ele>7</ele>
        <time>2019-10-29T14:17:51Z</time>
      </trkpt>
      <trkpt lat="48.49141" lon="-2.67472">
        <ele>7</ele>
        <time>2019-10-29T14:17:54Z</time>
      </trkpt>
      <trkpt lat="48.49145" lon="-2.67472">
        <ele>6</ele>
        <time>2019-10-29T14:17:58Z</time>
      </trkpt>
      <trkpt lat="48.49148" lon="-2.6747">
        <ele>6</ele>
        <time>2019-10-29T14:18:01Z</time>
      </trkpt>
      <trkpt lat="48.49149" lon="-2.67471">
        <ele>6</ele>
        <time>2019-10-29T14:18:04Z</time>
      </trkpt>
      <trkpt lat="48.49153" lon="-2.67472">
        <ele>6</ele>
        <time>2019-10-29T14:18:08Z</time>
      </trkpt>
      <trkpt lat="48.49158" lon="-2.67473">
        <ele>6</ele>
        <time>2019-10-29T14:18:11Z</time>
      </trkpt>
      <trkpt lat="48.49161" lon="-2.67472">
        <ele>6</ele>
        <time>2019-10-29T14:18:14Z</time>
      </trkpt>
      <trkpt lat="48.49165" lon="-2.67474">
        <ele>6</ele>
        <time>2019-10-29T14:18:17Z</time>
      </trkpt>
      <trkpt lat="48.49169" lon="-2.67474">
        <ele>6</ele>
        <time>2019-10-29T14:18:21Z</time>
      </trkpt>
      <trkpt lat="48.49173" lon="-2.67474">
        <ele>6</ele>
        <time>2019-10-29T14:18:24Z</time>
      </trkpt>
      <trkpt lat="48.49176" lon="-2.67474">
        <ele>6</ele>
        <time>2019-10-29T14:18:27Z</time>
      </trkpt>
      <trkpt lat="48.4918" lon="-2.67474">
        <ele>6</ele>
        <time>2019-10-29T14:18:31Z</time>
      </trkpt>
      <trkpt lat="48.49185" lon="-2.67475">
        <ele>6</ele>
        <time>2019-10-29T14:18:34Z</time>
      </trkpt>
      <trkpt lat="48.4919" lon="-2.67476">
        <ele>6</ele>
        <time>2019-10-29T14:18:37Z</time>
      </trkpt>
      <trkpt lat="48.49194" lon="-2.67477">
        <ele>6</ele>
        <time>2019-10-29T14:18:40Z</time>
      </trkpt>
      <trkpt lat="48.49197" lon="-2.67478">
        <ele>6</ele>
        <time>2019-10-29T14:18:44Z</time>
      </trkpt>
      <trkpt lat="48.492" lon="-2.67481">
        <ele>6</ele>
        <time>2019-10-29T14:18:48Z</time>
      </trkpt>
      <trkpt lat="48.49204" lon="-2.67483">
        <ele>6</ele>
        <time>2019-10-29T14:18:51Z</time>
      </trkpt>
      <trkpt lat="48.49208" lon="-2.67485">
        <ele>6</ele>
        <time>2019-10-29T14:18:54Z</time>
      </trkpt>
      <trkpt lat="48.49212" lon="-2.67486">
        <ele>6</ele>
        <time>2019-10-29T14:18:57Z</time>
      </trkpt>
      <trkpt lat="48.49215" lon="-2.67486">
        <ele>6</ele>
        <time>2019-10-29T14:19:00Z</time>
      </trkpt>
      <trkpt lat="48.49219" lon="-2.67484">
        <ele>6</ele>
        <time>2019-10-29T14:19:03Z</time>
      </trkpt>
      <trkpt lat="48.49222" lon="-2.67482">
        <ele>6</ele>
        <time>2019-10-29T14:19:06Z</time>
      </trkpt>
      <trkpt lat="48.49226" lon="-2.67478">
        <ele>6</ele>
        <time>2019-10-29T14:19:10Z</time>
      </trkpt>
      <trkpt lat="48.49229" lon="-2.67474">
        <ele>6</ele>
        <time>2019-10-29T14:19:13Z</time>
      </trkpt>
      <trkpt lat="48.49233" lon="-2.6747">
        <ele>6</ele>
        <time>2019-10-29T14:19:17Z</time>
      </trkpt>
      <trkpt lat="48.49236" lon="-2.67466">
        <ele>6</ele>
        <time>2019-10-29T14:19:20Z</time>
      </trkpt>
      <trkpt lat="48.49238" lon="-2.67462">
        <ele>6</ele>
        <time>2019-10-29T14:19:23Z</time>
      </trkpt>
      <trkpt lat="48.49241" lon="-2.67458">
        <ele>6</ele>
        <time>2019-10-29T14:19:26Z</time>
      </trkpt>
      <trkpt lat="48.49244" lon="-2.67453">
        <ele>6</ele>
        <time>2019-10-29T14:19:30Z</time>
      </trkpt>
      <trkpt lat="48.49246" lon="-2.67448">
        <ele>6</ele>
        <time>2019-10-29T14:19:33Z</time>
      </trkpt>
      <trkpt lat="48.49248" lon="-2.67441">
        <ele>6</ele>
        <time>2019-10-29T14:19:36Z</time>
      </trkpt>
      <trkpt lat="48.4925" lon="-2.67434">
        <ele>6</ele>
        <time>2019-10-29T14:19:40Z</time>
      </trkpt>
      <trkpt lat="48.49252" lon="-2.67429">
        <ele>6</ele>
        <time>2019-10-29T14:19:43Z</time>
      </trkpt>
      <trkpt lat="48.49252" lon="-2.67424">
        <ele>6</ele>
        <time>2019-10-29T14:19:46Z</time>
      </trkpt>
      <trkpt lat="48.49253" lon="-2.67417">
        <ele>6</ele>
        <time>2019-10-29T14:19:49Z</time>
      </trkpt>
      <trkpt lat="48.49255" lon="-2.67412">
        <ele>6</ele>
        <time>2019-10-29T14:19:53Z</time>
      </trkpt>
      <trkpt lat="48.49257" lon="-2.67405">
        <ele>6</ele>
        <time>2019-10-29T14:19:57Z</time>
      </trkpt>
      <trkpt lat="48.49258" lon="-2.67399">
        <ele>6</ele>
        <time>2019-10-29T14:20:00Z</time>
      </trkpt>
      <trkpt lat="48.49258" lon="-2.67392">
        <ele>6</ele>
        <time>2019-10-29T14:20:03Z</time>
      </trkpt>
      <trkpt lat="48.49259" lon="-2.67385">
        <ele>6</ele>
        <time>2019-10-29T14:20:06Z</time>
      </trkpt>
      <trkpt lat="48.4926" lon="-2.67379">
        <ele>6</ele>
        <time>2019-10-29T14:20:09Z</time>
      </trkpt>
      <trkpt lat="48.4926" lon="-2.67374">
        <ele>6</ele>
        <time>2019-10-29T14:20:12Z</time>
      </trkpt>
      <trkpt lat="48.4926" lon="-2.67369">
        <ele>6</ele>
        <time>2019-10-29T14:20:15Z</time>
      </trkpt>
      <trkpt lat="48.4926" lon="-2.67364">
        <ele>6</ele>
        <time>2019-10-29T14:20:18Z</time>
      </trkpt>
      <trkpt lat="48.49259" lon="-2.67358">
        <ele>6</ele>
        <time>2019-10-29T14:20:21Z</time>
      </trkpt>
      <trkpt lat="48.49259" lon="-2.67353">
        <ele>6</ele>
        <time>2019-10-29T14:20:24Z</time>
      </trkpt>
      <trkpt lat="48.49258" lon="-2.67349">
        <ele>5</ele>
        <time>2019-10-29T14:20:27Z</time>
      </trkpt>
      <trkpt lat="48.49258" lon="-2.67344">
        <ele>3</ele>
        <time>2019-10-29T14:20:30Z</time>
      </trkpt>
      <trkpt lat="48.49257" lon="-2.67338">
        <ele>2</ele>
        <time>2019-10-29T14:20:33Z</time>
      </trkpt>
      <trkpt lat="48.49256" lon="-2.67331">
        <ele>2</ele>
        <time>2019-10-29T14:20:36Z</time>
      </trkpt>
      <trkpt lat="48.49256" lon="-2.67326">
        <ele>2</ele>
        <time>2019-10-29T14:20:39Z</time>
      </trkpt>
      <trkpt lat="48.49255" lon="-2.67318">
        <ele>2</ele>
        <time>2019-10-29T14:20:42Z</time>
      </trkpt>
      <trkpt lat="48.49254" lon="-2.67312">
        <ele>2</ele>
        <time>2019-10-29T14:20:45Z</time>
      </trkpt>
      <trkpt lat="48.49253" lon="-2.67306">
        <ele>2</ele>
        <time>2019-10-29T14:20:48Z</time>
      </trkpt>
      <trkpt lat="48.49253" lon="-2.673">
        <ele>2</ele>
        <time>2019-10-29T14:20:51Z</time>
      </trkpt>
      <trkpt lat="48.49252" lon="-2.67292">
        <ele>2</ele>
        <time>2019-10-29T14:20:54Z</time>
      </trkpt>
      <trkpt lat="48.49252" lon="-2.67286">
        <ele>2</ele>
        <time>2019-10-29T14:20:57Z</time>
      </trkpt>
      <trkpt lat="48.49253" lon="-2.6728">
        <ele>2</ele>
        <time>2019-10-29T14:21:00Z</time>
      </trkpt>
      <trkpt lat="48.49253" lon="-2.67275">
        <ele>2</ele>
        <time>2019-10-29T14:21:03Z</time>
      </trkpt>
      <trkpt lat="48.49253" lon="-2.67268">
        <ele>1</ele>
        <time>2019-10-29T14:21:06Z</time>
      </trkpt>
      <trkpt lat="48.49253" lon="-2.67262">
        <ele>7.4</ele>
        <time>2019-10-29T14:21:09Z</time>
      </trkpt>
      <trkpt lat="48.49252" lon="-2.67253">
        <ele>7.1</ele>
        <time>2019-10-29T14:21:13Z</time>
      </trkpt>
      <trkpt lat="48.49251" lon="-2.67246">
        <ele>7</ele>
        <time>2019-10-29T14:21:17Z</time>
      </trkpt>
      <trkpt lat="48.49251" lon="-2.6724">
        <ele>7</ele>
        <time>2019-10-29T14:21:21Z</time>
      </trkpt>
      <trkpt lat="48.49251" lon="-2.67235">
        <ele>7</ele>
        <time>2019-10-29T14:21:24Z</time>
      </trkpt>
      <trkpt lat="48.4925" lon="-2.67235">
        <ele>7</ele>
        <time>2019-10-29T14:21:36Z</time>
      </trkpt>
      <trkpt lat="48.49251" lon="-2.67232">
        <ele>7</ele>
        <time>2019-10-29T14:21:40Z</time>
      </trkpt>
      <trkpt lat="48.49252" lon="-2.67231">
        <ele>7</ele>
        <time>2019-10-29T14:21:45Z</time>
      </trkpt>
      <trkpt lat="48.49251" lon="-2.67231">
        <ele>7</ele>
        <time>2019-10-29T14:21:51Z</time>
      </trkpt>
      <trkpt lat="48.49249" lon="-2.67232">
        <ele>7</ele>
        <time>2019-10-29T14:21:56Z</time>
      </trkpt>
      <trkpt lat="48.4925" lon="-2.67233">
        <ele>7</ele>
        <time>2019-10-29T14:22:04Z</time>
      </trkpt>
      <trkpt lat="48.4925" lon="-2.67232">
        <ele>1</ele>
        <time>2019-10-29T14:22:34Z</time>
      </trkpt>
      <trkpt lat="48.4925" lon="-2.6723">
        <ele>1</ele>
        <time>2019-10-29T14:22:37Z</time>
      </trkpt>
      <trkpt lat="48.49251" lon="-2.67232">
        <ele>1</ele>
        <time>2019-10-29T14:22:41Z</time>
      </trkpt>
      <trkpt lat="48.49251" lon="-2.67234">
        <ele>1</ele>
        <time>2019-10-29T14:22:47Z</time>
      </trkpt>
      <trkpt lat="48.4925" lon="-2.67234">
        <ele>1</ele>
        <time>2019-10-29T14:22:50Z</time>
      </trkpt>
      <trkpt lat="48.49249" lon="-2.67232">
        <ele>1</ele>
        <time>2019-10-29T14:23:05Z</time>
      </trkpt>
      <trkpt lat="48.4925" lon="-2.6723">
        <ele>1</ele>
        <time>2019-10-29T14:23:08Z</time>
      </trkpt>
      <trkpt lat="48.49251" lon="-2.6723">
        <ele>1</ele>
        <time>2019-10-29T14:23:11Z</time>
      </trkpt>
      <trkpt lat="48.4925" lon="-2.67231">
        <ele>1</ele>
        <time>2019-10-29T14:23:18Z</time>
      </trkpt>
      <trkpt lat="48.49248" lon="-2.67233">
        <ele>1</ele>
        <time>2019-10-29T14:23:24Z</time>
      </trkpt>
      <trkpt lat="48.4925" lon="-2.67233">
        <ele>5</ele>
        <time>2019-10-29T14:23:34Z</time>
      </trkpt>
      <trkpt lat="48.49251" lon="-2.67232">
        <ele>5</ele>
        <time>2019-10-29T14:23:38Z</time>
      </trkpt>
      <trkpt lat="48.49253" lon="-2.67228">
        <ele>5</ele>
        <time>2019-10-29T14:23:42Z</time>
      </trkpt>
      <trkpt lat="48.49254" lon="-2.67221">
        <ele>5</ele>
        <time>2019-10-29T14:23:45Z</time>
      </trkpt>
      <trkpt lat="48.49256" lon="-2.67215">
        <ele>5</ele>
        <time>2019-10-29T14:23:48Z</time>
      </trkpt>
      <trkpt lat="48.49259" lon="-2.67211">
        <ele>4</ele>
        <time>2019-10-29T14:23:51Z</time>
      </trkpt>
      <trkpt lat="48.49262" lon="-2.67206">
        <ele>4</ele>
        <time>2019-10-29T14:23:54Z</time>
      </trkpt>
      <trkpt lat="48.49264" lon="-2.67201">
        <ele>4</ele>
        <time>2019-10-29T14:23:57Z</time>
      </trkpt>
      <trkpt lat="48.49266" lon="-2.67197">
        <ele>4</ele>
        <time>2019-10-29T14:24:00Z</time>
      </trkpt>
      <trkpt lat="48.4927" lon="-2.67196">
        <ele>2</ele>
        <time>2019-10-29T14:24:04Z</time>
      </trkpt>
      <trkpt lat="48.49271" lon="-2.672">
        <ele>2</ele>
        <time>2019-10-29T14:24:08Z</time>
      </trkpt>
      <trkpt lat="48.49272" lon="-2.67206">
        <ele>2</ele>
        <time>2019-10-29T14:24:12Z</time>
      </trkpt>
      <trkpt lat="48.49271" lon="-2.67212">
        <ele>2</ele>
        <time>2019-10-29T14:24:16Z</time>
      </trkpt>
      <trkpt lat="48.49271" lon="-2.67217">
        <ele>2</ele>
        <time>2019-10-29T14:24:19Z</time>
      </trkpt>
      <trkpt lat="48.49271" lon="-2.67222">
        <ele>2</ele>
        <time>2019-10-29T14:24:22Z</time>
      </trkpt>
      <trkpt lat="48.49272" lon="-2.67226">
        <ele>2</ele>
        <time>2019-10-29T14:24:25Z</time>
      </trkpt>
      <trkpt lat="48.49271" lon="-2.67231">
        <ele>2</ele>
        <time>2019-10-29T14:24:28Z</time>
      </trkpt>
      <trkpt lat="48.4927" lon="-2.67236">
        <ele>2</ele>
        <time>2019-10-29T14:24:31Z</time>
      </trkpt>
      <trkpt lat="48.4927" lon="-2.67242">
        <ele>2</ele>
        <time>2019-10-29T14:24:34Z</time>
      </trkpt>
      <trkpt lat="48.49268" lon="-2.67246">
        <ele>2</ele>
        <time>2019-10-29T14:24:37Z</time>
      </trkpt>
      <trkpt lat="48.49268" lon="-2.6725">
        <ele>4</ele>
        <time>2019-10-29T14:24:41Z</time>
      </trkpt>
      <trkpt lat="48.49268" lon="-2.67253">
        <ele>4</ele>
        <time>2019-10-29T14:24:45Z</time>
      </trkpt>
      <trkpt lat="48.49267" lon="-2.67258">
        <ele>4</ele>
        <time>2019-10-29T14:24:48Z</time>
      </trkpt>
      <trkpt lat="48.49268" lon="-2.67265">
        <ele>4</ele>
        <time>2019-10-29T14:24:51Z</time>
      </trkpt>
      <trkpt lat="48.4927" lon="-2.67269">
        <ele>4</ele>
        <time>2019-10-29T14:24:54Z</time>
      </trkpt>
      <trkpt lat="48.49269" lon="-2.67273">
        <ele>4</ele>
        <time>2019-10-29T14:24:57Z</time>
      </trkpt>
      <trkpt lat="48.49267" lon="-2.6728">
        <ele>4</ele>
        <time>2019-10-29T14:25:00Z</time>
      </trkpt>
      <trkpt lat="48.49266" lon="-2.67286">
        <ele>4</ele>
        <time>2019-10-29T14:25:03Z</time>
      </trkpt>
      <trkpt lat="48.49266" lon="-2.67292">
        <ele>4</ele>
        <time>2019-10-29T14:25:07Z</time>
      </trkpt>
      <trkpt lat="48.49268" lon="-2.67298">
        <ele>4</ele>
        <time>2019-10-29T14:25:10Z</time>
      </trkpt>
      <trkpt lat="48.49269" lon="-2.67303">
        <ele>4</ele>
        <time>2019-10-29T14:25:13Z</time>
      </trkpt>
      <trkpt lat="48.49269" lon="-2.67308">
        <ele>3</ele>
        <time>2019-10-29T14:25:17Z</time>
      </trkpt>
      <trkpt lat="48.49269" lon="-2.6731">
        <ele>2</ele>
        <time>2019-10-29T14:25:21Z</time>
      </trkpt>
      <trkpt lat="48.49268" lon="-2.67312">
        <ele>2</ele>
        <time>2019-10-29T14:25:24Z</time>
      </trkpt>
      <trkpt lat="48.4927" lon="-2.67316">
        <ele>2</ele>
        <time>2019-10-29T14:25:27Z</time>
      </trkpt>
      <trkpt lat="48.4927" lon="-2.67321">
        <ele>2</ele>
        <time>2019-10-29T14:25:31Z</time>
      </trkpt>
      <trkpt lat="48.49271" lon="-2.67325">
        <ele>2</ele>
        <time>2019-10-29T14:25:34Z</time>
      </trkpt>
      <trkpt lat="48.49273" lon="-2.67329">
        <ele>2</ele>
        <time>2019-10-29T14:25:38Z</time>
      </trkpt>
      <trkpt lat="48.49274" lon="-2.67335">
        <ele>2</ele>
        <time>2019-10-29T14:25:42Z</time>
      </trkpt>
      <trkpt lat="48.49276" lon="-2.67339">
        <ele>2</ele>
        <time>2019-10-29T14:25:45Z</time>
      </trkpt>
      <trkpt lat="48.49278" lon="-2.67345">
        <ele>2</ele>
        <time>2019-10-29T14:25:49Z</time>
      </trkpt>
      <trkpt lat="48.49279" lon="-2.67349">
        <ele>2</ele>
        <time>2019-10-29T14:25:52Z</time>
      </trkpt>
      <trkpt lat="48.49282" lon="-2.67354">
        <ele>2</ele>
        <time>2019-10-29T14:25:55Z</time>
      </trkpt>
      <trkpt lat="48.49283" lon="-2.67361">
        <ele>2</ele>
        <time>2019-10-29T14:25:58Z</time>
      </trkpt>
      <trkpt lat="48.49282" lon="-2.67367">
        <ele>2</ele>
        <time>2019-10-29T14:26:01Z</time>
      </trkpt>
      <trkpt lat="48.49282" lon="-2.67372">
        <ele>2</ele>
        <time>2019-10-29T14:26:04Z</time>
      </trkpt>
      <trkpt lat="48.49281" lon="-2.67378">
        <ele>2</ele>
        <time>2019-10-29T14:26:07Z</time>
      </trkpt>
      <trkpt lat="48.49279" lon="-2.67384">
        <ele>2</ele>
        <time>2019-10-29T14:26:10Z</time>
      </trkpt>
      <trkpt lat="48.49279" lon="-2.67389">
        <ele>2</ele>
        <time>2019-10-29T14:26:13Z</time>
      </trkpt>
      <trkpt lat="48.49276" lon="-2.67396">
        <ele>2</ele>
        <time>2019-10-29T14:26:17Z</time>
      </trkpt>
      <trkpt lat="48.49275" lon="-2.67401">
        <ele>2</ele>
        <time>2019-10-29T14:26:20Z</time>
      </trkpt>
      <trkpt lat="48.49274" lon="-2.67407">
        <ele>3</ele>
        <time>2019-10-29T14:26:23Z</time>
      </trkpt>
      <trkpt lat="48.49272" lon="-2.67412">
        <ele>4</ele>
        <time>2019-10-29T14:26:26Z</time>
      </trkpt>
      <trkpt lat="48.49271" lon="-2.67416">
        <ele>5</ele>
        <time>2019-10-29T14:26:29Z</time>
      </trkpt>
      <trkpt lat="48.4927" lon="-2.67422">
        <ele>5</ele>
        <time>2019-10-29T14:26:32Z</time>
      </trkpt>
      <trkpt lat="48.49271" lon="-2.67428">
        <ele>5</ele>
        <time>2019-10-29T14:26:36Z</time>
      </trkpt>
      <trkpt lat="48.49271" lon="-2.67434">
        <ele>5</ele>
        <time>2019-10-29T14:26:39Z</time>
      </trkpt>
      <trkpt lat="48.49271" lon="-2.67438">
        <ele>5</ele>
        <time>2019-10-29T14:26:43Z</time>
      </trkpt>
      <trkpt lat="48.49271" lon="-2.67443">
        <ele>5</ele>
        <time>2019-10-29T14:26:46Z</time>
      </trkpt>
      <trkpt lat="48.49273" lon="-2.67449">
        <ele>5</ele>
        <time>2019-10-29T14:26:50Z</time>
      </trkpt>
      <trkpt lat="48.49274" lon="-2.67455">
        <ele>5</ele>
        <time>2019-10-29T14:26:54Z</time>
      </trkpt>
      <trkpt lat="48.49274" lon="-2.6746">
        <ele>5</ele>
        <time>2019-10-29T14:26:57Z</time>
      </trkpt>
      <trkpt lat="48.49274" lon="-2.67466">
        <ele>5</ele>
        <time>2019-10-29T14:27:00Z</time>
      </trkpt>
      <trkpt lat="48.49272" lon="-2.67472">
        <ele>5</ele>
        <time>2019-10-29T14:27:03Z</time>
      </trkpt>
      <trkpt lat="48.49269" lon="-2.67477">
        <ele>5</ele>
        <time>2019-10-29T14:27:07Z</time>
      </trkpt>
      <trkpt lat="48.49268" lon="-2.67477">
        <ele>5</ele>
        <time>2019-10-29T14:27:10Z</time>
      </trkpt>
      <trkpt lat="48.49265" lon="-2.6748">
        <ele>5</ele>
        <time>2019-10-29T14:27:13Z</time>
      </trkpt>
      <trkpt lat="48.49261" lon="-2.67484">
        <ele>5</ele>
        <time>2019-10-29T14:27:17Z</time>
      </trkpt>
      <trkpt lat="48.49258" lon="-2.67488">
        <ele>5</ele>
        <time>2019-10-29T14:27:21Z</time>
      </trkpt>
      <trkpt lat="48.49254" lon="-2.67493">
        <ele>5</ele>
        <time>2019-10-29T14:27:25Z</time>
      </trkpt>
      <trkpt lat="48.49251" lon="-2.67497">
        <ele>5</ele>
        <time>2019-10-29T14:27:29Z</time>
      </trkpt>
      <trkpt lat="48.49249" lon="-2.67502">
        <ele>5</ele>
        <time>2019-10-29T14:27:33Z</time>
      </trkpt>
      <trkpt lat="48.49247" lon="-2.67509">
        <ele>5</ele>
        <time>2019-10-29T14:27:37Z</time>
      </trkpt>
      <trkpt lat="48.49245" lon="-2.67513">
        <ele>5</ele>
        <time>2019-10-29T14:27:43Z</time>
      </trkpt>
      <trkpt lat="48.49244" lon="-2.67514">
        <ele>5</ele>
        <time>2019-10-29T14:27:47Z</time>
      </trkpt>
      <trkpt lat="48.49242" lon="-2.67515">
        <ele>5</ele>
        <time>2019-10-29T14:27:51Z</time>
      </trkpt>
      <trkpt lat="48.49241" lon="-2.67521">
        <ele>5</ele>
        <time>2019-10-29T14:27:54Z</time>
      </trkpt>
      <trkpt lat="48.49239" lon="-2.67525">
        <ele>5</ele>
        <time>2019-10-29T14:27:57Z</time>
      </trkpt>
      <trkpt lat="48.49238" lon="-2.6753">
        <ele>5</ele>
        <time>2019-10-29T14:28:00Z</time>
      </trkpt>
      <trkpt lat="48.49236" lon="-2.67536">
        <ele>5</ele>
        <time>2019-10-29T14:28:04Z</time>
      </trkpt>
      <trkpt lat="48.49234" lon="-2.67542">
        <ele>5</ele>
        <time>2019-10-29T14:28:08Z</time>
      </trkpt>
      <trkpt lat="48.49233" lon="-2.67548">
        <ele>5</ele>
        <time>2019-10-29T14:28:11Z</time>
      </trkpt>
      <trkpt lat="48.49231" lon="-2.67554">
        <ele>5</ele>
        <time>2019-10-29T14:28:14Z</time>
      </trkpt>
      <trkpt lat="48.4923" lon="-2.67559">
        <ele>5</ele>
        <time>2019-10-29T14:28:17Z</time>
      </trkpt>
      <trkpt lat="48.49228" lon="-2.67565">
        <ele>5</ele>
        <time>2019-10-29T14:28:20Z</time>
      </trkpt>
      <trkpt lat="48.49227" lon="-2.6757">
        <ele>5</ele>
        <time>2019-10-29T14:28:23Z</time>
      </trkpt>
      <trkpt lat="48.49226" lon="-2.67576">
        <ele>5</ele>
        <time>2019-10-29T14:28:26Z</time>
      </trkpt>
      <trkpt lat="48.49224" lon="-2.67582">
        <ele>5</ele>
        <time>2019-10-29T14:28:29Z</time>
      </trkpt>
      <trkpt lat="48.49222" lon="-2.67587">
        <ele>5</ele>
        <time>2019-10-29T14:28:32Z</time>
      </trkpt>
      <trkpt lat="48.4922" lon="-2.67593">
        <ele>5</ele>
        <time>2019-10-29T14:28:35Z</time>
      </trkpt>
      <trkpt lat="48.49219" lon="-2.67598">
        <ele>5</ele>
        <time>2019-10-29T14:28:38Z</time>
      </trkpt>
      <trkpt lat="48.49217" lon="-2.67602">
        <ele>5</ele>
        <time>2019-10-29T14:28:41Z</time>
      </trkpt>
      <trkpt lat="48.49215" lon="-2.67607">
        <ele>5</ele>
        <time>2019-10-29T14:28:46Z</time>
      </trkpt>
      <trkpt lat="48.49214" lon="-2.67612">
        <ele>5</ele>
        <time>2019-10-29T14:28:50Z</time>
      </trkpt>
      <trkpt lat="48.49212" lon="-2.67618">
        <ele>5</ele>
        <time>2019-10-29T14:28:54Z</time>
      </trkpt>
      <trkpt lat="48.4921" lon="-2.67624">
        <ele>5</ele>
        <time>2019-10-29T14:28:58Z</time>
      </trkpt>
      <trkpt lat="48.49209" lon="-2.67627">
        <ele>5</ele>
        <time>2019-10-29T14:29:02Z</time>
      </trkpt>
      <trkpt lat="48.49207" lon="-2.67633">
        <ele>5</ele>
        <time>2019-10-29T14:29:10Z</time>
      </trkpt>
      <trkpt lat="48.49205" lon="-2.67637">
        <ele>5</ele>
        <time>2019-10-29T14:29:13Z</time>
      </trkpt>
      <trkpt lat="48.49203" lon="-2.67642">
        <ele>5</ele>
        <time>2019-10-29T14:29:17Z</time>
      </trkpt>
      <trkpt lat="48.49202" lon="-2.67646">
        <ele>5</ele>
        <time>2019-10-29T14:29:21Z</time>
      </trkpt>
      <trkpt lat="48.492" lon="-2.67652">
        <ele>5</ele>
        <time>2019-10-29T14:29:24Z</time>
      </trkpt>
      <trkpt lat="48.49198" lon="-2.67659">
        <ele>5</ele>
        <time>2019-10-29T14:29:28Z</time>
      </trkpt>
      <trkpt lat="48.49197" lon="-2.67665">
        <ele>5</ele>
        <time>2019-10-29T14:29:32Z</time>
      </trkpt>
      <trkpt lat="48.49195" lon="-2.67672">
        <ele>5</ele>
        <time>2019-10-29T14:29:36Z</time>
      </trkpt>
      <trkpt lat="48.49194" lon="-2.67679">
        <ele>5</ele>
        <time>2019-10-29T14:29:40Z</time>
      </trkpt>
      <trkpt lat="48.49194" lon="-2.67685">
        <ele>5</ele>
        <time>2019-10-29T14:29:44Z</time>
      </trkpt>
      <trkpt lat="48.49194" lon="-2.67689">
        <ele>5</ele>
        <time>2019-10-29T14:29:47Z</time>
      </trkpt>
      <trkpt lat="48.49196" lon="-2.67695">
        <ele>5</ele>
        <time>2019-10-29T14:29:51Z</time>
      </trkpt>
      <trkpt lat="48.49197" lon="-2.67702">
        <ele>5</ele>
        <time>2019-10-29T14:29:55Z</time>
      </trkpt>
      <trkpt lat="48.49199" lon="-2.67707">
        <ele>5</ele>
        <time>2019-10-29T14:29:59Z</time>
      </trkpt>
      <trkpt lat="48.492" lon="-2.67711">
        <ele>5</ele>
        <time>2019-10-29T14:30:02Z</time>
      </trkpt>
      <trkpt lat="48.49202" lon="-2.67717">
        <ele>5</ele>
        <time>2019-10-29T14:30:06Z</time>
      </trkpt>
      <trkpt lat="48.49204" lon="-2.67722">
        <ele>5</ele>
        <time>2019-10-29T14:30:10Z</time>
      </trkpt>
      <trkpt lat="48.49207" lon="-2.67729">
        <ele>5</ele>
        <time>2019-10-29T14:30:14Z</time>
      </trkpt>
      <trkpt lat="48.49209" lon="-2.67734">
        <ele>5</ele>
        <time>2019-10-29T14:30:17Z</time>
      </trkpt>
      <trkpt lat="48.4921" lon="-2.67741">
        <ele>5</ele>
        <time>2019-10-29T14:30:21Z</time>
      </trkpt>
      <trkpt lat="48.49212" lon="-2.67747">
        <ele>5</ele>
        <time>2019-10-29T14:30:25Z</time>
      </trkpt>
      <trkpt lat="48.49213" lon="-2.67751">
        <ele>5</ele>
        <time>2019-10-29T14:30:28Z</time>
      </trkpt>
      <trkpt lat="48.49216" lon="-2.67756">
        <ele>5</ele>
        <time>2019-10-29T14:30:32Z</time>
      </trkpt>
      <trkpt lat="48.49218" lon="-2.67761">
        <ele>5</ele>
        <time>2019-10-29T14:30:35Z</time>
      </trkpt>
      <trkpt lat="48.49222" lon="-2.67764">
        <ele>5</ele>
        <time>2019-10-29T14:30:38Z</time>
      </trkpt>
      <trkpt lat="48.49225" lon="-2.67765">
        <ele>5</ele>
        <time>2019-10-29T14:30:41Z</time>
      </trkpt>
      <trkpt lat="48.49228" lon="-2.67766">
        <ele>5</ele>
        <time>2019-10-29T14:30:44Z</time>
      </trkpt>
      <trkpt lat="48.49232" lon="-2.67768">
        <ele>5</ele>
        <time>2019-10-29T14:30:48Z</time>
      </trkpt>
      <trkpt lat="48.49236" lon="-2.67771">
        <ele>5</ele>
        <time>2019-10-29T14:30:52Z</time>
      </trkpt>
      <trkpt lat="48.4924" lon="-2.67774">
        <ele>5</ele>
        <time>2019-10-29T14:30:56Z</time>
      </trkpt>
      <trkpt lat="48.49245" lon="-2.67775">
        <ele>5</ele>
        <time>2019-10-29T14:31:00Z</time>
      </trkpt>
      <trkpt lat="48.49248" lon="-2.67775">
        <ele>5</ele>
        <time>2019-10-29T14:31:03Z</time>
      </trkpt>
      <trkpt lat="48.49252" lon="-2.67775">
        <ele>5</ele>
        <time>2019-10-29T14:31:06Z</time>
      </trkpt>
      <trkpt lat="48.49256" lon="-2.67775">
        <ele>5</ele>
        <time>2019-10-29T14:31:09Z</time>
      </trkpt>
      <trkpt lat="48.49258" lon="-2.67775">
        <ele>5</ele>
        <time>2019-10-29T14:31:12Z</time>
      </trkpt>
      <trkpt lat="48.49261" lon="-2.67775">
        <ele>5</ele>
        <time>2019-10-29T14:31:15Z</time>
      </trkpt>
      <trkpt lat="48.49265" lon="-2.67774">
        <ele>5</ele>
        <time>2019-10-29T14:31:18Z</time>
      </trkpt>
      <trkpt lat="48.49268" lon="-2.67774">
        <ele>5</ele>
        <time>2019-10-29T14:31:21Z</time>
      </trkpt>
      <trkpt lat="48.49271" lon="-2.6777">
        <ele>5</ele>
        <time>2019-10-29T14:31:25Z</time>
      </trkpt>
      <trkpt lat="48.49275" lon="-2.67769">
        <ele>5</ele>
        <time>2019-10-29T14:31:29Z</time>
      </trkpt>
      <trkpt lat="48.49279" lon="-2.67768">
        <ele>5</ele>
        <time>2019-10-29T14:31:33Z</time>
      </trkpt>
      <trkpt lat="48.49282" lon="-2.67768">
        <ele>5</ele>
        <time>2019-10-29T14:31:36Z</time>
      </trkpt>
      <trkpt lat="48.49286" lon="-2.67766">
        <ele>5</ele>
        <time>2019-10-29T14:31:40Z</time>
      </trkpt>
      <trkpt lat="48.49289" lon="-2.67765">
        <ele>5</ele>
        <time>2019-10-29T14:31:43Z</time>
      </trkpt>
      <trkpt lat="48.49293" lon="-2.67766">
        <ele>5</ele>
        <time>2019-10-29T14:31:47Z</time>
      </trkpt>
      <trkpt lat="48.49297" lon="-2.67765">
        <ele>5</ele>
        <time>2019-10-29T14:31:50Z</time>
      </trkpt>
      <trkpt lat="48.493" lon="-2.67765">
        <ele>5</ele>
        <time>2019-10-29T14:31:53Z</time>
      </trkpt>
      <trkpt lat="48.49304" lon="-2.67766">
        <ele>5</ele>
        <time>2019-10-29T14:31:56Z</time>
      </trkpt>
      <trkpt lat="48.4931" lon="-2.6777">
        <ele>5</ele>
        <time>2019-10-29T14:31:59Z</time>
      </trkpt>
      <trkpt lat="48.49313" lon="-2.67771">
        <ele>5</ele>
        <time>2019-10-29T14:32:02Z</time>
      </trkpt>
      <trkpt lat="48.49316" lon="-2.67774">
        <ele>5</ele>
        <time>2019-10-29T14:32:05Z</time>
      </trkpt>
      <trkpt lat="48.4932" lon="-2.67779">
        <ele>5</ele>
        <time>2019-10-29T14:32:09Z</time>
      </trkpt>
      <trkpt lat="48.49322" lon="-2.67785">
        <ele>5</ele>
        <time>2019-10-29T14:32:13Z</time>
      </trkpt>
      <trkpt lat="48.49324" lon="-2.67789">
        <ele>5</ele>
        <time>2019-10-29T14:32:16Z</time>
      </trkpt>
      <trkpt lat="48.49325" lon="-2.67791">
        <ele>5</ele>
        <time>2019-10-29T14:32:20Z</time>
      </trkpt>
      <trkpt lat="48.49328" lon="-2.67796">
        <ele>5</ele>
        <time>2019-10-29T14:32:24Z</time>
      </trkpt>
      <trkpt lat="48.49331" lon="-2.67801">
        <ele>5</ele>
        <time>2019-10-29T14:32:28Z</time>
      </trkpt>
      <trkpt lat="48.49334" lon="-2.67806">
        <ele>5</ele>
        <time>2019-10-29T14:32:32Z</time>
      </trkpt>
      <trkpt lat="48.49339" lon="-2.67809">
        <ele>4</ele>
        <time>2019-10-29T14:32:36Z</time>
      </trkpt>
      <trkpt lat="48.49342" lon="-2.67811">
        <ele>4</ele>
        <time>2019-10-29T14:32:39Z</time>
      </trkpt>
      <trkpt lat="48.49345" lon="-2.67812">
        <ele>4</ele>
        <time>2019-10-29T14:32:42Z</time>
      </trkpt>
      <trkpt lat="48.49348" lon="-2.67813">
        <ele>3</ele>
        <time>2019-10-29T14:32:45Z</time>
      </trkpt>
      <trkpt lat="48.49353" lon="-2.67813">
        <ele>3</ele>
        <time>2019-10-29T14:32:49Z</time>
      </trkpt>
      <trkpt lat="48.49356" lon="-2.67814">
        <ele>3</ele>
        <time>2019-10-29T14:32:52Z</time>
      </trkpt>
      <trkpt lat="48.4936" lon="-2.67815">
        <ele>3</ele>
        <time>2019-10-29T14:32:56Z</time>
      </trkpt>
      <trkpt lat="48.49363" lon="-2.67816">
        <ele>3</ele>
        <time>2019-10-29T14:33:00Z</time>
      </trkpt>
      <trkpt lat="48.49366" lon="-2.67819">
        <ele>3</ele>
        <time>2019-10-29T14:33:03Z</time>
      </trkpt>
      <trkpt lat="48.49369" lon="-2.67823">
        <ele>3</ele>
        <time>2019-10-29T14:33:07Z</time>
      </trkpt>
      <trkpt lat="48.49372" lon="-2.67826">
        <ele>3</ele>
        <time>2019-10-29T14:33:11Z</time>
      </trkpt>
      <trkpt lat="48.49376" lon="-2.67828">
        <ele>3</ele>
        <time>2019-10-29T14:33:15Z</time>
      </trkpt>
      <trkpt lat="48.4938" lon="-2.6783">
        <ele>3</ele>
        <time>2019-10-29T14:33:18Z</time>
      </trkpt>
      <trkpt lat="48.49383" lon="-2.67832">
        <ele>3</ele>
        <time>2019-10-29T14:33:22Z</time>
      </trkpt>
      <trkpt lat="48.49386" lon="-2.67836">
        <ele>3</ele>
        <time>2019-10-29T14:33:26Z</time>
      </trkpt>
      <trkpt lat="48.49388" lon="-2.67841">
        <ele>3</ele>
        <time>2019-10-29T14:33:29Z</time>
      </trkpt>
      <trkpt lat="48.4939" lon="-2.67846">
        <ele>3</ele>
        <time>2019-10-29T14:33:32Z</time>
      </trkpt>
      <trkpt lat="48.49392" lon="-2.67853">
        <ele>3</ele>
        <time>2019-10-29T14:33:36Z</time>
      </trkpt>
      <trkpt lat="48.49395" lon="-2.67858">
        <ele>3</ele>
        <time>2019-10-29T14:33:39Z</time>
      </trkpt>
      <trkpt lat="48.49397" lon="-2.67863">
        <ele>3</ele>
        <time>2019-10-29T14:33:43Z</time>
      </trkpt>
      <trkpt lat="48.49399" lon="-2.67868">
        <ele>3</ele>
        <time>2019-10-29T14:33:46Z</time>
      </trkpt>
      <trkpt lat="48.49401" lon="-2.67874">
        <ele>3</ele>
        <time>2019-10-29T14:33:50Z</time>
      </trkpt>
      <trkpt lat="48.49403" lon="-2.6788">
        <ele>3</ele>
        <time>2019-10-29T14:33:54Z</time>
      </trkpt>
      <trkpt lat="48.49405" lon="-2.67885">
        <ele>3</ele>
        <time>2019-10-29T14:33:57Z</time>
      </trkpt>
      <trkpt lat="48.49407" lon="-2.6789">
        <ele>3</ele>
        <time>2019-10-29T14:34:00Z</time>
      </trkpt>
      <trkpt lat="48.49409" lon="-2.67897">
        <ele>3</ele>
        <time>2019-10-29T14:34:04Z</time>
      </trkpt>
      <trkpt lat="48.49411" lon="-2.67901">
        <ele>3</ele>
        <time>2019-10-29T14:34:07Z</time>
      </trkpt>
      <trkpt lat="48.49413" lon="-2.67906">
        <ele>3</ele>
        <time>2019-10-29T14:34:10Z</time>
      </trkpt>
      <trkpt lat="48.49416" lon="-2.67912">
        <ele>3</ele>
        <time>2019-10-29T14:34:14Z</time>
      </trkpt>
      <trkpt lat="48.49417" lon="-2.67917">
        <ele>3</ele>
        <time>2019-10-29T14:34:17Z</time>
      </trkpt>
      <trkpt lat="48.4942" lon="-2.67923">
        <ele>3</ele>
        <time>2019-10-29T14:34:21Z</time>
      </trkpt>
      <trkpt lat="48.49422" lon="-2.67928">
        <ele>3</ele>
        <time>2019-10-29T14:34:24Z</time>
      </trkpt>
      <trkpt lat="48.49424" lon="-2.67933">
        <ele>3</ele>
        <time>2019-10-29T14:34:27Z</time>
      </trkpt>
      <trkpt lat="48.49427" lon="-2.6794">
        <ele>3</ele>
        <time>2019-10-29T14:34:31Z</time>
      </trkpt>
      <trkpt lat="48.49429" lon="-2.67944">
        <ele>3</ele>
        <time>2019-10-29T14:34:34Z</time>
      </trkpt>
      <trkpt lat="48.49431" lon="-2.67949">
        <ele>3</ele>
        <time>2019-10-29T14:34:37Z</time>
      </trkpt>
      <trkpt lat="48.49433" lon="-2.67955">
        <ele>3</ele>
        <time>2019-10-29T14:34:41Z</time>
      </trkpt>
      <trkpt lat="48.49435" lon="-2.6796">
        <ele>3</ele>
        <time>2019-10-29T14:34:44Z</time>
      </trkpt>
      <trkpt lat="48.49437" lon="-2.67967">
        <ele>3</ele>
        <time>2019-10-29T14:34:48Z</time>
      </trkpt>
      <trkpt lat="48.4944" lon="-2.67973">
        <ele>3</ele>
        <time>2019-10-29T14:34:51Z</time>
      </trkpt>
      <trkpt lat="48.49443" lon="-2.6798">
        <ele>3</ele>
        <time>2019-10-29T14:34:56Z</time>
      </trkpt>
      <trkpt lat="48.49444" lon="-2.67985">
        <ele>3</ele>
        <time>2019-10-29T14:34:59Z</time>
      </trkpt>
      <trkpt lat="48.49446" lon="-2.67991">
        <ele>3</ele>
        <time>2019-10-29T14:35:03Z</time>
      </trkpt>
      <trkpt lat="48.49449" lon="-2.67996">
        <ele>3</ele>
        <time>2019-10-29T14:35:06Z</time>
      </trkpt>
      <trkpt lat="48.49451" lon="-2.68002">
        <ele>3</ele>
        <time>2019-10-29T14:35:10Z</time>
      </trkpt>
      <trkpt lat="48.49452" lon="-2.68007">
        <ele>3</ele>
        <time>2019-10-29T14:35:13Z</time>
      </trkpt>
      <trkpt lat="48.49454" lon="-2.68011">
        <ele>3</ele>
        <time>2019-10-29T14:35:16Z</time>
      </trkpt>
      <trkpt lat="48.49455" lon="-2.68016">
        <ele>3</ele>
        <time>2019-10-29T14:35:19Z</time>
      </trkpt>
      <trkpt lat="48.49457" lon="-2.68021">
        <ele>3</ele>
        <time>2019-10-29T14:35:22Z</time>
      </trkpt>
      <trkpt lat="48.49458" lon="-2.68026">
        <ele>3</ele>
        <time>2019-10-29T14:35:25Z</time>
      </trkpt>
      <trkpt lat="48.4946" lon="-2.68031">
        <ele>3</ele>
        <time>2019-10-29T14:35:28Z</time>
      </trkpt>
      <trkpt lat="48.49462" lon="-2.68035">
        <ele>3</ele>
        <time>2019-10-29T14:35:31Z</time>
      </trkpt>
      <trkpt lat="48.49465" lon="-2.6804">
        <ele>3</ele>
        <time>2019-10-29T14:35:34Z</time>
      </trkpt>
      <trkpt lat="48.49466" lon="-2.68045">
        <ele>3</ele>
        <time>2019-10-29T14:35:37Z</time>
      </trkpt>
      <trkpt lat="48.49468" lon="-2.6805">
        <ele>3</ele>
        <time>2019-10-29T14:35:40Z</time>
      </trkpt>
      <trkpt lat="48.49471" lon="-2.68056">
        <ele>3</ele>
        <time>2019-10-29T14:35:43Z</time>
      </trkpt>
      <trkpt lat="48.49473" lon="-2.6806">
        <ele>3</ele>
        <time>2019-10-29T14:35:47Z</time>
      </trkpt>
      <trkpt lat="48.49475" lon="-2.68067">
        <ele>3</ele>
        <time>2019-10-29T14:35:51Z</time>
      </trkpt>
      <trkpt lat="48.49477" lon="-2.68074">
        <ele>3</ele>
        <time>2019-10-29T14:35:55Z</time>
      </trkpt>
      <trkpt lat="48.4948" lon="-2.6808">
        <ele>3</ele>
        <time>2019-10-29T14:35:59Z</time>
      </trkpt>
      <trkpt lat="48.49483" lon="-2.68086">
        <ele>3</ele>
        <time>2019-10-29T14:36:03Z</time>
      </trkpt>
      <trkpt lat="48.49484" lon="-2.68091">
        <ele>3</ele>
        <time>2019-10-29T14:36:06Z</time>
      </trkpt>
      <trkpt lat="48.49486" lon="-2.68097">
        <ele>3</ele>
        <time>2019-10-29T14:36:10Z</time>
      </trkpt>
      <trkpt lat="48.49488" lon="-2.68102">
        <ele>3</ele>
        <time>2019-10-29T14:36:13Z</time>
      </trkpt>
      <trkpt lat="48.4949" lon="-2.68108">
        <ele>3</ele>
        <time>2019-10-29T14:36:16Z</time>
      </trkpt>
      <trkpt lat="48.49493" lon="-2.68114">
        <ele>3</ele>
        <time>2019-10-29T14:36:21Z</time>
      </trkpt>
      <trkpt lat="48.49495" lon="-2.6812">
        <ele>3</ele>
        <time>2019-10-29T14:36:24Z</time>
      </trkpt>
      <trkpt lat="48.49496" lon="-2.68124">
        <ele>3</ele>
        <time>2019-10-29T14:36:27Z</time>
      </trkpt>
      <trkpt lat="48.495" lon="-2.68131">
        <ele>3</ele>
        <time>2019-10-29T14:36:31Z</time>
      </trkpt>
      <trkpt lat="48.49501" lon="-2.68135">
        <ele>3</ele>
        <time>2019-10-29T14:36:34Z</time>
      </trkpt>
      <trkpt lat="48.49504" lon="-2.68141">
        <ele>3</ele>
        <time>2019-10-29T14:36:37Z</time>
      </trkpt>
      <trkpt lat="48.49506" lon="-2.68145">
        <ele>3</ele>
        <time>2019-10-29T14:36:40Z</time>
      </trkpt>
      <trkpt lat="48.49508" lon="-2.68151">
        <ele>3</ele>
        <time>2019-10-29T14:36:44Z</time>
      </trkpt>
      <trkpt lat="48.49508" lon="-2.68156">
        <ele>3</ele>
        <time>2019-10-29T14:36:47Z</time>
      </trkpt>
      <trkpt lat="48.4951" lon="-2.68161">
        <ele>3</ele>
        <time>2019-10-29T14:36:50Z</time>
      </trkpt>
      <trkpt lat="48.49511" lon="-2.68166">
        <ele>3</ele>
        <time>2019-10-29T14:36:53Z</time>
      </trkpt>
      <trkpt lat="48.49513" lon="-2.68171">
        <ele>3</ele>
        <time>2019-10-29T14:36:56Z</time>
      </trkpt>
      <trkpt lat="48.49516" lon="-2.68177">
        <ele>3</ele>
        <time>2019-10-29T14:37:00Z</time>
      </trkpt>
      <trkpt lat="48.49519" lon="-2.68182">
        <ele>3</ele>
        <time>2019-10-29T14:37:04Z</time>
      </trkpt>
      <trkpt lat="48.49521" lon="-2.68187">
        <ele>3</ele>
        <time>2019-10-29T14:37:07Z</time>
      </trkpt>
      <trkpt lat="48.49522" lon="-2.68193">
        <ele>3</ele>
        <time>2019-10-29T14:37:10Z</time>
      </trkpt>
      <trkpt lat="48.49525" lon="-2.68201">
        <ele>3</ele>
        <time>2019-10-29T14:37:15Z</time>
      </trkpt>
      <trkpt lat="48.49527" lon="-2.68207">
        <ele>3</ele>
        <time>2019-10-29T14:37:18Z</time>
      </trkpt>
      <trkpt lat="48.49528" lon="-2.68212">
        <ele>3</ele>
        <time>2019-10-29T14:37:21Z</time>
      </trkpt>
      <trkpt lat="48.49529" lon="-2.68218">
        <ele>3</ele>
        <time>2019-10-29T14:37:24Z</time>
      </trkpt>
      <trkpt lat="48.4953" lon="-2.68224">
        <ele>3</ele>
        <time>2019-10-29T14:37:27Z</time>
      </trkpt>
      <trkpt lat="48.49532" lon="-2.68229">
        <ele>3</ele>
        <time>2019-10-29T14:37:30Z</time>
      </trkpt>
      <trkpt lat="48.49533" lon="-2.68233">
        <ele>3</ele>
        <time>2019-10-29T14:37:33Z</time>
      </trkpt>
      <trkpt lat="48.49535" lon="-2.68239">
        <ele>3</ele>
        <time>2019-10-29T14:37:36Z</time>
      </trkpt>
      <trkpt lat="48.49538" lon="-2.68246">
        <ele>3</ele>
        <time>2019-10-29T14:37:39Z</time>
      </trkpt>
      <trkpt lat="48.4954" lon="-2.68251">
        <ele>3</ele>
        <time>2019-10-29T14:37:43Z</time>
      </trkpt>
      <trkpt lat="48.49542" lon="-2.68256">
        <ele>3</ele>
        <time>2019-10-29T14:37:47Z</time>
      </trkpt>
      <trkpt lat="48.49544" lon="-2.68263">
        <ele>3</ele>
        <time>2019-10-29T14:37:50Z</time>
      </trkpt>
      <trkpt lat="48.49547" lon="-2.68268">
        <ele>3</ele>
        <time>2019-10-29T14:37:55Z</time>
      </trkpt>
      <trkpt lat="48.4955" lon="-2.68271">
        <ele>3</ele>
        <time>2019-10-29T14:37:58Z</time>
      </trkpt>
      <trkpt lat="48.49554" lon="-2.68276">
        <ele>3</ele>
        <time>2019-10-29T14:38:01Z</time>
      </trkpt>
      <trkpt lat="48.49557" lon="-2.68279">
        <ele>3</ele>
        <time>2019-10-29T14:38:05Z</time>
      </trkpt>
      <trkpt lat="48.49562" lon="-2.68282">
        <ele>3</ele>
        <time>2019-10-29T14:38:08Z</time>
      </trkpt>
      <trkpt lat="48.49565" lon="-2.68285">
        <ele>3</ele>
        <time>2019-10-29T14:38:11Z</time>
      </trkpt>
      <trkpt lat="48.49568" lon="-2.68287">
        <ele>3</ele>
        <time>2019-10-29T14:38:15Z</time>
      </trkpt>
      <trkpt lat="48.49574" lon="-2.68291">
        <ele>3</ele>
        <time>2019-10-29T14:38:20Z</time>
      </trkpt>
      <trkpt lat="48.49579" lon="-2.68294">
        <ele>3</ele>
        <time>2019-10-29T14:38:23Z</time>
      </trkpt>
      <trkpt lat="48.49583" lon="-2.68297">
        <ele>3</ele>
        <time>2019-10-29T14:38:27Z</time>
      </trkpt>
      <trkpt lat="48.49586" lon="-2.683">
        <ele>3</ele>
        <time>2019-10-29T14:38:31Z</time>
      </trkpt>
      <trkpt lat="48.49591" lon="-2.68303">
        <ele>3</ele>
        <time>2019-10-29T14:38:34Z</time>
      </trkpt>
      <trkpt lat="48.49594" lon="-2.68305">
        <ele>3</ele>
        <time>2019-10-29T14:38:37Z</time>
      </trkpt>
      <trkpt lat="48.49598" lon="-2.68308">
        <ele>3</ele>
        <time>2019-10-29T14:38:41Z</time>
      </trkpt>
      <trkpt lat="48.49603" lon="-2.68311">
        <ele>3</ele>
        <time>2019-10-29T14:38:44Z</time>
      </trkpt>
      <trkpt lat="48.49606" lon="-2.68315">
        <ele>3</ele>
        <time>2019-10-29T14:38:48Z</time>
      </trkpt>
      <trkpt lat="48.4961" lon="-2.68318">
        <ele>3</ele>
        <time>2019-10-29T14:38:53Z</time>
      </trkpt>
      <trkpt lat="48.49614" lon="-2.6832">
        <ele>3</ele>
        <time>2019-10-29T14:38:56Z</time>
      </trkpt>
      <trkpt lat="48.49617" lon="-2.68322">
        <ele>3</ele>
        <time>2019-10-29T14:38:59Z</time>
      </trkpt>
      <trkpt lat="48.49621" lon="-2.68325">
        <ele>3</ele>
        <time>2019-10-29T14:39:04Z</time>
      </trkpt>
      <trkpt lat="48.49625" lon="-2.68328">
        <ele>3</ele>
        <time>2019-10-29T14:39:07Z</time>
      </trkpt>
      <trkpt lat="48.49628" lon="-2.68332">
        <ele>3</ele>
        <time>2019-10-29T14:39:11Z</time>
      </trkpt>
      <trkpt lat="48.49632" lon="-2.68335">
        <ele>3</ele>
        <time>2019-10-29T14:39:16Z</time>
      </trkpt>
      <trkpt lat="48.49637" lon="-2.68339">
        <ele>3</ele>
        <time>2019-10-29T14:39:19Z</time>
      </trkpt>
      <trkpt lat="48.4964" lon="-2.68342">
        <ele>3</ele>
        <time>2019-10-29T14:39:22Z</time>
      </trkpt>
      <trkpt lat="48.49644" lon="-2.68345">
        <ele>3</ele>
        <time>2019-10-29T14:39:25Z</time>
      </trkpt>
      <trkpt lat="48.49649" lon="-2.68348">
        <ele>3</ele>
        <time>2019-10-29T14:39:29Z</time>
      </trkpt>
      <trkpt lat="48.49652" lon="-2.6835">
        <ele>3</ele>
        <time>2019-10-29T14:39:32Z</time>
      </trkpt>
      <trkpt lat="48.49657" lon="-2.68354">
        <ele>3</ele>
        <time>2019-10-29T14:39:37Z</time>
      </trkpt>
      <trkpt lat="48.49661" lon="-2.68357">
        <ele>3</ele>
        <time>2019-10-29T14:39:40Z</time>
      </trkpt>
      <trkpt lat="48.49664" lon="-2.68359">
        <ele>3</ele>
        <time>2019-10-29T14:39:43Z</time>
      </trkpt>
      <trkpt lat="48.49667" lon="-2.68361">
        <ele>3</ele>
        <time>2019-10-29T14:39:46Z</time>
      </trkpt>
      <trkpt lat="48.49671" lon="-2.68363">
        <ele>3</ele>
        <time>2019-10-29T14:39:49Z</time>
      </trkpt>
      <trkpt lat="48.49674" lon="-2.68365">
        <ele>3</ele>
        <time>2019-10-29T14:39:53Z</time>
      </trkpt>
      <trkpt lat="48.49679" lon="-2.68368">
        <ele>3</ele>
        <time>2019-10-29T14:39:56Z</time>
      </trkpt>
      <trkpt lat="48.49683" lon="-2.6837">
        <ele>3</ele>
        <time>2019-10-29T14:39:59Z</time>
      </trkpt>
      <trkpt lat="48.49686" lon="-2.68372">
        <ele>3</ele>
        <time>2019-10-29T14:40:03Z</time>
      </trkpt>
      <trkpt lat="48.49692" lon="-2.68374">
        <ele>3</ele>
        <time>2019-10-29T14:40:06Z</time>
      </trkpt>
      <trkpt lat="48.49695" lon="-2.68377">
        <ele>3</ele>
        <time>2019-10-29T14:40:09Z</time>
      </trkpt>
      <trkpt lat="48.49699" lon="-2.68379">
        <ele>3</ele>
        <time>2019-10-29T14:40:14Z</time>
      </trkpt>
      <trkpt lat="48.49703" lon="-2.68384">
        <ele>3</ele>
        <time>2019-10-29T14:40:17Z</time>
      </trkpt>
      <trkpt lat="48.49706" lon="-2.68389">
        <ele>3</ele>
        <time>2019-10-29T14:40:21Z</time>
      </trkpt>
      <trkpt lat="48.49709" lon="-2.68394">
        <ele>3</ele>
        <time>2019-10-29T14:40:26Z</time>
      </trkpt>
      <trkpt lat="48.49712" lon="-2.684">
        <ele>3</ele>
        <time>2019-10-29T14:40:29Z</time>
      </trkpt>
      <trkpt lat="48.49715" lon="-2.68405">
        <ele>3</ele>
        <time>2019-10-29T14:40:33Z</time>
      </trkpt>
      <trkpt lat="48.49717" lon="-2.6841">
        <ele>3</ele>
        <time>2019-10-29T14:40:38Z</time>
      </trkpt>
      <trkpt lat="48.4972" lon="-2.68416">
        <ele>3</ele>
        <time>2019-10-29T14:40:41Z</time>
      </trkpt>
      <trkpt lat="48.49723" lon="-2.6842">
        <ele>3</ele>
        <time>2019-10-29T14:40:44Z</time>
      </trkpt>
      <trkpt lat="48.49727" lon="-2.68425">
        <ele>3</ele>
        <time>2019-10-29T14:40:49Z</time>
      </trkpt>
      <trkpt lat="48.49731" lon="-2.68429">
        <ele>3</ele>
        <time>2019-10-29T14:40:52Z</time>
      </trkpt>
      <trkpt lat="48.49734" lon="-2.68433">
        <ele>3</ele>
        <time>2019-10-29T14:40:56Z</time>
      </trkpt>
      <trkpt lat="48.49738" lon="-2.68436">
        <ele>3</ele>
        <time>2019-10-29T14:40:59Z</time>
      </trkpt>
      <trkpt lat="48.49742" lon="-2.68439">
        <ele>3</ele>
        <time>2019-10-29T14:41:03Z</time>
      </trkpt>
      <trkpt lat="48.49746" lon="-2.68441">
        <ele>3</ele>
        <time>2019-10-29T14:41:06Z</time>
      </trkpt>
      <trkpt lat="48.49749" lon="-2.68443">
        <ele>3</ele>
        <time>2019-10-29T14:41:09Z</time>
      </trkpt>
      <trkpt lat="48.49752" lon="-2.68445">
        <ele>3</ele>
        <time>2019-10-29T14:41:12Z</time>
      </trkpt>
      <trkpt lat="48.49755" lon="-2.68447">
        <ele>3</ele>
        <time>2019-10-29T14:41:15Z</time>
      </trkpt>
      <trkpt lat="48.49759" lon="-2.68448">
        <ele>3</ele>
        <time>2019-10-29T14:41:18Z</time>
      </trkpt>
      <trkpt lat="48.49763" lon="-2.68449">
        <ele>3</ele>
        <time>2019-10-29T14:41:21Z</time>
      </trkpt>
      <trkpt lat="48.49767" lon="-2.6845">
        <ele>3</ele>
        <time>2019-10-29T14:41:25Z</time>
      </trkpt>
      <trkpt lat="48.49772" lon="-2.68451">
        <ele>3</ele>
        <time>2019-10-29T14:41:28Z</time>
      </trkpt>
      <trkpt lat="48.49776" lon="-2.68452">
        <ele>3</ele>
        <time>2019-10-29T14:41:31Z</time>
      </trkpt>
      <trkpt lat="48.49781" lon="-2.68453">
        <ele>3</ele>
        <time>2019-10-29T14:41:35Z</time>
      </trkpt>
      <trkpt lat="48.49786" lon="-2.68454">
        <ele>3</ele>
        <time>2019-10-29T14:41:38Z</time>
      </trkpt>
      <trkpt lat="48.49789" lon="-2.68454">
        <ele>3</ele>
        <time>2019-10-29T14:41:41Z</time>
      </trkpt>
      <trkpt lat="48.49794" lon="-2.68455">
        <ele>3</ele>
        <time>2019-10-29T14:41:45Z</time>
      </trkpt>
      <trkpt lat="48.49798" lon="-2.68456">
        <ele>3</ele>
        <time>2019-10-29T14:41:48Z</time>
      </trkpt>
      <trkpt lat="48.49802" lon="-2.68456">
        <ele>3</ele>
        <time>2019-10-29T14:41:51Z</time>
      </trkpt>
      <trkpt lat="48.49806" lon="-2.68456">
        <ele>3</ele>
        <time>2019-10-29T14:41:54Z</time>
      </trkpt>
      <trkpt lat="48.4981" lon="-2.68456">
        <ele>3</ele>
        <time>2019-10-29T14:41:57Z</time>
      </trkpt>
      <trkpt lat="48.49814" lon="-2.68455">
        <ele>3</ele>
        <time>2019-10-29T14:42:01Z</time>
      </trkpt>
      <trkpt lat="48.49818" lon="-2.68454">
        <ele>3</ele>
        <time>2019-10-29T14:42:05Z</time>
      </trkpt>
      <trkpt lat="48.49823" lon="-2.68453">
        <ele>3</ele>
        <time>2019-10-29T14:42:08Z</time>
      </trkpt>
      <trkpt lat="48.49826" lon="-2.68452">
        <ele>3</ele>
        <time>2019-10-29T14:42:11Z</time>
      </trkpt>
      <trkpt lat="48.4983" lon="-2.6845">
        <ele>3</ele>
        <time>2019-10-29T14:42:15Z</time>
      </trkpt>
      <trkpt lat="48.49835" lon="-2.68447">
        <ele>3</ele>
        <time>2019-10-29T14:42:18Z</time>
      </trkpt>
      <trkpt lat="48.49839" lon="-2.68445">
        <ele>3</ele>
        <time>2019-10-29T14:42:21Z</time>
      </trkpt>
      <trkpt lat="48.49843" lon="-2.68441">
        <ele>3</ele>
        <time>2019-10-29T14:42:25Z</time>
      </trkpt>
      <trkpt lat="48.49847" lon="-2.68438">
        <ele>3</ele>
        <time>2019-10-29T14:42:29Z</time>
      </trkpt>
      <trkpt lat="48.49851" lon="-2.68435">
        <ele>3</ele>
        <time>2019-10-29T14:42:33Z</time>
      </trkpt>
      <trkpt lat="48.49855" lon="-2.6843">
        <ele>3</ele>
        <time>2019-10-29T14:42:37Z</time>
      </trkpt>
      <trkpt lat="48.49858" lon="-2.68426">
        <ele>3</ele>
        <time>2019-10-29T14:42:41Z</time>
      </trkpt>
      <trkpt lat="48.49861" lon="-2.68423">
        <ele>3</ele>
        <time>2019-10-29T14:42:44Z</time>
      </trkpt>
      <trkpt lat="48.49864" lon="-2.6842">
        <ele>3</ele>
        <time>2019-10-29T14:42:47Z</time>
      </trkpt>
      <trkpt lat="48.49868" lon="-2.68417">
        <ele>3</ele>
        <time>2019-10-29T14:42:51Z</time>
      </trkpt>
      <trkpt lat="48.49871" lon="-2.68413">
        <ele>3</ele>
        <time>2019-10-29T14:42:55Z</time>
      </trkpt>
      <trkpt lat="48.49874" lon="-2.6841">
        <ele>3</ele>
        <time>2019-10-29T14:42:58Z</time>
      </trkpt>
      <trkpt lat="48.49878" lon="-2.68406">
        <ele>3</ele>
        <time>2019-10-29T14:43:02Z</time>
      </trkpt>
      <trkpt lat="48.49881" lon="-2.68402">
        <ele>4</ele>
        <time>2019-10-29T14:43:05Z</time>
      </trkpt>
      <trkpt lat="48.49884" lon="-2.68397">
        <ele>4</ele>
        <time>2019-10-29T14:43:09Z</time>
      </trkpt>
      <trkpt lat="48.49888" lon="-2.68393">
        <ele>4</ele>
        <time>2019-10-29T14:43:12Z</time>
      </trkpt>
      <trkpt lat="48.49891" lon="-2.68389">
        <ele>4</ele>
        <time>2019-10-29T14:43:15Z</time>
      </trkpt>
      <trkpt lat="48.49894" lon="-2.68386">
        <ele>4</ele>
        <time>2019-10-29T14:43:18Z</time>
      </trkpt>
      <trkpt lat="48.49897" lon="-2.68382">
        <ele>4</ele>
        <time>2019-10-29T14:43:22Z</time>
      </trkpt>
      <trkpt lat="48.49901" lon="-2.68377">
        <ele>4</ele>
        <time>2019-10-29T14:43:26Z</time>
      </trkpt>
      <trkpt lat="48.49905" lon="-2.68372">
        <ele>4</ele>
        <time>2019-10-29T14:43:30Z</time>
      </trkpt>
      <trkpt lat="48.49909" lon="-2.68367">
        <ele>4</ele>
        <time>2019-10-29T14:43:34Z</time>
      </trkpt>
      <trkpt lat="48.49913" lon="-2.68362">
        <ele>4</ele>
        <time>2019-10-29T14:43:38Z</time>
      </trkpt>
      <trkpt lat="48.49918" lon="-2.68357">
        <ele>4</ele>
        <time>2019-10-29T14:43:42Z</time>
      </trkpt>
      <trkpt lat="48.49921" lon="-2.68353">
        <ele>4</ele>
        <time>2019-10-29T14:43:46Z</time>
      </trkpt>
      <trkpt lat="48.49926" lon="-2.68348">
        <ele>4</ele>
        <time>2019-10-29T14:43:50Z</time>
      </trkpt>
      <trkpt lat="48.49928" lon="-2.68344">
        <ele>4</ele>
        <time>2019-10-29T14:43:53Z</time>
      </trkpt>
      <trkpt lat="48.49931" lon="-2.68341">
        <ele>4</ele>
        <time>2019-10-29T14:43:56Z</time>
      </trkpt>
      <trkpt lat="48.49935" lon="-2.68337">
        <ele>4</ele>
        <time>2019-10-29T14:43:59Z</time>
      </trkpt>
      <trkpt lat="48.49939" lon="-2.68334">
        <ele>4</ele>
        <time>2019-10-29T14:44:03Z</time>
      </trkpt>
      <trkpt lat="48.49942" lon="-2.68331">
        <ele>4</ele>
        <time>2019-10-29T14:44:06Z</time>
      </trkpt>
      <trkpt lat="48.49946" lon="-2.68327">
        <ele>4</ele>
        <time>2019-10-29T14:44:10Z</time>
      </trkpt>
      <trkpt lat="48.4995" lon="-2.68324">
        <ele>4</ele>
        <time>2019-10-29T14:44:13Z</time>
      </trkpt>
      <trkpt lat="48.49953" lon="-2.68321">
        <ele>4</ele>
        <time>2019-10-29T14:44:16Z</time>
      </trkpt>
      <trkpt lat="48.49957" lon="-2.68318">
        <ele>4</ele>
        <time>2019-10-29T14:44:19Z</time>
      </trkpt>
      <trkpt lat="48.49961" lon="-2.68316">
        <ele>4</ele>
        <time>2019-10-29T14:44:22Z</time>
      </trkpt>
      <trkpt lat="48.49964" lon="-2.68314">
        <ele>5</ele>
        <time>2019-10-29T14:44:25Z</time>
      </trkpt>
      <trkpt lat="48.49968" lon="-2.68312">
        <ele>5</ele>
        <time>2019-10-29T14:44:28Z</time>
      </trkpt>
      <trkpt lat="48.49971" lon="-2.6831">
        <ele>5</ele>
        <time>2019-10-29T14:44:31Z</time>
      </trkpt>
      <trkpt lat="48.49975" lon="-2.68308">
        <ele>5</ele>
        <time>2019-10-29T14:44:34Z</time>
      </trkpt>
      <trkpt lat="48.49979" lon="-2.68306">
        <ele>6</ele>
        <time>2019-10-29T14:44:38Z</time>
      </trkpt>
      <trkpt lat="48.49983" lon="-2.68304">
        <ele>6</ele>
        <time>2019-10-29T14:44:41Z</time>
      </trkpt>
      <trkpt lat="48.49987" lon="-2.68302">
        <ele>6</ele>
        <time>2019-10-29T14:44:44Z</time>
      </trkpt>
      <trkpt lat="48.4999" lon="-2.683">
        <ele>6</ele>
        <time>2019-10-29T14:44:47Z</time>
      </trkpt>
      <trkpt lat="48.49994" lon="-2.68299">
        <ele>6</ele>
        <time>2019-10-29T14:44:50Z</time>
      </trkpt>
      <trkpt lat="48.49997" lon="-2.68297">
        <ele>6</ele>
        <time>2019-10-29T14:44:53Z</time>
      </trkpt>
      <trkpt lat="48.50001" lon="-2.68295">
        <ele>6</ele>
        <time>2019-10-29T14:44:56Z</time>
      </trkpt>
      <trkpt lat="48.50005" lon="-2.68292">
        <ele>6</ele>
        <time>2019-10-29T14:45:00Z</time>
      </trkpt>
      <trkpt lat="48.50009" lon="-2.6829">
        <ele>6</ele>
        <time>2019-10-29T14:45:03Z</time>
      </trkpt>
      <trkpt lat="48.50013" lon="-2.68288">
        <ele>6</ele>
        <time>2019-10-29T14:45:06Z</time>
      </trkpt>
      <trkpt lat="48.50017" lon="-2.68286">
        <ele>6</ele>
        <time>2019-10-29T14:45:09Z</time>
      </trkpt>
      <trkpt lat="48.50021" lon="-2.68284">
        <ele>6</ele>
        <time>2019-10-29T14:45:12Z</time>
      </trkpt>
      <trkpt lat="48.50026" lon="-2.68283">
        <ele>6</ele>
        <time>2019-10-29T14:45:16Z</time>
      </trkpt>
      <trkpt lat="48.50029" lon="-2.68281">
        <ele>6</ele>
        <time>2019-10-29T14:45:19Z</time>
      </trkpt>
      <trkpt lat="48.50033" lon="-2.6828">
        <ele>6</ele>
        <time>2019-10-29T14:45:22Z</time>
      </trkpt>
      <trkpt lat="48.50036" lon="-2.68278">
        <ele>6</ele>
        <time>2019-10-29T14:45:25Z</time>
      </trkpt>
      <trkpt lat="48.5004" lon="-2.68277">
        <ele>6</ele>
        <time>2019-10-29T14:45:28Z</time>
      </trkpt>
      <trkpt lat="48.50044" lon="-2.68274">
        <ele>6</ele>
        <time>2019-10-29T14:45:32Z</time>
      </trkpt>
      <trkpt lat="48.50048" lon="-2.68272">
        <ele>6</ele>
        <time>2019-10-29T14:45:35Z</time>
      </trkpt>
      <trkpt lat="48.50052" lon="-2.6827">
        <ele>6</ele>
        <time>2019-10-29T14:45:38Z</time>
      </trkpt>
      <trkpt lat="48.50055" lon="-2.68269">
        <ele>6</ele>
        <time>2019-10-29T14:45:41Z</time>
      </trkpt>
      <trkpt lat="48.50059" lon="-2.68267">
        <ele>6</ele>
        <time>2019-10-29T14:45:45Z</time>
      </trkpt>
      <trkpt lat="48.50063" lon="-2.68265">
        <ele>6</ele>
        <time>2019-10-29T14:45:49Z</time>
      </trkpt>
      <trkpt lat="48.50067" lon="-2.68263">
        <ele>6</ele>
        <time>2019-10-29T14:45:52Z</time>
      </trkpt>
      <trkpt lat="48.5007" lon="-2.68262">
        <ele>6</ele>
        <time>2019-10-29T14:45:55Z</time>
      </trkpt>
      <trkpt lat="48.50074" lon="-2.68259">
        <ele>6</ele>
        <time>2019-10-29T14:45:58Z</time>
      </trkpt>
      <trkpt lat="48.50078" lon="-2.68257">
        <ele>6</ele>
        <time>2019-10-29T14:46:01Z</time>
      </trkpt>
      <trkpt lat="48.50082" lon="-2.68256">
        <ele>6</ele>
        <time>2019-10-29T14:46:04Z</time>
      </trkpt>
      <trkpt lat="48.50085" lon="-2.68253">
        <ele>6</ele>
        <time>2019-10-29T14:46:07Z</time>
      </trkpt>
      <trkpt lat="48.50089" lon="-2.68251">
        <ele>6</ele>
        <time>2019-10-29T14:46:10Z</time>
      </trkpt>
      <trkpt lat="48.50092" lon="-2.68248">
        <ele>6</ele>
        <time>2019-10-29T14:46:13Z</time>
      </trkpt>
      <trkpt lat="48.50097" lon="-2.68245">
        <ele>6</ele>
        <time>2019-10-29T14:46:17Z</time>
      </trkpt>
      <trkpt lat="48.50101" lon="-2.68242">
        <ele>6</ele>
        <time>2019-10-29T14:46:20Z</time>
      </trkpt>
      <trkpt lat="48.50105" lon="-2.68238">
        <ele>6</ele>
        <time>2019-10-29T14:46:24Z</time>
      </trkpt>
      <trkpt lat="48.50108" lon="-2.68235">
        <ele>6</ele>
        <time>2019-10-29T14:46:27Z</time>
      </trkpt>
      <trkpt lat="48.50112" lon="-2.68232">
        <ele>6</ele>
        <time>2019-10-29T14:46:30Z</time>
      </trkpt>
      <trkpt lat="48.50116" lon="-2.68228">
        <ele>6</ele>
        <time>2019-10-29T14:46:34Z</time>
      </trkpt>
      <trkpt lat="48.50119" lon="-2.68224">
        <ele>6</ele>
        <time>2019-10-29T14:46:38Z</time>
      </trkpt>
      <trkpt lat="48.50123" lon="-2.6822">
        <ele>6</ele>
        <time>2019-10-29T14:46:42Z</time>
      </trkpt>
      <trkpt lat="48.50126" lon="-2.68216">
        <ele>6</ele>
        <time>2019-10-29T14:46:45Z</time>
      </trkpt>
      <trkpt lat="48.50129" lon="-2.68212">
        <ele>6</ele>
        <time>2019-10-29T14:46:49Z</time>
      </trkpt>
      <trkpt lat="48.50133" lon="-2.68207">
        <ele>6</ele>
        <time>2019-10-29T14:46:53Z</time>
      </trkpt>
      <trkpt lat="48.50136" lon="-2.68202">
        <ele>6</ele>
        <time>2019-10-29T14:46:57Z</time>
      </trkpt>
      <trkpt lat="48.5014" lon="-2.68197">
        <ele>6</ele>
        <time>2019-10-29T14:47:01Z</time>
      </trkpt>
      <trkpt lat="48.50143" lon="-2.68193">
        <ele>7</ele>
        <time>2019-10-29T14:47:05Z</time>
      </trkpt>
      <trkpt lat="48.50147" lon="-2.68187">
        <ele>7</ele>
        <time>2019-10-29T14:47:09Z</time>
      </trkpt>
      <trkpt lat="48.5015" lon="-2.68181">
        <ele>7</ele>
        <time>2019-10-29T14:47:13Z</time>
      </trkpt>
      <trkpt lat="48.50154" lon="-2.68176">
        <ele>7</ele>
        <time>2019-10-29T14:47:17Z</time>
      </trkpt>
      <trkpt lat="48.50157" lon="-2.68171">
        <ele>7</ele>
        <time>2019-10-29T14:47:21Z</time>
      </trkpt>
      <trkpt lat="48.50161" lon="-2.68165">
        <ele>7</ele>
        <time>2019-10-29T14:47:25Z</time>
      </trkpt>
      <trkpt lat="48.50164" lon="-2.6816">
        <ele>7</ele>
        <time>2019-10-29T14:47:29Z</time>
      </trkpt>
      <trkpt lat="48.50168" lon="-2.68154">
        <ele>7</ele>
        <time>2019-10-29T14:47:33Z</time>
      </trkpt>
      <trkpt lat="48.50171" lon="-2.68148">
        <ele>7</ele>
        <time>2019-10-29T14:47:37Z</time>
      </trkpt>
      <trkpt lat="48.50174" lon="-2.68143">
        <ele>7</ele>
        <time>2019-10-29T14:47:41Z</time>
      </trkpt>
      <trkpt lat="48.50178" lon="-2.68137">
        <ele>7</ele>
        <time>2019-10-29T14:47:45Z</time>
      </trkpt>
      <trkpt lat="48.50181" lon="-2.68131">
        <ele>7</ele>
        <time>2019-10-29T14:47:49Z</time>
      </trkpt>
      <trkpt lat="48.50185" lon="-2.68126">
        <ele>7</ele>
        <time>2019-10-29T14:47:53Z</time>
      </trkpt>
      <trkpt lat="48.50188" lon="-2.6812">
        <ele>7</ele>
        <time>2019-10-29T14:47:57Z</time>
      </trkpt>
      <trkpt lat="48.50191" lon="-2.68115">
        <ele>7</ele>
        <time>2019-10-29T14:48:01Z</time>
      </trkpt>
      <trkpt lat="48.50194" lon="-2.6811">
        <ele>7</ele>
        <time>2019-10-29T14:48:05Z</time>
      </trkpt>
      <trkpt lat="48.50198" lon="-2.68105">
        <ele>7</ele>
        <time>2019-10-29T14:48:09Z</time>
      </trkpt>
      <trkpt lat="48.50201" lon="-2.681">
        <ele>7</ele>
        <time>2019-10-29T14:48:13Z</time>
      </trkpt>
      <trkpt lat="48.50204" lon="-2.68095">
        <ele>7</ele>
        <time>2019-10-29T14:48:17Z</time>
      </trkpt>
      <trkpt lat="48.50207" lon="-2.6809">
        <ele>7</ele>
        <time>2019-10-29T14:48:21Z</time>
      </trkpt>
      <trkpt lat="48.5021" lon="-2.68084">
        <ele>7</ele>
        <time>2019-10-29T14:48:25Z</time>
      </trkpt>
      <trkpt lat="48.50212" lon="-2.6808">
        <ele>7</ele>
        <time>2019-10-29T14:48:28Z</time>
      </trkpt>
      <trkpt lat="48.50216" lon="-2.68074">
        <ele>7</ele>
        <time>2019-10-29T14:48:32Z</time>
      </trkpt>
      <trkpt lat="48.50217" lon="-2.68068">
        <ele>7</ele>
        <time>2019-10-29T14:48:35Z</time>
      </trkpt>
      <trkpt lat="48.5022" lon="-2.68063">
        <ele>7</ele>
        <time>2019-10-29T14:48:39Z</time>
      </trkpt>
      <trkpt lat="48.50224" lon="-2.68057">
        <ele>7</ele>
        <time>2019-10-29T14:48:43Z</time>
      </trkpt>
      <trkpt lat="48.50226" lon="-2.68051">
        <ele>7</ele>
        <time>2019-10-29T14:48:47Z</time>
      </trkpt>
      <trkpt lat="48.50228" lon="-2.68045">
        <ele>7</ele>
        <time>2019-10-29T14:48:50Z</time>
      </trkpt>
      <trkpt lat="48.50231" lon="-2.68041">
        <ele>7</ele>
        <time>2019-10-29T14:48:53Z</time>
      </trkpt>
      <trkpt lat="48.50233" lon="-2.68036">
        <ele>7</ele>
        <time>2019-10-29T14:48:56Z</time>
      </trkpt>
      <trkpt lat="48.50234" lon="-2.68031">
        <ele>7</ele>
        <time>2019-10-29T14:48:59Z</time>
      </trkpt>
      <trkpt lat="48.50236" lon="-2.68026">
        <ele>7</ele>
        <time>2019-10-29T14:49:02Z</time>
      </trkpt>
      <trkpt lat="48.50239" lon="-2.68021">
        <ele>7</ele>
        <time>2019-10-29T14:49:05Z</time>
      </trkpt>
      <trkpt lat="48.50243" lon="-2.68015">
        <ele>7</ele>
        <time>2019-10-29T14:49:09Z</time>
      </trkpt>
      <trkpt lat="48.50246" lon="-2.6801">
        <ele>7</ele>
        <time>2019-10-29T14:49:13Z</time>
      </trkpt>
      <trkpt lat="48.50249" lon="-2.68005">
        <ele>7</ele>
        <time>2019-10-29T14:49:17Z</time>
      </trkpt>
      <trkpt lat="48.50252" lon="-2.68">
        <ele>7</ele>
        <time>2019-10-29T14:49:21Z</time>
      </trkpt>
      <trkpt lat="48.50255" lon="-2.67995">
        <ele>7</ele>
        <time>2019-10-29T14:49:25Z</time>
      </trkpt>
      <trkpt lat="48.50256" lon="-2.67989">
        <ele>7</ele>
        <time>2019-10-29T14:49:29Z</time>
      </trkpt>
      <trkpt lat="48.50257" lon="-2.67984">
        <ele>7</ele>
        <time>2019-10-29T14:49:32Z</time>
      </trkpt>
      <trkpt lat="48.50256" lon="-2.67977">
        <ele>7</ele>
        <time>2019-10-29T14:49:35Z</time>
      </trkpt>
      <trkpt lat="48.50254" lon="-2.67973">
        <ele>7</ele>
        <time>2019-10-29T14:49:38Z</time>
      </trkpt>
      <trkpt lat="48.5025" lon="-2.67971">
        <ele>7</ele>
        <time>2019-10-29T14:49:41Z</time>
      </trkpt>
      <trkpt lat="48.50246" lon="-2.67969">
        <ele>7</ele>
        <time>2019-10-29T14:49:44Z</time>
      </trkpt>
      <trkpt lat="48.50242" lon="-2.67964">
        <ele>4</ele>
        <time>2019-10-29T14:49:48Z</time>
      </trkpt>
      <trkpt lat="48.5024" lon="-2.67959">
        <ele>3</ele>
        <time>2019-10-29T14:49:51Z</time>
      </trkpt>
      <trkpt lat="48.50235" lon="-2.67955">
        <ele>3</ele>
        <time>2019-10-29T14:49:55Z</time>
      </trkpt>
      <trkpt lat="48.50231" lon="-2.67952">
        <ele>2</ele>
        <time>2019-10-29T14:49:58Z</time>
      </trkpt>
      <trkpt lat="48.50227" lon="-2.67951">
        <ele>5.8</ele>
        <time>2019-10-29T14:50:01Z</time>
      </trkpt>
      <trkpt lat="48.50223" lon="-2.67948">
        <ele>5.9</ele>
        <time>2019-10-29T14:50:05Z</time>
      </trkpt>
      <trkpt lat="48.50219" lon="-2.67946">
        <ele>5.9</ele>
        <time>2019-10-29T14:50:08Z</time>
      </trkpt>
      <trkpt lat="48.50215" lon="-2.67943">
        <ele>6</ele>
        <time>2019-10-29T14:50:12Z</time>
      </trkpt>
      <trkpt lat="48.50211" lon="-2.67941">
        <ele>6</ele>
        <time>2019-10-29T14:50:15Z</time>
      </trkpt>
      <trkpt lat="48.50207" lon="-2.67938">
        <ele>6</ele>
        <time>2019-10-29T14:50:19Z</time>
      </trkpt>
      <trkpt lat="48.50203" lon="-2.67936">
        <ele>6</ele>
        <time>2019-10-29T14:50:22Z</time>
      </trkpt>
      <trkpt lat="48.50199" lon="-2.67931">
        <ele>6</ele>
        <time>2019-10-29T14:50:26Z</time>
      </trkpt>
      <trkpt lat="48.50196" lon="-2.6793">
        <ele>6</ele>
        <time>2019-10-29T14:50:29Z</time>
      </trkpt>
      <trkpt lat="48.50192" lon="-2.67928">
        <ele>6</ele>
        <time>2019-10-29T14:50:32Z</time>
      </trkpt>
      <trkpt lat="48.50189" lon="-2.67927">
        <ele>6</ele>
        <time>2019-10-29T14:50:36Z</time>
      </trkpt>
      <trkpt lat="48.50186" lon="-2.67923">
        <ele>6</ele>
        <time>2019-10-29T14:50:39Z</time>
      </trkpt>
      <trkpt lat="48.50183" lon="-2.67918">
        <ele>6</ele>
        <time>2019-10-29T14:50:43Z</time>
      </trkpt>
      <trkpt lat="48.50182" lon="-2.67916">
        <ele>6</ele>
        <time>2019-10-29T14:50:46Z</time>
      </trkpt>
      <trkpt lat="48.50182" lon="-2.67911">
        <ele>6.1</ele>
        <time>2019-10-29T14:50:49Z</time>
      </trkpt>
      <trkpt lat="48.50183" lon="-2.67905">
        <ele>6.2</ele>
        <time>2019-10-29T14:50:53Z</time>
      </trkpt>
      <trkpt lat="48.50185" lon="-2.679">
        <ele>6.2</ele>
        <time>2019-10-29T14:50:57Z</time>
      </trkpt>
      <trkpt lat="48.50187" lon="-2.67894">
        <ele>6.2</ele>
        <time>2019-10-29T14:51:01Z</time>
      </trkpt>
      <trkpt lat="48.50187" lon="-2.67887">
        <ele>6.3</ele>
        <time>2019-10-29T14:51:04Z</time>
      </trkpt>
      <trkpt lat="48.50187" lon="-2.67882">
        <ele>6.5</ele>
        <time>2019-10-29T14:51:07Z</time>
      </trkpt>
      <trkpt lat="48.50187" lon="-2.67876">
        <ele>6.6</ele>
        <time>2019-10-29T14:51:11Z</time>
      </trkpt>
      <trkpt lat="48.50188" lon="-2.6787">
        <ele>6.7</ele>
        <time>2019-10-29T14:51:14Z</time>
      </trkpt>
      <trkpt lat="48.50189" lon="-2.67866">
        <ele>6.8</ele>
        <time>2019-10-29T14:51:18Z</time>
      </trkpt>
      <trkpt lat="48.50191" lon="-2.67861">
        <ele>7</ele>
        <time>2019-10-29T14:51:22Z</time>
      </trkpt>
      <trkpt lat="48.50191" lon="-2.67856">
        <ele>7.2</ele>
        <time>2019-10-29T14:51:25Z</time>
      </trkpt>
      <trkpt lat="48.50193" lon="-2.6785">
        <ele>1</ele>
        <time>2019-10-29T14:51:29Z</time>
      </trkpt>
      <trkpt lat="48.50193" lon="-2.67844">
        <ele>2</ele>
        <time>2019-10-29T14:51:33Z</time>
      </trkpt>
      <trkpt lat="48.50194" lon="-2.67839">
        <ele>4</ele>
        <time>2019-10-29T14:51:36Z</time>
      </trkpt>
      <trkpt lat="48.50195" lon="-2.67834">
        <ele>6</ele>
        <time>2019-10-29T14:51:40Z</time>
      </trkpt>
      <trkpt lat="48.50195" lon="-2.67828">
        <ele>6</ele>
        <time>2019-10-29T14:51:43Z</time>
      </trkpt>
      <trkpt lat="48.50196" lon="-2.67823">
        <ele>6</ele>
        <time>2019-10-29T14:51:46Z</time>
      </trkpt>
      <trkpt lat="48.50198" lon="-2.67817">
        <ele>6</ele>
        <time>2019-10-29T14:51:49Z</time>
      </trkpt>
      <trkpt lat="48.502" lon="-2.67813">
        <ele>6</ele>
        <time>2019-10-29T14:51:52Z</time>
      </trkpt>
      <trkpt lat="48.50202" lon="-2.67808">
        <ele>3</ele>
        <time>2019-10-29T14:51:57Z</time>
      </trkpt>
      <trkpt lat="48.50204" lon="-2.67805">
        <ele>11.3</ele>
        <time>2019-10-29T14:52:02Z</time>
      </trkpt>
      <trkpt lat="48.50208" lon="-2.67803">
        <ele>12.1</ele>
        <time>2019-10-29T14:52:05Z</time>
      </trkpt>
      <trkpt lat="48.50209" lon="-2.67799">
        <ele>12.2</ele>
        <time>2019-10-29T14:52:09Z</time>
      </trkpt>
      <trkpt lat="48.50211" lon="-2.67795">
        <ele>12.2</ele>
        <time>2019-10-29T14:52:13Z</time>
      </trkpt>
      <trkpt lat="48.50215" lon="-2.67792">
        <ele>12.5</ele>
        <time>2019-10-29T14:52:16Z</time>
      </trkpt>
      <trkpt lat="48.50216" lon="-2.67786">
        <ele>11.9</ele>
        <time>2019-10-29T14:52:19Z</time>
      </trkpt>
      <trkpt lat="48.50219" lon="-2.67782">
        <ele>11.6</ele>
        <time>2019-10-29T14:52:22Z</time>
      </trkpt>
      <trkpt lat="48.50221" lon="-2.67778">
        <ele>11.1</ele>
        <time>2019-10-29T14:52:25Z</time>
      </trkpt>
      <trkpt lat="48.50225" lon="-2.67773">
        <ele>11.8</ele>
        <time>2019-10-29T14:52:29Z</time>
      </trkpt>
      <trkpt lat="48.50228" lon="-2.6777">
        <ele>12.8</ele>
        <time>2019-10-29T14:52:34Z</time>
      </trkpt>
      <trkpt lat="48.50229" lon="-2.67768">
        <ele>6</ele>
        <time>2019-10-29T14:52:39Z</time>
      </trkpt>
      <trkpt lat="48.50232" lon="-2.67763">
        <ele>10</ele>
        <time>2019-10-29T14:52:43Z</time>
      </trkpt>
      <trkpt lat="48.50234" lon="-2.6776">
        <ele>13</ele>
        <time>2019-10-29T14:52:46Z</time>
      </trkpt>
      <trkpt lat="48.50238" lon="-2.67754">
        <ele>13</ele>
        <time>2019-10-29T14:52:49Z</time>
      </trkpt>
      <trkpt lat="48.5024" lon="-2.67747">
        <ele>13</ele>
        <time>2019-10-29T14:52:52Z</time>
      </trkpt>
      <trkpt lat="48.50243" lon="-2.67743">
        <ele>9</ele>
        <time>2019-10-29T14:52:56Z</time>
      </trkpt>
      <trkpt lat="48.50244" lon="-2.6774">
        <ele>6</ele>
        <time>2019-10-29T14:52:59Z</time>
      </trkpt>
      <trkpt lat="48.50248" lon="-2.67735">
        <ele>4</ele>
        <time>2019-10-29T14:53:02Z</time>
      </trkpt>
      <trkpt lat="48.50251" lon="-2.67732">
        <ele>2</ele>
        <time>2019-10-29T14:53:06Z</time>
      </trkpt>
      <trkpt lat="48.50251" lon="-2.6773">
        <ele>1</ele>
        <time>2019-10-29T14:53:09Z</time>
      </trkpt>
      <trkpt lat="48.50252" lon="-2.67728">
        <ele>1</ele>
        <time>2019-10-29T14:53:13Z</time>
      </trkpt>
      <trkpt lat="48.50254" lon="-2.67724">
        <ele>1</ele>
        <time>2019-10-29T14:53:16Z</time>
      </trkpt>
      <trkpt lat="48.50258" lon="-2.67723">
        <ele>1</ele>
        <time>2019-10-29T14:53:19Z</time>
      </trkpt>
      <trkpt lat="48.50261" lon="-2.67719">
        <ele>1</ele>
        <time>2019-10-29T14:53:22Z</time>
      </trkpt>
      <trkpt lat="48.50264" lon="-2.67717">
        <ele>2</ele>
        <time>2019-10-29T14:53:25Z</time>
      </trkpt>
      <trkpt lat="48.50266" lon="-2.67711">
        <ele>5</ele>
        <time>2019-10-29T14:53:29Z</time>
      </trkpt>
      <trkpt lat="48.50267" lon="-2.67706">
        <ele>7</ele>
        <time>2019-10-29T14:53:36Z</time>
      </trkpt>
      <trkpt lat="48.5027" lon="-2.67702">
        <ele>8</ele>
        <time>2019-10-29T14:53:40Z</time>
      </trkpt>
      <trkpt lat="48.50276" lon="-2.67697">
        <ele>9</ele>
        <time>2019-10-29T14:53:43Z</time>
      </trkpt>
      <trkpt lat="48.50278" lon="-2.67692">
        <ele>11</ele>
        <time>2019-10-29T14:53:48Z</time>
      </trkpt>
      <trkpt lat="48.50279" lon="-2.6769">
        <ele>12</ele>
        <time>2019-10-29T14:53:51Z</time>
      </trkpt>
      <trkpt lat="48.5028" lon="-2.67684">
        <ele>12</ele>
        <time>2019-10-29T14:53:55Z</time>
      </trkpt>
      <trkpt lat="48.5028" lon="-2.67679">
        <ele>12</ele>
        <time>2019-10-29T14:53:58Z</time>
      </trkpt>
      <trkpt lat="48.50282" lon="-2.67676">
        <ele>13</ele>
        <time>2019-10-29T14:54:01Z</time>
      </trkpt>
      <trkpt lat="48.50283" lon="-2.67671">
        <ele>14</ele>
        <time>2019-10-29T14:54:05Z</time>
      </trkpt>
      <trkpt lat="48.50284" lon="-2.67669">
        <ele>14</ele>
        <time>2019-10-29T14:54:08Z</time>
      </trkpt>
      <trkpt lat="48.50285" lon="-2.67664">
        <ele>14</ele>
        <time>2019-10-29T14:54:11Z</time>
      </trkpt>
      <trkpt lat="48.50287" lon="-2.6766">
        <ele>14</ele>
        <time>2019-10-29T14:54:15Z</time>
      </trkpt>
      <trkpt lat="48.50288" lon="-2.67654">
        <ele>14</ele>
        <time>2019-10-29T14:54:20Z</time>
      </trkpt>
      <trkpt lat="48.5029" lon="-2.67649">
        <ele>14</ele>
        <time>2019-10-29T14:54:24Z</time>
      </trkpt>
      <trkpt lat="48.50291" lon="-2.67645">
        <ele>14</ele>
        <time>2019-10-29T14:54:27Z</time>
      </trkpt>
      <trkpt lat="48.50293" lon="-2.6764">
        <ele>14</ele>
        <time>2019-10-29T14:54:31Z</time>
      </trkpt>
      <trkpt lat="48.50294" lon="-2.67635">
        <ele>14</ele>
        <time>2019-10-29T14:54:34Z</time>
      </trkpt>
      <trkpt lat="48.50295" lon="-2.67631">
        <ele>14</ele>
        <time>2019-10-29T14:54:38Z</time>
      </trkpt>
      <trkpt lat="48.50295" lon="-2.67627">
        <ele>14</ele>
        <time>2019-10-29T14:54:41Z</time>
      </trkpt>
      <trkpt lat="48.50294" lon="-2.67622">
        <ele>14</ele>
        <time>2019-10-29T14:54:44Z</time>
      </trkpt>
      <trkpt lat="48.50294" lon="-2.67618">
        <ele>14</ele>
        <time>2019-10-29T14:54:47Z</time>
      </trkpt>
      <trkpt lat="48.50295" lon="-2.67614">
        <ele>14</ele>
        <time>2019-10-29T14:54:50Z</time>
      </trkpt>
      <trkpt lat="48.50296" lon="-2.67608">
        <ele>14</ele>
        <time>2019-10-29T14:54:54Z</time>
      </trkpt>
      <trkpt lat="48.50297" lon="-2.67605">
        <ele>14</ele>
        <time>2019-10-29T14:54:59Z</time>
      </trkpt>
      <trkpt lat="48.50298" lon="-2.67597">
        <ele>14</ele>
        <time>2019-10-29T14:55:03Z</time>
      </trkpt>
      <trkpt lat="48.50298" lon="-2.67592">
        <ele>14</ele>
        <time>2019-10-29T14:55:06Z</time>
      </trkpt>
      <trkpt lat="48.50298" lon="-2.67588">
        <ele>14</ele>
        <time>2019-10-29T14:55:09Z</time>
      </trkpt>
      <trkpt lat="48.50299" lon="-2.67583">
        <ele>14</ele>
        <time>2019-10-29T14:55:12Z</time>
      </trkpt>
      <trkpt lat="48.503" lon="-2.67577">
        <ele>15</ele>
        <time>2019-10-29T14:55:15Z</time>
      </trkpt>
      <trkpt lat="48.50301" lon="-2.67571">
        <ele>15</ele>
        <time>2019-10-29T14:55:18Z</time>
      </trkpt>
      <trkpt lat="48.50303" lon="-2.67566">
        <ele>15</ele>
        <time>2019-10-29T14:55:22Z</time>
      </trkpt>
      <trkpt lat="48.50304" lon="-2.67562">
        <ele>15</ele>
        <time>2019-10-29T14:55:25Z</time>
      </trkpt>
      <trkpt lat="48.50305" lon="-2.67557">
        <ele>15</ele>
        <time>2019-10-29T14:55:28Z</time>
      </trkpt>
      <trkpt lat="48.50307" lon="-2.67553">
        <ele>15</ele>
        <time>2019-10-29T14:55:31Z</time>
      </trkpt>
      <trkpt lat="48.50308" lon="-2.67549">
        <ele>15</ele>
        <time>2019-10-29T14:55:35Z</time>
      </trkpt>
      <trkpt lat="48.50309" lon="-2.67544">
        <ele>15</ele>
        <time>2019-10-29T14:55:38Z</time>
      </trkpt>
      <trkpt lat="48.50311" lon="-2.67536">
        <ele>16</ele>
        <time>2019-10-29T14:55:42Z</time>
      </trkpt>
      <trkpt lat="48.50312" lon="-2.6753">
        <ele>16</ele>
        <time>2019-10-29T14:55:45Z</time>
      </trkpt>
      <trkpt lat="48.50314" lon="-2.67526">
        <ele>16</ele>
        <time>2019-10-29T14:55:49Z</time>
      </trkpt>
      <trkpt lat="48.50315" lon="-2.67523">
        <ele>16</ele>
        <time>2019-10-29T14:55:52Z</time>
      </trkpt>
      <trkpt lat="48.50317" lon="-2.67518">
        <ele>16</ele>
        <time>2019-10-29T14:55:55Z</time>
      </trkpt>
      <trkpt lat="48.50319" lon="-2.67515">
        <ele>16</ele>
        <time>2019-10-29T14:55:58Z</time>
      </trkpt>
      <trkpt lat="48.5032" lon="-2.67511">
        <ele>16</ele>
        <time>2019-10-29T14:56:01Z</time>
      </trkpt>
      <trkpt lat="48.50322" lon="-2.67504">
        <ele>16</ele>
        <time>2019-10-29T14:56:04Z</time>
      </trkpt>
      <trkpt lat="48.50324" lon="-2.675">
        <ele>16</ele>
        <time>2019-10-29T14:56:07Z</time>
      </trkpt>
      <trkpt lat="48.50326" lon="-2.67496">
        <ele>16</ele>
        <time>2019-10-29T14:56:10Z</time>
      </trkpt>
      <trkpt lat="48.50327" lon="-2.6749">
        <ele>16</ele>
        <time>2019-10-29T14:56:13Z</time>
      </trkpt>
      <trkpt lat="48.50327" lon="-2.67485">
        <ele>16</ele>
        <time>2019-10-29T14:56:16Z</time>
      </trkpt>
      <trkpt lat="48.50328" lon="-2.67478">
        <ele>16</ele>
        <time>2019-10-29T14:56:20Z</time>
      </trkpt>
      <trkpt lat="48.50328" lon="-2.6747">
        <ele>15</ele>
        <time>2019-10-29T14:56:24Z</time>
      </trkpt>
      <trkpt lat="48.50328" lon="-2.67465">
        <ele>14</ele>
        <time>2019-10-29T14:56:27Z</time>
      </trkpt>
      <trkpt lat="48.50328" lon="-2.6746">
        <ele>13</ele>
        <time>2019-10-29T14:56:30Z</time>
      </trkpt>
      <trkpt lat="48.50328" lon="-2.67454">
        <ele>12</ele>
        <time>2019-10-29T14:56:33Z</time>
      </trkpt>
      <trkpt lat="48.50329" lon="-2.6745">
        <ele>11</ele>
        <time>2019-10-29T14:56:37Z</time>
      </trkpt>
      <trkpt lat="48.50329" lon="-2.67446">
        <ele>10</ele>
        <time>2019-10-29T14:56:41Z</time>
      </trkpt>
      <trkpt lat="48.50327" lon="-2.67441">
        <ele>10</ele>
        <time>2019-10-29T14:56:44Z</time>
      </trkpt>
      <trkpt lat="48.50327" lon="-2.67437">
        <ele>10</ele>
        <time>2019-10-29T14:56:47Z</time>
      </trkpt>
      <trkpt lat="48.50328" lon="-2.67433">
        <ele>10</ele>
        <time>2019-10-29T14:56:50Z</time>
      </trkpt>
      <trkpt lat="48.50329" lon="-2.67428">
        <ele>10</ele>
        <time>2019-10-29T14:56:54Z</time>
      </trkpt>
      <trkpt lat="48.50329" lon="-2.67424">
        <ele>10</ele>
        <time>2019-10-29T14:56:58Z</time>
      </trkpt>
      <trkpt lat="48.5033" lon="-2.67423">
        <ele>12</ele>
        <time>2019-10-29T14:57:05Z</time>
      </trkpt>
      <trkpt lat="48.50332" lon="-2.6742">
        <ele>13</ele>
        <time>2019-10-29T14:57:11Z</time>
      </trkpt>
      <trkpt lat="48.50332" lon="-2.67415">
        <ele>16</ele>
        <time>2019-10-29T14:57:15Z</time>
      </trkpt>
      <trkpt lat="48.50331" lon="-2.6741">
        <ele>17</ele>
        <time>2019-10-29T14:57:19Z</time>
      </trkpt>
      <trkpt lat="48.50333" lon="-2.67407">
        <ele>17</ele>
        <time>2019-10-29T14:57:23Z</time>
      </trkpt>
      <trkpt lat="48.50336" lon="-2.67404">
        <ele>17</ele>
        <time>2019-10-29T14:57:27Z</time>
      </trkpt>
      <trkpt lat="48.50339" lon="-2.67403">
        <ele>17</ele>
        <time>2019-10-29T14:57:31Z</time>
      </trkpt>
      <trkpt lat="48.50341" lon="-2.67402">
        <ele>17</ele>
        <time>2019-10-29T14:57:35Z</time>
      </trkpt>
      <trkpt lat="48.50344" lon="-2.67397">
        <ele>17</ele>
        <time>2019-10-29T14:57:39Z</time>
      </trkpt>
      <trkpt lat="48.50346" lon="-2.67396">
        <ele>17</ele>
        <time>2019-10-29T14:57:42Z</time>
      </trkpt>
      <trkpt lat="48.5035" lon="-2.67393">
        <ele>17</ele>
        <time>2019-10-29T14:57:46Z</time>
      </trkpt>
      <trkpt lat="48.50351" lon="-2.67389">
        <ele>17</ele>
        <time>2019-10-29T14:57:50Z</time>
      </trkpt>
      <trkpt lat="48.50352" lon="-2.67385">
        <ele>17</ele>
        <time>2019-10-29T14:57:53Z</time>
      </trkpt>
      <trkpt lat="48.50355" lon="-2.67384">
        <ele>17</ele>
        <time>2019-10-29T14:57:58Z</time>
      </trkpt>
      <trkpt lat="48.50356" lon="-2.67383">
        <ele>17</ele>
        <time>2019-10-29T14:58:01Z</time>
      </trkpt>
      <trkpt lat="48.50355" lon="-2.67383">
        <ele>17</ele>
        <time>2019-10-29T14:58:05Z</time>
      </trkpt>
      <trkpt lat="48.50356" lon="-2.67383">
        <ele>17</ele>
        <time>2019-10-29T14:58:09Z</time>
      </trkpt>
      <trkpt lat="48.50358" lon="-2.67383">
        <ele>17</ele>
        <time>2019-10-29T14:58:15Z</time>
      </trkpt>
      <trkpt lat="48.50357" lon="-2.6738">
        <ele>17</ele>
        <time>2019-10-29T14:58:19Z</time>
      </trkpt>
      <trkpt lat="48.50356" lon="-2.67381">
        <ele>18</ele>
        <time>2019-10-29T14:58:28Z</time>
      </trkpt>
      <trkpt lat="48.50354" lon="-2.67381">
        <ele>19</ele>
        <time>2019-10-29T14:58:31Z</time>
      </trkpt>
      <trkpt lat="48.50353" lon="-2.67382">
        <ele>20</ele>
        <time>2019-10-29T14:58:35Z</time>
      </trkpt>
      <trkpt lat="48.50352" lon="-2.67384">
        <ele>22</ele>
        <time>2019-10-29T14:58:39Z</time>
      </trkpt>
      <trkpt lat="48.50354" lon="-2.67386">
        <ele>24</ele>
        <time>2019-10-29T14:58:43Z</time>
      </trkpt>
      <trkpt lat="48.50352" lon="-2.67386">
        <ele>27</ele>
        <time>2019-10-29T14:58:53Z</time>
      </trkpt>
      <trkpt lat="48.50353" lon="-2.67386">
        <ele>27</ele>
        <time>2019-10-29T14:58:59Z</time>
      </trkpt>
      <trkpt lat="48.50353" lon="-2.67384">
        <ele>29</ele>
        <time>2019-10-29T14:59:07Z</time>
      </trkpt>
      <trkpt lat="48.50354" lon="-2.67381">
        <ele>29</ele>
        <time>2019-10-29T14:59:12Z</time>
      </trkpt>
      <trkpt lat="48.50353" lon="-2.67379">
        <ele>29</ele>
        <time>2019-10-29T14:59:15Z</time>
      </trkpt>
      <trkpt lat="48.50353" lon="-2.67377">
        <ele>27</ele>
        <time>2019-10-29T14:59:18Z</time>
      </trkpt>
      <trkpt lat="48.50353" lon="-2.67375">
        <ele>23</ele>
        <time>2019-10-29T14:59:22Z</time>
      </trkpt>
      <trkpt lat="48.50352" lon="-2.67376">
        <ele>18</ele>
        <time>2019-10-29T14:59:27Z</time>
      </trkpt>
      <trkpt lat="48.50351" lon="-2.67378">
        <ele>18</ele>
        <time>2019-10-29T14:59:32Z</time>
      </trkpt>
      <trkpt lat="48.50353" lon="-2.67379">
        <ele>19</ele>
        <time>2019-10-29T14:59:46Z</time>
      </trkpt>
      <trkpt lat="48.50353" lon="-2.6738">
        <ele>23</ele>
        <time>2019-10-29T14:59:51Z</time>
      </trkpt>
      <trkpt lat="48.50351" lon="-2.67384">
        <ele>23</ele>
        <time>2019-10-29T14:59:55Z</time>
      </trkpt>
      <trkpt lat="48.50351" lon="-2.67389">
        <ele>23</ele>
        <time>2019-10-29T15:00:00Z</time>
      </trkpt>
      <trkpt lat="48.50348" lon="-2.67391">
        <ele>23</ele>
        <time>2019-10-29T15:00:03Z</time>
      </trkpt>
      <trkpt lat="48.50344" lon="-2.67394">
        <ele>20</ele>
        <time>2019-10-29T15:00:06Z</time>
      </trkpt>
      <trkpt lat="48.50341" lon="-2.674">
        <ele>19</ele>
        <time>2019-10-29T15:00:10Z</time>
      </trkpt>
      <trkpt lat="48.50333" lon="-2.67412">
        <ele>17</ele>
        <time>2019-10-29T15:00:13Z</time>
      </trkpt>
      <trkpt lat="48.50331" lon="-2.67419">
        <ele>17</ele>
        <time>2019-10-29T15:00:16Z</time>
      </trkpt>
      <trkpt lat="48.50328" lon="-2.67422">
        <ele>17</ele>
        <time>2019-10-29T15:00:19Z</time>
      </trkpt>
      <trkpt lat="48.50327" lon="-2.67423">
        <ele>16</ele>
        <time>2019-10-29T15:00:23Z</time>
      </trkpt>
      <trkpt lat="48.50324" lon="-2.67423">
        <ele>16</ele>
        <time>2019-10-29T15:00:28Z</time>
      </trkpt>
      <trkpt lat="48.50321" lon="-2.67423">
        <ele>16</ele>
        <time>2019-10-29T15:00:33Z</time>
      </trkpt>
      <trkpt lat="48.50319" lon="-2.67423">
        <ele>16</ele>
        <time>2019-10-29T15:00:37Z</time>
      </trkpt>
      <trkpt lat="48.50317" lon="-2.67423">
        <ele>16</ele>
        <time>2019-10-29T15:00:40Z</time>
      </trkpt>
      <trkpt lat="48.50314" lon="-2.67424">
        <ele>16</ele>
        <time>2019-10-29T15:00:46Z</time>
      </trkpt>
      <trkpt lat="48.50311" lon="-2.67424">
        <ele>14</ele>
        <time>2019-10-29T15:00:49Z</time>
      </trkpt>
      <trkpt lat="48.50307" lon="-2.67425">
        <ele>13</ele>
        <time>2019-10-29T15:00:52Z</time>
      </trkpt>
      <trkpt lat="48.50304" lon="-2.67425">
        <ele>12</ele>
        <time>2019-10-29T15:00:55Z</time>
      </trkpt>
      <trkpt lat="48.503" lon="-2.67427">
        <ele>10</ele>
        <time>2019-10-29T15:01:00Z</time>
      </trkpt>
      <trkpt lat="48.50297" lon="-2.6743">
        <ele>9</ele>
        <time>2019-10-29T15:01:04Z</time>
      </trkpt>
      <trkpt lat="48.50295" lon="-2.6743">
        <ele>7</ele>
        <time>2019-10-29T15:01:07Z</time>
      </trkpt>
      <trkpt lat="48.50292" lon="-2.67429">
        <ele>7</ele>
        <time>2019-10-29T15:01:10Z</time>
      </trkpt>
      <trkpt lat="48.50287" lon="-2.67426">
        <ele>7</ele>
        <time>2019-10-29T15:01:14Z</time>
      </trkpt>
      <trkpt lat="48.50284" lon="-2.67424">
        <ele>5</ele>
        <time>2019-10-29T15:01:18Z</time>
      </trkpt>
      <trkpt lat="48.50282" lon="-2.67422">
        <ele>5</ele>
        <time>2019-10-29T15:01:22Z</time>
      </trkpt>
      <trkpt lat="48.50277" lon="-2.6742">
        <ele>5</ele>
        <time>2019-10-29T15:01:26Z</time>
      </trkpt>
      <trkpt lat="48.50275" lon="-2.6742">
        <ele>5</ele>
        <time>2019-10-29T15:01:30Z</time>
      </trkpt>
      <trkpt lat="48.50271" lon="-2.67417">
        <ele>5</ele>
        <time>2019-10-29T15:01:34Z</time>
      </trkpt>
      <trkpt lat="48.50268" lon="-2.67417">
        <ele>5</ele>
        <time>2019-10-29T15:01:38Z</time>
      </trkpt>
      <trkpt lat="48.50264" lon="-2.67414">
        <ele>5</ele>
        <time>2019-10-29T15:01:42Z</time>
      </trkpt>
      <trkpt lat="48.50262" lon="-2.6741">
        <ele>5</ele>
        <time>2019-10-29T15:01:45Z</time>
      </trkpt>
      <trkpt lat="48.50257" lon="-2.67408">
        <ele>7</ele>
        <time>2019-10-29T15:01:48Z</time>
      </trkpt>
      <trkpt lat="48.50254" lon="-2.67406">
        <ele>9</ele>
        <time>2019-10-29T15:01:51Z</time>
      </trkpt>
      <trkpt lat="48.50251" lon="-2.67405">
        <ele>9</ele>
        <time>2019-10-29T15:01:54Z</time>
      </trkpt>
      <trkpt lat="48.50248" lon="-2.67404">
        <ele>9</ele>
        <time>2019-10-29T15:01:57Z</time>
      </trkpt>
      <trkpt lat="48.50246" lon="-2.67401">
        <ele>9</ele>
        <time>2019-10-29T15:02:00Z</time>
      </trkpt>
      <trkpt lat="48.50243" lon="-2.67397">
        <ele>9</ele>
        <time>2019-10-29T15:02:04Z</time>
      </trkpt>
      <trkpt lat="48.50239" lon="-2.67395">
        <ele>9</ele>
        <time>2019-10-29T15:02:08Z</time>
      </trkpt>
      <trkpt lat="48.50237" lon="-2.67391">
        <ele>9</ele>
        <time>2019-10-29T15:02:11Z</time>
      </trkpt>
      <trkpt lat="48.50232" lon="-2.67388">
        <ele>9</ele>
        <time>2019-10-29T15:02:15Z</time>
      </trkpt>
      <trkpt lat="48.50229" lon="-2.67386">
        <ele>9</ele>
        <time>2019-10-29T15:02:19Z</time>
      </trkpt>
      <trkpt lat="48.50227" lon="-2.67383">
        <ele>9</ele>
        <time>2019-10-29T15:02:22Z</time>
      </trkpt>
      <trkpt lat="48.50224" lon="-2.67379">
        <ele>9</ele>
        <time>2019-10-29T15:02:25Z</time>
      </trkpt>
      <trkpt lat="48.5022" lon="-2.67376">
        <ele>10</ele>
        <time>2019-10-29T15:02:29Z</time>
      </trkpt>
      <trkpt lat="48.50217" lon="-2.67373">
        <ele>10</ele>
        <time>2019-10-29T15:02:33Z</time>
      </trkpt>
      <trkpt lat="48.50214" lon="-2.6737">
        <ele>10</ele>
        <time>2019-10-29T15:02:36Z</time>
      </trkpt>
      <trkpt lat="48.50211" lon="-2.67367">
        <ele>11</ele>
        <time>2019-10-29T15:02:40Z</time>
      </trkpt>
      <trkpt lat="48.50208" lon="-2.67364">
        <ele>11</ele>
        <time>2019-10-29T15:02:44Z</time>
      </trkpt>
      <trkpt lat="48.50203" lon="-2.67361">
        <ele>11</ele>
        <time>2019-10-29T15:02:47Z</time>
      </trkpt>
      <trkpt lat="48.50201" lon="-2.67361">
        <ele>11</ele>
        <time>2019-10-29T15:02:51Z</time>
      </trkpt>
      <trkpt lat="48.50198" lon="-2.6736">
        <ele>11</ele>
        <time>2019-10-29T15:02:54Z</time>
      </trkpt>
      <trkpt lat="48.50194" lon="-2.67359">
        <ele>11</ele>
        <time>2019-10-29T15:02:57Z</time>
      </trkpt>
      <trkpt lat="48.50191" lon="-2.67358">
        <ele>9</ele>
        <time>2019-10-29T15:03:01Z</time>
      </trkpt>
      <trkpt lat="48.50187" lon="-2.67356">
        <ele>9</ele>
        <time>2019-10-29T15:03:05Z</time>
      </trkpt>
      <trkpt lat="48.50183" lon="-2.67354">
        <ele>8</ele>
        <time>2019-10-29T15:03:09Z</time>
      </trkpt>
      <trkpt lat="48.50179" lon="-2.67355">
        <ele>8</ele>
        <time>2019-10-29T15:03:12Z</time>
      </trkpt>
      <trkpt lat="48.50175" lon="-2.67357">
        <ele>8</ele>
        <time>2019-10-29T15:03:15Z</time>
      </trkpt>
      <trkpt lat="48.50173" lon="-2.67362">
        <ele>8</ele>
        <time>2019-10-29T15:03:19Z</time>
      </trkpt>
      <trkpt lat="48.50171" lon="-2.67365">
        <ele>8</ele>
        <time>2019-10-29T15:03:22Z</time>
      </trkpt>
      <trkpt lat="48.50167" lon="-2.67368">
        <ele>8</ele>
        <time>2019-10-29T15:03:25Z</time>
      </trkpt>
      <trkpt lat="48.50164" lon="-2.67371">
        <ele>8</ele>
        <time>2019-10-29T15:03:29Z</time>
      </trkpt>
      <trkpt lat="48.5016" lon="-2.67375">
        <ele>8</ele>
        <time>2019-10-29T15:03:33Z</time>
      </trkpt>
      <trkpt lat="48.50156" lon="-2.67379">
        <ele>8</ele>
        <time>2019-10-29T15:03:37Z</time>
      </trkpt>
      <trkpt lat="48.50153" lon="-2.67382">
        <ele>8</ele>
        <time>2019-10-29T15:03:40Z</time>
      </trkpt>
      <trkpt lat="48.50148" lon="-2.67383">
        <ele>8</ele>
        <time>2019-10-29T15:03:44Z</time>
      </trkpt>
      <trkpt lat="48.50145" lon="-2.67387">
        <ele>8</ele>
        <time>2019-10-29T15:03:48Z</time>
      </trkpt>
      <trkpt lat="48.50142" lon="-2.6739">
        <ele>8</ele>
        <time>2019-10-29T15:03:51Z</time>
      </trkpt>
      <trkpt lat="48.50138" lon="-2.67393">
        <ele>8</ele>
        <time>2019-10-29T15:03:54Z</time>
      </trkpt>
      <trkpt lat="48.50134" lon="-2.67398">
        <ele>8</ele>
        <time>2019-10-29T15:03:57Z</time>
      </trkpt>
      <trkpt lat="48.5013" lon="-2.67402">
        <ele>8</ele>
        <time>2019-10-29T15:04:01Z</time>
      </trkpt>
      <trkpt lat="48.50127" lon="-2.67405">
        <ele>8</ele>
        <time>2019-10-29T15:04:04Z</time>
      </trkpt>
      <trkpt lat="48.50124" lon="-2.67408">
        <ele>8</ele>
        <time>2019-10-29T15:04:07Z</time>
      </trkpt>
      <trkpt lat="48.5012" lon="-2.67412">
        <ele>8</ele>
        <time>2019-10-29T15:04:11Z</time>
      </trkpt>
      <trkpt lat="48.50117" lon="-2.67415">
        <ele>8</ele>
        <time>2019-10-29T15:04:14Z</time>
      </trkpt>
      <trkpt lat="48.50114" lon="-2.67419">
        <ele>8</ele>
        <time>2019-10-29T15:04:18Z</time>
      </trkpt>
      <trkpt lat="48.50111" lon="-2.67423">
        <ele>8</ele>
        <time>2019-10-29T15:04:22Z</time>
      </trkpt>
      <trkpt lat="48.50108" lon="-2.67425">
        <ele>8</ele>
        <time>2019-10-29T15:04:25Z</time>
      </trkpt>
      <trkpt lat="48.50104" lon="-2.67428">
        <ele>8</ele>
        <time>2019-10-29T15:04:28Z</time>
      </trkpt>
      <trkpt lat="48.50101" lon="-2.67431">
        <ele>8</ele>
        <time>2019-10-29T15:04:31Z</time>
      </trkpt>
      <trkpt lat="48.50097" lon="-2.67435">
        <ele>8</ele>
        <time>2019-10-29T15:04:35Z</time>
      </trkpt>
      <trkpt lat="48.50093" lon="-2.67438">
        <ele>8</ele>
        <time>2019-10-29T15:04:38Z</time>
      </trkpt>
      <trkpt lat="48.5009" lon="-2.6744">
        <ele>9</ele>
        <time>2019-10-29T15:04:41Z</time>
      </trkpt>
      <trkpt lat="48.50086" lon="-2.67444">
        <ele>9</ele>
        <time>2019-10-29T15:04:45Z</time>
      </trkpt>
      <trkpt lat="48.50083" lon="-2.67448">
        <ele>9</ele>
        <time>2019-10-29T15:04:49Z</time>
      </trkpt>
      <trkpt lat="48.50079" lon="-2.67452">
        <ele>10</ele>
        <time>2019-10-29T15:04:53Z</time>
      </trkpt>
      <trkpt lat="48.50075" lon="-2.67455">
        <ele>10</ele>
        <time>2019-10-29T15:04:56Z</time>
      </trkpt>
      <trkpt lat="48.5007" lon="-2.67459">
        <ele>10</ele>
        <time>2019-10-29T15:05:00Z</time>
      </trkpt>
      <trkpt lat="48.50066" lon="-2.67462">
        <ele>10</ele>
        <time>2019-10-29T15:05:04Z</time>
      </trkpt>
      <trkpt lat="48.50062" lon="-2.67466">
        <ele>10</ele>
        <time>2019-10-29T15:05:08Z</time>
      </trkpt>
      <trkpt lat="48.50058" lon="-2.67469">
        <ele>10</ele>
        <time>2019-10-29T15:05:12Z</time>
      </trkpt>
      <trkpt lat="48.50053" lon="-2.67472">
        <ele>10</ele>
        <time>2019-10-29T15:05:16Z</time>
      </trkpt>
      <trkpt lat="48.5005" lon="-2.67474">
        <ele>11</ele>
        <time>2019-10-29T15:05:19Z</time>
      </trkpt>
      <trkpt lat="48.50046" lon="-2.67475">
        <ele>11</ele>
        <time>2019-10-29T15:05:22Z</time>
      </trkpt>
      <trkpt lat="48.50042" lon="-2.67476">
        <ele>11</ele>
        <time>2019-10-29T15:05:25Z</time>
      </trkpt>
      <trkpt lat="48.50038" lon="-2.67478">
        <ele>11</ele>
        <time>2019-10-29T15:05:29Z</time>
      </trkpt>
      <trkpt lat="48.50034" lon="-2.67478">
        <ele>11</ele>
        <time>2019-10-29T15:05:32Z</time>
      </trkpt>
      <trkpt lat="48.5003" lon="-2.67479">
        <ele>11</ele>
        <time>2019-10-29T15:05:35Z</time>
      </trkpt>
      <trkpt lat="48.50026" lon="-2.67479">
        <ele>12</ele>
        <time>2019-10-29T15:05:38Z</time>
      </trkpt>
      <trkpt lat="48.50023" lon="-2.67479">
        <ele>12</ele>
        <time>2019-10-29T15:05:41Z</time>
      </trkpt>
      <trkpt lat="48.50018" lon="-2.6748">
        <ele>12</ele>
        <time>2019-10-29T15:05:45Z</time>
      </trkpt>
      <trkpt lat="48.50014" lon="-2.67481">
        <ele>12</ele>
        <time>2019-10-29T15:05:49Z</time>
      </trkpt>
      <trkpt lat="48.50011" lon="-2.67482">
        <ele>12</ele>
        <time>2019-10-29T15:05:53Z</time>
      </trkpt>
      <trkpt lat="48.50007" lon="-2.67483">
        <ele>12</ele>
        <time>2019-10-29T15:05:57Z</time>
      </trkpt>
      <trkpt lat="48.50004" lon="-2.67481">
        <ele>12</ele>
        <time>2019-10-29T15:06:00Z</time>
      </trkpt>
      <trkpt lat="48.5" lon="-2.67479">
        <ele>9</ele>
        <time>2019-10-29T15:06:04Z</time>
      </trkpt>
      <trkpt lat="48.49997" lon="-2.67478">
        <ele>6</ele>
        <time>2019-10-29T15:06:07Z</time>
      </trkpt>
      <trkpt lat="48.49994" lon="-2.67478">
        <ele>5</ele>
        <time>2019-10-29T15:06:10Z</time>
      </trkpt>
      <trkpt lat="48.49991" lon="-2.67478">
        <ele>5</ele>
        <time>2019-10-29T15:06:13Z</time>
      </trkpt>
      <trkpt lat="48.49987" lon="-2.67478">
        <ele>4</ele>
        <time>2019-10-29T15:06:17Z</time>
      </trkpt>
      <trkpt lat="48.49983" lon="-2.67477">
        <ele>4</ele>
        <time>2019-10-29T15:06:20Z</time>
      </trkpt>
      <trkpt lat="48.49979" lon="-2.67476">
        <ele>3</ele>
        <time>2019-10-29T15:06:23Z</time>
      </trkpt>
      <trkpt lat="48.49976" lon="-2.67476">
        <ele>3</ele>
        <time>2019-10-29T15:06:26Z</time>
      </trkpt>
      <trkpt lat="48.49971" lon="-2.67477">
        <ele>3</ele>
        <time>2019-10-29T15:06:29Z</time>
      </trkpt>
      <trkpt lat="48.49968" lon="-2.67477">
        <ele>3</ele>
        <time>2019-10-29T15:06:32Z</time>
      </trkpt>
      <trkpt lat="48.49963" lon="-2.67477">
        <ele>3</ele>
        <time>2019-10-29T15:06:36Z</time>
      </trkpt>
      <trkpt lat="48.4996" lon="-2.67478">
        <ele>4</ele>
        <time>2019-10-29T15:06:39Z</time>
      </trkpt>
      <trkpt lat="48.49955" lon="-2.67482">
        <ele>5</ele>
        <time>2019-10-29T15:06:42Z</time>
      </trkpt>
      <trkpt lat="48.49951" lon="-2.67487">
        <ele>5</ele>
        <time>2019-10-29T15:06:46Z</time>
      </trkpt>
      <trkpt lat="48.49948" lon="-2.6749">
        <ele>5</ele>
        <time>2019-10-29T15:06:49Z</time>
      </trkpt>
      <trkpt lat="48.49945" lon="-2.67495">
        <ele>5</ele>
        <time>2019-10-29T15:06:53Z</time>
      </trkpt>
      <trkpt lat="48.49942" lon="-2.67499">
        <ele>5</ele>
        <time>2019-10-29T15:06:57Z</time>
      </trkpt>
      <trkpt lat="48.49938" lon="-2.67503">
        <ele>5</ele>
        <time>2019-10-29T15:07:01Z</time>
      </trkpt>
      <trkpt lat="48.49936" lon="-2.67506">
        <ele>5</ele>
        <time>2019-10-29T15:07:05Z</time>
      </trkpt>
      <trkpt lat="48.49934" lon="-2.67511">
        <ele>5</ele>
        <time>2019-10-29T15:07:08Z</time>
      </trkpt>
      <trkpt lat="48.49931" lon="-2.67517">
        <ele>5</ele>
        <time>2019-10-29T15:07:12Z</time>
      </trkpt>
      <trkpt lat="48.4993" lon="-2.67524">
        <ele>5</ele>
        <time>2019-10-29T15:07:18Z</time>
      </trkpt>
      <trkpt lat="48.49924" lon="-2.6753">
        <ele>5</ele>
        <time>2019-10-29T15:07:21Z</time>
      </trkpt>
      <trkpt lat="48.49922" lon="-2.67535">
        <ele>5</ele>
        <time>2019-10-29T15:07:25Z</time>
      </trkpt>
      <trkpt lat="48.49918" lon="-2.6754">
        <ele>5</ele>
        <time>2019-10-29T15:07:31Z</time>
      </trkpt>
      <trkpt lat="48.49916" lon="-2.67544">
        <ele>5</ele>
        <time>2019-10-29T15:07:34Z</time>
      </trkpt>
      <trkpt lat="48.49913" lon="-2.67546">
        <ele>5</ele>
        <time>2019-10-29T15:07:37Z</time>
      </trkpt>
      <trkpt lat="48.4991" lon="-2.67549">
        <ele>5</ele>
        <time>2019-10-29T15:07:41Z</time>
      </trkpt>
      <trkpt lat="48.49906" lon="-2.67549">
        <ele>5</ele>
        <time>2019-10-29T15:07:45Z</time>
      </trkpt>
      <trkpt lat="48.49902" lon="-2.67545">
        <ele>5</ele>
        <time>2019-10-29T15:07:49Z</time>
      </trkpt>
      <trkpt lat="48.49899" lon="-2.67545">
        <ele>5</ele>
        <time>2019-10-29T15:07:52Z</time>
      </trkpt>
      <trkpt lat="48.49895" lon="-2.67542">
        <ele>5</ele>
        <time>2019-10-29T15:07:56Z</time>
      </trkpt>
      <trkpt lat="48.49892" lon="-2.67538">
        <ele>5</ele>
        <time>2019-10-29T15:08:00Z</time>
      </trkpt>
      <trkpt lat="48.49889" lon="-2.67532">
        <ele>5</ele>
        <time>2019-10-29T15:08:04Z</time>
      </trkpt>
      <trkpt lat="48.49887" lon="-2.67528">
        <ele>5</ele>
        <time>2019-10-29T15:08:07Z</time>
      </trkpt>
      <trkpt lat="48.49884" lon="-2.67523">
        <ele>5</ele>
        <time>2019-10-29T15:08:11Z</time>
      </trkpt>
      <trkpt lat="48.49882" lon="-2.67518">
        <ele>7</ele>
        <time>2019-10-29T15:08:16Z</time>
      </trkpt>
      <trkpt lat="48.49879" lon="-2.67515">
        <ele>9</ele>
        <time>2019-10-29T15:08:20Z</time>
      </trkpt>
      <trkpt lat="48.49877" lon="-2.67511">
        <ele>9</ele>
        <time>2019-10-29T15:08:24Z</time>
      </trkpt>
      <trkpt lat="48.49875" lon="-2.67507">
        <ele>9</ele>
        <time>2019-10-29T15:08:27Z</time>
      </trkpt>
      <trkpt lat="48.49873" lon="-2.67503">
        <ele>10</ele>
        <time>2019-10-29T15:08:31Z</time>
      </trkpt>
      <trkpt lat="48.49871" lon="-2.67499">
        <ele>10</ele>
        <time>2019-10-29T15:08:34Z</time>
      </trkpt>
      <trkpt lat="48.49868" lon="-2.67494">
        <ele>11</ele>
        <time>2019-10-29T15:08:38Z</time>
      </trkpt>
      <trkpt lat="48.49865" lon="-2.67489">
        <ele>13</ele>
        <time>2019-10-29T15:08:42Z</time>
      </trkpt>
      <trkpt lat="48.49862" lon="-2.67485">
        <ele>13</ele>
        <time>2019-10-29T15:08:46Z</time>
      </trkpt>
      <trkpt lat="48.4986" lon="-2.67481">
        <ele>14</ele>
        <time>2019-10-29T15:08:49Z</time>
      </trkpt>
      <trkpt lat="48.49857" lon="-2.67477">
        <ele>14</ele>
        <time>2019-10-29T15:08:53Z</time>
      </trkpt>
      <trkpt lat="48.49855" lon="-2.67473">
        <ele>16</ele>
        <time>2019-10-29T15:08:56Z</time>
      </trkpt>
      <trkpt lat="48.49853" lon="-2.67468">
        <ele>17</ele>
        <time>2019-10-29T15:09:00Z</time>
      </trkpt>
      <trkpt lat="48.4985" lon="-2.67464">
        <ele>18</ele>
        <time>2019-10-29T15:09:03Z</time>
      </trkpt>
      <trkpt lat="48.49848" lon="-2.6746">
        <ele>18</ele>
        <time>2019-10-29T15:09:07Z</time>
      </trkpt>
      <trkpt lat="48.49845" lon="-2.67455">
        <ele>19</ele>
        <time>2019-10-29T15:09:11Z</time>
      </trkpt>
      <trkpt lat="48.49841" lon="-2.67451">
        <ele>19</ele>
        <time>2019-10-29T15:09:15Z</time>
      </trkpt>
      <trkpt lat="48.49839" lon="-2.67448">
        <ele>19</ele>
        <time>2019-10-29T15:09:19Z</time>
      </trkpt>
      <trkpt lat="48.49836" lon="-2.67444">
        <ele>19</ele>
        <time>2019-10-29T15:09:23Z</time>
      </trkpt>
      <trkpt lat="48.49834" lon="-2.67439">
        <ele>19</ele>
        <time>2019-10-29T15:09:26Z</time>
      </trkpt>
      <trkpt lat="48.4983" lon="-2.67435">
        <ele>19</ele>
        <time>2019-10-29T15:09:30Z</time>
      </trkpt>
      <trkpt lat="48.49826" lon="-2.6743">
        <ele>19</ele>
        <time>2019-10-29T15:09:34Z</time>
      </trkpt>
      <trkpt lat="48.49823" lon="-2.67427">
        <ele>19</ele>
        <time>2019-10-29T15:09:37Z</time>
      </trkpt>
      <trkpt lat="48.4982" lon="-2.67423">
        <ele>19</ele>
        <time>2019-10-29T15:09:41Z</time>
      </trkpt>
      <trkpt lat="48.49817" lon="-2.67418">
        <ele>19</ele>
        <time>2019-10-29T15:09:45Z</time>
      </trkpt>
      <trkpt lat="48.49815" lon="-2.67414">
        <ele>19</ele>
        <time>2019-10-29T15:09:48Z</time>
      </trkpt>
      <trkpt lat="48.49812" lon="-2.67412">
        <ele>19</ele>
        <time>2019-10-29T15:09:51Z</time>
      </trkpt>
      <trkpt lat="48.49809" lon="-2.67409">
        <ele>19</ele>
        <time>2019-10-29T15:09:55Z</time>
      </trkpt>
      <trkpt lat="48.49805" lon="-2.67406">
        <ele>19</ele>
        <time>2019-10-29T15:09:59Z</time>
      </trkpt>
      <trkpt lat="48.49802" lon="-2.67403">
        <ele>19</ele>
        <time>2019-10-29T15:10:03Z</time>
      </trkpt>
      <trkpt lat="48.49798" lon="-2.674">
        <ele>19</ele>
        <time>2019-10-29T15:10:06Z</time>
      </trkpt>
      <trkpt lat="48.49794" lon="-2.67394">
        <ele>18</ele>
        <time>2019-10-29T15:10:10Z</time>
      </trkpt>
      <trkpt lat="48.49792" lon="-2.67388">
        <ele>18</ele>
        <time>2019-10-29T15:10:14Z</time>
      </trkpt>
      <trkpt lat="48.49791" lon="-2.67383">
        <ele>18</ele>
        <time>2019-10-29T15:10:18Z</time>
      </trkpt>
      <trkpt lat="48.49791" lon="-2.67377">
        <ele>18</ele>
        <time>2019-10-29T15:10:22Z</time>
      </trkpt>
      <trkpt lat="48.49791" lon="-2.67371">
        <ele>20</ele>
        <time>2019-10-29T15:10:26Z</time>
      </trkpt>
      <trkpt lat="48.49791" lon="-2.67366">
        <ele>21</ele>
        <time>2019-10-29T15:10:29Z</time>
      </trkpt>
      <trkpt lat="48.49791" lon="-2.6736">
        <ele>22</ele>
        <time>2019-10-29T15:10:32Z</time>
      </trkpt>
      <trkpt lat="48.49791" lon="-2.67354">
        <ele>22</ele>
        <time>2019-10-29T15:10:35Z</time>
      </trkpt>
      <trkpt lat="48.49791" lon="-2.67349">
        <ele>22</ele>
        <time>2019-10-29T15:10:38Z</time>
      </trkpt>
      <trkpt lat="48.49791" lon="-2.67345">
        <ele>22</ele>
        <time>2019-10-29T15:10:41Z</time>
      </trkpt>
      <trkpt lat="48.49791" lon="-2.67339">
        <ele>22</ele>
        <time>2019-10-29T15:10:44Z</time>
      </trkpt>
      <trkpt lat="48.49792" lon="-2.67334">
        <ele>22</ele>
        <time>2019-10-29T15:10:47Z</time>
      </trkpt>
      <trkpt lat="48.49792" lon="-2.67329">
        <ele>22</ele>
        <time>2019-10-29T15:10:50Z</time>
      </trkpt>
      <trkpt lat="48.49792" lon="-2.67322">
        <ele>22</ele>
        <time>2019-10-29T15:10:54Z</time>
      </trkpt>
      <trkpt lat="48.49793" lon="-2.67316">
        <ele>22</ele>
        <time>2019-10-29T15:10:58Z</time>
      </trkpt>
      <trkpt lat="48.49793" lon="-2.6731">
        <ele>22</ele>
        <time>2019-10-29T15:11:02Z</time>
      </trkpt>
      <trkpt lat="48.49793" lon="-2.67305">
        <ele>22</ele>
        <time>2019-10-29T15:11:05Z</time>
      </trkpt>
      <trkpt lat="48.49793" lon="-2.67301">
        <ele>22</ele>
        <time>2019-10-29T15:11:08Z</time>
      </trkpt>
      <trkpt lat="48.49792" lon="-2.67296">
        <ele>22</ele>
        <time>2019-10-29T15:11:11Z</time>
      </trkpt>
      <trkpt lat="48.49791" lon="-2.67289">
        <ele>22</ele>
        <time>2019-10-29T15:11:15Z</time>
      </trkpt>
      <trkpt lat="48.4979" lon="-2.67285">
        <ele>22</ele>
        <time>2019-10-29T15:11:18Z</time>
      </trkpt>
      <trkpt lat="48.49789" lon="-2.6728">
        <ele>22</ele>
        <time>2019-10-29T15:11:21Z</time>
      </trkpt>
      <trkpt lat="48.49788" lon="-2.67274">
        <ele>22</ele>
        <time>2019-10-29T15:11:25Z</time>
      </trkpt>
      <trkpt lat="48.49786" lon="-2.6727">
        <ele>22</ele>
        <time>2019-10-29T15:11:28Z</time>
      </trkpt>
      <trkpt lat="48.49784" lon="-2.67264">
        <ele>22</ele>
        <time>2019-10-29T15:11:34Z</time>
      </trkpt>
      <trkpt lat="48.49782" lon="-2.67261">
        <ele>22</ele>
        <time>2019-10-29T15:11:37Z</time>
      </trkpt>
      <trkpt lat="48.49779" lon="-2.67255">
        <ele>22</ele>
        <time>2019-10-29T15:11:41Z</time>
      </trkpt>
      <trkpt lat="48.49775" lon="-2.67251">
        <ele>22</ele>
        <time>2019-10-29T15:11:45Z</time>
      </trkpt>
      <trkpt lat="48.49772" lon="-2.67247">
        <ele>22</ele>
        <time>2019-10-29T15:11:49Z</time>
      </trkpt>
      <trkpt lat="48.49769" lon="-2.67241">
        <ele>21</ele>
        <time>2019-10-29T15:11:53Z</time>
      </trkpt>
      <trkpt lat="48.49766" lon="-2.67234">
        <ele>21</ele>
        <time>2019-10-29T15:11:57Z</time>
      </trkpt>
      <trkpt lat="48.49763" lon="-2.67228">
        <ele>21</ele>
        <time>2019-10-29T15:12:00Z</time>
      </trkpt>
      <trkpt lat="48.49761" lon="-2.67222">
        <ele>21</ele>
        <time>2019-10-29T15:12:03Z</time>
      </trkpt>
      <trkpt lat="48.49758" lon="-2.67218">
        <ele>21</ele>
        <time>2019-10-29T15:12:06Z</time>
      </trkpt>
      <trkpt lat="48.49756" lon="-2.67214">
        <ele>21</ele>
        <time>2019-10-29T15:12:09Z</time>
      </trkpt>
      <trkpt lat="48.49754" lon="-2.6721">
        <ele>21</ele>
        <time>2019-10-29T15:12:13Z</time>
      </trkpt>
      <trkpt lat="48.49752" lon="-2.67205">
        <ele>21</ele>
        <time>2019-10-29T15:12:16Z</time>
      </trkpt>
      <trkpt lat="48.49749" lon="-2.67201">
        <ele>21</ele>
        <time>2019-10-29T15:12:20Z</time>
      </trkpt>
      <trkpt lat="48.49746" lon="-2.67196">
        <ele>21</ele>
        <time>2019-10-29T15:12:24Z</time>
      </trkpt>
      <trkpt lat="48.49744" lon="-2.67191">
        <ele>21</ele>
        <time>2019-10-29T15:12:28Z</time>
      </trkpt>
      <trkpt lat="48.49742" lon="-2.67186">
        <ele>21</ele>
        <time>2019-10-29T15:12:31Z</time>
      </trkpt>
      <trkpt lat="48.4974" lon="-2.67183">
        <ele>21</ele>
        <time>2019-10-29T15:12:34Z</time>
      </trkpt>
      <trkpt lat="48.49738" lon="-2.67176">
        <ele>21</ele>
        <time>2019-10-29T15:12:37Z</time>
      </trkpt>
      <trkpt lat="48.49736" lon="-2.67171">
        <ele>21</ele>
        <time>2019-10-29T15:12:40Z</time>
      </trkpt>
      <trkpt lat="48.49735" lon="-2.67167">
        <ele>21</ele>
        <time>2019-10-29T15:12:43Z</time>
      </trkpt>
      <trkpt lat="48.49735" lon="-2.67162">
        <ele>21</ele>
        <time>2019-10-29T15:12:46Z</time>
      </trkpt>
      <trkpt lat="48.49736" lon="-2.67155">
        <ele>21</ele>
        <time>2019-10-29T15:12:50Z</time>
      </trkpt>
      <trkpt lat="48.49737" lon="-2.67149">
        <ele>21</ele>
        <time>2019-10-29T15:12:53Z</time>
      </trkpt>
      <trkpt lat="48.49738" lon="-2.67142">
        <ele>21</ele>
        <time>2019-10-29T15:12:57Z</time>
      </trkpt>
      <trkpt lat="48.49739" lon="-2.67137">
        <ele>21</ele>
        <time>2019-10-29T15:13:00Z</time>
      </trkpt>
      <trkpt lat="48.4974" lon="-2.6713">
        <ele>21</ele>
        <time>2019-10-29T15:13:04Z</time>
      </trkpt>
      <trkpt lat="48.49742" lon="-2.67123">
        <ele>21</ele>
        <time>2019-10-29T15:13:08Z</time>
      </trkpt>
      <trkpt lat="48.49744" lon="-2.67118">
        <ele>21</ele>
        <time>2019-10-29T15:13:12Z</time>
      </trkpt>
      <trkpt lat="48.49745" lon="-2.67112">
        <ele>21</ele>
        <time>2019-10-29T15:13:16Z</time>
      </trkpt>
      <trkpt lat="48.49747" lon="-2.67107">
        <ele>21</ele>
        <time>2019-10-29T15:13:20Z</time>
      </trkpt>
      <trkpt lat="48.49749" lon="-2.67102">
        <ele>21</ele>
        <time>2019-10-29T15:13:23Z</time>
      </trkpt>
      <trkpt lat="48.4975" lon="-2.67097">
        <ele>21</ele>
        <time>2019-10-29T15:13:27Z</time>
      </trkpt>
      <trkpt lat="48.49751" lon="-2.67091">
        <ele>21</ele>
        <time>2019-10-29T15:13:30Z</time>
      </trkpt>
      <trkpt lat="48.49752" lon="-2.67086">
        <ele>20</ele>
        <time>2019-10-29T15:13:33Z</time>
      </trkpt>
      <trkpt lat="48.49754" lon="-2.6708">
        <ele>20</ele>
        <time>2019-10-29T15:13:37Z</time>
      </trkpt>
      <trkpt lat="48.49755" lon="-2.67074">
        <ele>19</ele>
        <time>2019-10-29T15:13:41Z</time>
      </trkpt>
      <trkpt lat="48.49756" lon="-2.67069">
        <ele>19</ele>
        <time>2019-10-29T15:13:44Z</time>
      </trkpt>
      <trkpt lat="48.49756" lon="-2.67064">
        <ele>18</ele>
        <time>2019-10-29T15:13:47Z</time>
      </trkpt>
      <trkpt lat="48.49757" lon="-2.67058">
        <ele>18</ele>
        <time>2019-10-29T15:13:50Z</time>
      </trkpt>
      <trkpt lat="48.49756" lon="-2.67053">
        <ele>17</ele>
        <time>2019-10-29T15:13:53Z</time>
      </trkpt>
      <trkpt lat="48.49755" lon="-2.67049">
        <ele>16</ele>
        <time>2019-10-29T15:13:56Z</time>
      </trkpt>
      <trkpt lat="48.49752" lon="-2.67046">
        <ele>16</ele>
        <time>2019-10-29T15:14:00Z</time>
      </trkpt>
      <trkpt lat="48.49748" lon="-2.67043">
        <ele>15</ele>
        <time>2019-10-29T15:14:04Z</time>
      </trkpt>
      <trkpt lat="48.49744" lon="-2.67043">
        <ele>15</ele>
        <time>2019-10-29T15:14:08Z</time>
      </trkpt>
      <trkpt lat="48.49741" lon="-2.67044">
        <ele>15</ele>
        <time>2019-10-29T15:14:11Z</time>
      </trkpt>
      <trkpt lat="48.49737" lon="-2.67044">
        <ele>15</ele>
        <time>2019-10-29T15:14:15Z</time>
      </trkpt>
      <trkpt lat="48.49733" lon="-2.67044">
        <ele>15</ele>
        <time>2019-10-29T15:14:18Z</time>
      </trkpt>
      <trkpt lat="48.49729" lon="-2.67045">
        <ele>15</ele>
        <time>2019-10-29T15:14:22Z</time>
      </trkpt>
      <trkpt lat="48.49725" lon="-2.67045">
        <ele>15</ele>
        <time>2019-10-29T15:14:25Z</time>
      </trkpt>
      <trkpt lat="48.49722" lon="-2.67045">
        <ele>15</ele>
        <time>2019-10-29T15:14:28Z</time>
      </trkpt>
      <trkpt lat="48.49719" lon="-2.67045">
        <ele>15</ele>
        <time>2019-10-29T15:14:31Z</time>
      </trkpt>
      <trkpt lat="48.49714" lon="-2.67044">
        <ele>15</ele>
        <time>2019-10-29T15:14:35Z</time>
      </trkpt>
      <trkpt lat="48.49711" lon="-2.67043">
        <ele>15</ele>
        <time>2019-10-29T15:14:38Z</time>
      </trkpt>
      <trkpt lat="48.49707" lon="-2.6704">
        <ele>15</ele>
        <time>2019-10-29T15:14:42Z</time>
      </trkpt>
      <trkpt lat="48.49703" lon="-2.67035">
        <ele>15</ele>
        <time>2019-10-29T15:14:46Z</time>
      </trkpt>
      <trkpt lat="48.49701" lon="-2.6703">
        <ele>15</ele>
        <time>2019-10-29T15:14:49Z</time>
      </trkpt>
      <trkpt lat="48.49698" lon="-2.67025">
        <ele>15</ele>
        <time>2019-10-29T15:14:53Z</time>
      </trkpt>
      <trkpt lat="48.49697" lon="-2.67019">
        <ele>15</ele>
        <time>2019-10-29T15:14:56Z</time>
      </trkpt>
      <trkpt lat="48.49696" lon="-2.67014">
        <ele>15</ele>
        <time>2019-10-29T15:14:59Z</time>
      </trkpt>
      <trkpt lat="48.49696" lon="-2.67009">
        <ele>15</ele>
        <time>2019-10-29T15:15:02Z</time>
      </trkpt>
      <trkpt lat="48.49695" lon="-2.67004">
        <ele>16</ele>
        <time>2019-10-29T15:15:05Z</time>
      </trkpt>
      <trkpt lat="48.49694" lon="-2.67">
        <ele>16</ele>
        <time>2019-10-29T15:15:08Z</time>
      </trkpt>
      <trkpt lat="48.49691" lon="-2.66994">
        <ele>17</ele>
        <time>2019-10-29T15:15:12Z</time>
      </trkpt>
      <trkpt lat="48.49688" lon="-2.66991">
        <ele>17</ele>
        <time>2019-10-29T15:15:16Z</time>
      </trkpt>
      <trkpt lat="48.49684" lon="-2.66989">
        <ele>18</ele>
        <time>2019-10-29T15:15:20Z</time>
      </trkpt>
      <trkpt lat="48.4968" lon="-2.66987">
        <ele>18</ele>
        <time>2019-10-29T15:15:23Z</time>
      </trkpt>
      <trkpt lat="48.49675" lon="-2.66985">
        <ele>18</ele>
        <time>2019-10-29T15:15:27Z</time>
      </trkpt>
      <trkpt lat="48.49672" lon="-2.66985">
        <ele>18</ele>
        <time>2019-10-29T15:15:30Z</time>
      </trkpt>
      <trkpt lat="48.49668" lon="-2.66984">
        <ele>18</ele>
        <time>2019-10-29T15:15:33Z</time>
      </trkpt>
      <trkpt lat="48.49665" lon="-2.66984">
        <ele>18</ele>
        <time>2019-10-29T15:15:36Z</time>
      </trkpt>
      <trkpt lat="48.49661" lon="-2.66984">
        <ele>18</ele>
        <time>2019-10-29T15:15:39Z</time>
      </trkpt>
      <trkpt lat="48.49658" lon="-2.66983">
        <ele>18</ele>
        <time>2019-10-29T15:15:42Z</time>
      </trkpt>
      <trkpt lat="48.49654" lon="-2.66983">
        <ele>18</ele>
        <time>2019-10-29T15:15:45Z</time>
      </trkpt>
      <trkpt lat="48.49651" lon="-2.66984">
        <ele>18</ele>
        <time>2019-10-29T15:15:48Z</time>
      </trkpt>
      <trkpt lat="48.49647" lon="-2.66984">
        <ele>18</ele>
        <time>2019-10-29T15:15:51Z</time>
      </trkpt>
      <trkpt lat="48.49644" lon="-2.66984">
        <ele>18</ele>
        <time>2019-10-29T15:15:54Z</time>
      </trkpt>
      <trkpt lat="48.4964" lon="-2.66985">
        <ele>18</ele>
        <time>2019-10-29T15:15:58Z</time>
      </trkpt>
      <trkpt lat="48.49635" lon="-2.66984">
        <ele>18</ele>
        <time>2019-10-29T15:16:02Z</time>
      </trkpt>
      <trkpt lat="48.49631" lon="-2.66985">
        <ele>18</ele>
        <time>2019-10-29T15:16:05Z</time>
      </trkpt>
      <trkpt lat="48.49628" lon="-2.66985">
        <ele>18</ele>
        <time>2019-10-29T15:16:08Z</time>
      </trkpt>
      <trkpt lat="48.49623" lon="-2.66984">
        <ele>18</ele>
        <time>2019-10-29T15:16:12Z</time>
      </trkpt>
      <trkpt lat="48.4962" lon="-2.66983">
        <ele>18</ele>
        <time>2019-10-29T15:16:15Z</time>
      </trkpt>
      <trkpt lat="48.49617" lon="-2.66982">
        <ele>18</ele>
        <time>2019-10-29T15:16:18Z</time>
      </trkpt>
      <trkpt lat="48.49613" lon="-2.66982">
        <ele>18</ele>
        <time>2019-10-29T15:16:21Z</time>
      </trkpt>
      <trkpt lat="48.4961" lon="-2.66982">
        <ele>18</ele>
        <time>2019-10-29T15:16:24Z</time>
      </trkpt>
      <trkpt lat="48.49606" lon="-2.66981">
        <ele>18</ele>
        <time>2019-10-29T15:16:27Z</time>
      </trkpt>
      <trkpt lat="48.49603" lon="-2.66982">
        <ele>18</ele>
        <time>2019-10-29T15:16:30Z</time>
      </trkpt>
      <trkpt lat="48.49599" lon="-2.66981">
        <ele>18</ele>
        <time>2019-10-29T15:16:33Z</time>
      </trkpt>
      <trkpt lat="48.49596" lon="-2.66981">
        <ele>18</ele>
        <time>2019-10-29T15:16:36Z</time>
      </trkpt>
      <trkpt lat="48.49592" lon="-2.66981">
        <ele>18</ele>
        <time>2019-10-29T15:16:39Z</time>
      </trkpt>
      <trkpt lat="48.49588" lon="-2.66982">
        <ele>18</ele>
        <time>2019-10-29T15:16:42Z</time>
      </trkpt>
      <trkpt lat="48.49585" lon="-2.66982">
        <ele>18</ele>
        <time>2019-10-29T15:16:45Z</time>
      </trkpt>
      <trkpt lat="48.49581" lon="-2.66982">
        <ele>18</ele>
        <time>2019-10-29T15:16:48Z</time>
      </trkpt>
      <trkpt lat="48.49577" lon="-2.66981">
        <ele>18</ele>
        <time>2019-10-29T15:16:51Z</time>
      </trkpt>
      <trkpt lat="48.49573" lon="-2.66982">
        <ele>18</ele>
        <time>2019-10-29T15:16:54Z</time>
      </trkpt>
      <trkpt lat="48.49569" lon="-2.66981">
        <ele>18</ele>
        <time>2019-10-29T15:16:57Z</time>
      </trkpt>
      <trkpt lat="48.49565" lon="-2.66981">
        <ele>18</ele>
        <time>2019-10-29T15:17:00Z</time>
      </trkpt>
      <trkpt lat="48.49562" lon="-2.66982">
        <ele>18</ele>
        <time>2019-10-29T15:17:03Z</time>
      </trkpt>
      <trkpt lat="48.49558" lon="-2.66982">
        <ele>18</ele>
        <time>2019-10-29T15:17:06Z</time>
      </trkpt>
      <trkpt lat="48.49555" lon="-2.66982">
        <ele>18</ele>
        <time>2019-10-29T15:17:09Z</time>
      </trkpt>
      <trkpt lat="48.49551" lon="-2.66983">
        <ele>18</ele>
        <time>2019-10-29T15:17:12Z</time>
      </trkpt>
      <trkpt lat="48.49547" lon="-2.66983">
        <ele>17</ele>
        <time>2019-10-29T15:17:15Z</time>
      </trkpt>
      <trkpt lat="48.49543" lon="-2.66983">
        <ele>17</ele>
        <time>2019-10-29T15:17:18Z</time>
      </trkpt>
      <trkpt lat="48.49538" lon="-2.66983">
        <ele>17</ele>
        <time>2019-10-29T15:17:22Z</time>
      </trkpt>
      <trkpt lat="48.49535" lon="-2.66984">
        <ele>16</ele>
        <time>2019-10-29T15:17:25Z</time>
      </trkpt>
      <trkpt lat="48.49531" lon="-2.66984">
        <ele>16</ele>
        <time>2019-10-29T15:17:28Z</time>
      </trkpt>
      <trkpt lat="48.49527" lon="-2.66984">
        <ele>16</ele>
        <time>2019-10-29T15:17:31Z</time>
      </trkpt>
      <trkpt lat="48.49524" lon="-2.66985">
        <ele>15</ele>
        <time>2019-10-29T15:17:34Z</time>
      </trkpt>
      <trkpt lat="48.4952" lon="-2.66985">
        <ele>14</ele>
        <time>2019-10-29T15:17:37Z</time>
      </trkpt>
      <trkpt lat="48.49517" lon="-2.66983">
        <ele>14</ele>
        <time>2019-10-29T15:17:40Z</time>
      </trkpt>
      <trkpt lat="48.49512" lon="-2.66981">
        <ele>13</ele>
        <time>2019-10-29T15:17:44Z</time>
      </trkpt>
      <trkpt lat="48.49509" lon="-2.66981">
        <ele>13</ele>
        <time>2019-10-29T15:17:47Z</time>
      </trkpt>
      <trkpt lat="48.49504" lon="-2.6698">
        <ele>12</ele>
        <time>2019-10-29T15:17:51Z</time>
      </trkpt>
      <trkpt lat="48.495" lon="-2.6698">
        <ele>12</ele>
        <time>2019-10-29T15:17:55Z</time>
      </trkpt>
      <trkpt lat="48.49497" lon="-2.6698">
        <ele>12</ele>
        <time>2019-10-29T15:17:58Z</time>
      </trkpt>
      <trkpt lat="48.49494" lon="-2.66979">
        <ele>12</ele>
        <time>2019-10-29T15:18:01Z</time>
      </trkpt>
      <trkpt lat="48.4949" lon="-2.66979">
        <ele>12</ele>
        <time>2019-10-29T15:18:04Z</time>
      </trkpt>
      <trkpt lat="48.49487" lon="-2.66979">
        <ele>12</ele>
        <time>2019-10-29T15:18:07Z</time>
      </trkpt>
      <trkpt lat="48.49483" lon="-2.66979">
        <ele>12</ele>
        <time>2019-10-29T15:18:10Z</time>
      </trkpt>
      <trkpt lat="48.49479" lon="-2.6698">
        <ele>12</ele>
        <time>2019-10-29T15:18:13Z</time>
      </trkpt>
      <trkpt lat="48.49475" lon="-2.6698">
        <ele>12</ele>
        <time>2019-10-29T15:18:16Z</time>
      </trkpt>
      <trkpt lat="48.49472" lon="-2.6698">
        <ele>12</ele>
        <time>2019-10-29T15:18:19Z</time>
      </trkpt>
      <trkpt lat="48.49468" lon="-2.6698">
        <ele>12</ele>
        <time>2019-10-29T15:18:22Z</time>
      </trkpt>
      <trkpt lat="48.49464" lon="-2.66981">
        <ele>12</ele>
        <time>2019-10-29T15:18:25Z</time>
      </trkpt>
      <trkpt lat="48.4946" lon="-2.66981">
        <ele>12</ele>
        <time>2019-10-29T15:18:29Z</time>
      </trkpt>
      <trkpt lat="48.49457" lon="-2.66981">
        <ele>12</ele>
        <time>2019-10-29T15:18:32Z</time>
      </trkpt>
      <trkpt lat="48.49453" lon="-2.66983">
        <ele>12</ele>
        <time>2019-10-29T15:18:35Z</time>
      </trkpt>
      <trkpt lat="48.49448" lon="-2.66985">
        <ele>12</ele>
        <time>2019-10-29T15:18:39Z</time>
      </trkpt>
      <trkpt lat="48.49445" lon="-2.66986">
        <ele>12</ele>
        <time>2019-10-29T15:18:42Z</time>
      </trkpt>
      <trkpt lat="48.49442" lon="-2.66987">
        <ele>11</ele>
        <time>2019-10-29T15:18:45Z</time>
      </trkpt>
      <trkpt lat="48.49438" lon="-2.66989">
        <ele>9</ele>
        <time>2019-10-29T15:18:49Z</time>
      </trkpt>
      <trkpt lat="48.49435" lon="-2.66992">
        <ele>9</ele>
        <time>2019-10-29T15:18:52Z</time>
      </trkpt>
      <trkpt lat="48.49431" lon="-2.66995">
        <ele>8</ele>
        <time>2019-10-29T15:18:55Z</time>
      </trkpt>
      <trkpt lat="48.49428" lon="-2.66998">
        <ele>8</ele>
        <time>2019-10-29T15:18:58Z</time>
      </trkpt>
      <trkpt lat="48.49424" lon="-2.67002">
        <ele>8</ele>
        <time>2019-10-29T15:19:02Z</time>
      </trkpt>
      <trkpt lat="48.49421" lon="-2.67006">
        <ele>8</ele>
        <time>2019-10-29T15:19:06Z</time>
      </trkpt>
      <trkpt lat="48.49417" lon="-2.67011">
        <ele>8</ele>
        <time>2019-10-29T15:19:10Z</time>
      </trkpt>
      <trkpt lat="48.49414" lon="-2.67015">
        <ele>8</ele>
        <time>2019-10-29T15:19:13Z</time>
      </trkpt>
      <trkpt lat="48.4941" lon="-2.6702">
        <ele>8</ele>
        <time>2019-10-29T15:19:17Z</time>
      </trkpt>
      <trkpt lat="48.49406" lon="-2.67025">
        <ele>8</ele>
        <time>2019-10-29T15:19:21Z</time>
      </trkpt>
      <trkpt lat="48.49402" lon="-2.6703">
        <ele>8</ele>
        <time>2019-10-29T15:19:25Z</time>
      </trkpt>
      <trkpt lat="48.49399" lon="-2.67033">
        <ele>8</ele>
        <time>2019-10-29T15:19:28Z</time>
      </trkpt>
      <trkpt lat="48.49395" lon="-2.67037">
        <ele>8</ele>
        <time>2019-10-29T15:19:32Z</time>
      </trkpt>
      <trkpt lat="48.49391" lon="-2.6704">
        <ele>8</ele>
        <time>2019-10-29T15:19:36Z</time>
      </trkpt>
      <trkpt lat="48.49388" lon="-2.67043">
        <ele>8</ele>
        <time>2019-10-29T15:19:39Z</time>
      </trkpt>
      <trkpt lat="48.49384" lon="-2.67046">
        <ele>8</ele>
        <time>2019-10-29T15:19:43Z</time>
      </trkpt>
      <trkpt lat="48.49381" lon="-2.67048">
        <ele>8</ele>
        <time>2019-10-29T15:19:46Z</time>
      </trkpt>
      <trkpt lat="48.49377" lon="-2.6705">
        <ele>8</ele>
        <time>2019-10-29T15:19:49Z</time>
      </trkpt>
      <trkpt lat="48.49374" lon="-2.67051">
        <ele>8</ele>
        <time>2019-10-29T15:19:52Z</time>
      </trkpt>
      <trkpt lat="48.49369" lon="-2.67054">
        <ele>7</ele>
        <time>2019-10-29T15:19:56Z</time>
      </trkpt>
      <trkpt lat="48.49366" lon="-2.67055">
        <ele>5</ele>
        <time>2019-10-29T15:19:59Z</time>
      </trkpt>
      <trkpt lat="48.49362" lon="-2.67057">
        <ele>4</ele>
        <time>2019-10-29T15:20:03Z</time>
      </trkpt>
      <trkpt lat="48.49358" lon="-2.67058">
        <ele>4</ele>
        <time>2019-10-29T15:20:07Z</time>
      </trkpt>
      <trkpt lat="48.49354" lon="-2.6706">
        <ele>4</ele>
        <time>2019-10-29T15:20:11Z</time>
      </trkpt>
      <trkpt lat="48.49351" lon="-2.67059">
        <ele>4</ele>
        <time>2019-10-29T15:20:14Z</time>
      </trkpt>
      <trkpt lat="48.49347" lon="-2.67058">
        <ele>3</ele>
        <time>2019-10-29T15:20:18Z</time>
      </trkpt>
      <trkpt lat="48.49343" lon="-2.67057">
        <ele>1</ele>
        <time>2019-10-29T15:20:22Z</time>
      </trkpt>
      <trkpt lat="48.49339" lon="-2.67057">
        <ele>9.4</ele>
        <time>2019-10-29T15:20:26Z</time>
      </trkpt>
      <trkpt lat="48.49336" lon="-2.67056">
        <ele>9.2</ele>
        <time>2019-10-29T15:20:29Z</time>
      </trkpt>
      <trkpt lat="48.49332" lon="-2.67056">
        <ele>9</ele>
        <time>2019-10-29T15:20:32Z</time>
      </trkpt>
      <trkpt lat="48.49329" lon="-2.67057">
        <ele>8.8</ele>
        <time>2019-10-29T15:20:35Z</time>
      </trkpt>
      <trkpt lat="48.49325" lon="-2.67059">
        <ele>8.7</ele>
        <time>2019-10-29T15:20:38Z</time>
      </trkpt>
      <trkpt lat="48.49321" lon="-2.6706">
        <ele>8.5</ele>
        <time>2019-10-29T15:20:42Z</time>
      </trkpt>
      <trkpt lat="48.49317" lon="-2.67061">
        <ele>8.4</ele>
        <time>2019-10-29T15:20:45Z</time>
      </trkpt>
      <trkpt lat="48.49314" lon="-2.67061">
        <ele>8.3</ele>
        <time>2019-10-29T15:20:48Z</time>
      </trkpt>
      <trkpt lat="48.4931" lon="-2.67062">
        <ele>8.2</ele>
        <time>2019-10-29T15:20:52Z</time>
      </trkpt>
      <trkpt lat="48.49306" lon="-2.67062">
        <ele>8</ele>
        <time>2019-10-29T15:20:56Z</time>
      </trkpt>
      <trkpt lat="48.49303" lon="-2.67063">
        <ele>7.9</ele>
        <time>2019-10-29T15:20:59Z</time>
      </trkpt>
      <trkpt lat="48.49299" lon="-2.67066">
        <ele>7.8</ele>
        <time>2019-10-29T15:21:02Z</time>
      </trkpt>
      <trkpt lat="48.49295" lon="-2.67068">
        <ele>7.8</ele>
        <time>2019-10-29T15:21:05Z</time>
      </trkpt>
      <trkpt lat="48.49291" lon="-2.6707">
        <ele>7.7</ele>
        <time>2019-10-29T15:21:08Z</time>
      </trkpt>
      <trkpt lat="48.49288" lon="-2.67073">
        <ele>-1</ele>
        <time>2019-10-29T15:21:11Z</time>
      </trkpt>
      <trkpt lat="48.49284" lon="-2.67076">
        <ele>-1</ele>
        <time>2019-10-29T15:21:14Z</time>
      </trkpt>
      <trkpt lat="48.49281" lon="-2.67078">
        <ele>-1</ele>
        <time>2019-10-29T15:21:17Z</time>
      </trkpt>
      <trkpt lat="48.49278" lon="-2.67079">
        <ele>-1</ele>
        <time>2019-10-29T15:21:20Z</time>
      </trkpt>
      <trkpt lat="48.49274" lon="-2.67079">
        <ele>-1</ele>
        <time>2019-10-29T15:21:23Z</time>
      </trkpt>
      <trkpt lat="48.49271" lon="-2.6708">
        <ele>-1</ele>
        <time>2019-10-29T15:21:26Z</time>
      </trkpt>
      <trkpt lat="48.49268" lon="-2.6708">
        <ele>-1</ele>
        <time>2019-10-29T15:21:29Z</time>
      </trkpt>
      <trkpt lat="48.49264" lon="-2.6708">
        <ele>-1</ele>
        <time>2019-10-29T15:21:33Z</time>
      </trkpt>
      <trkpt lat="48.4926" lon="-2.67079">
        <ele>-1</ele>
        <time>2019-10-29T15:21:37Z</time>
      </trkpt>
      <trkpt lat="48.49257" lon="-2.67078">
        <ele>-1</ele>
        <time>2019-10-29T15:21:41Z</time>
      </trkpt>
      <trkpt lat="48.49254" lon="-2.67079">
        <ele>-1</ele>
        <time>2019-10-29T15:21:45Z</time>
      </trkpt>
      <trkpt lat="48.49251" lon="-2.6708">
        <ele>-1</ele>
        <time>2019-10-29T15:21:48Z</time>
      </trkpt>
      <trkpt lat="48.49248" lon="-2.67078">
        <ele>-1</ele>
        <time>2019-10-29T15:21:51Z</time>
      </trkpt>
      <trkpt lat="48.49245" lon="-2.67077">
        <ele>-1</ele>
        <time>2019-10-29T15:21:54Z</time>
      </trkpt>
      <trkpt lat="48.49241" lon="-2.67077">
        <ele>-1</ele>
        <time>2019-10-29T15:21:58Z</time>
      </trkpt>
      <trkpt lat="48.49237" lon="-2.67076">
        <ele>-1</ele>
        <time>2019-10-29T15:22:01Z</time>
      </trkpt>
      <trkpt lat="48.49233" lon="-2.67076">
        <ele>-1</ele>
        <time>2019-10-29T15:22:05Z</time>
      </trkpt>
      <trkpt lat="48.49229" lon="-2.67075">
        <ele>-1</ele>
        <time>2019-10-29T15:22:09Z</time>
      </trkpt>
      <trkpt lat="48.49225" lon="-2.67074">
        <ele>-1</ele>
        <time>2019-10-29T15:22:13Z</time>
      </trkpt>
      <trkpt lat="48.49222" lon="-2.67073">
        <ele>-1</ele>
        <time>2019-10-29T15:22:17Z</time>
      </trkpt>
      <trkpt lat="48.49218" lon="-2.67071">
        <ele>-1</ele>
        <time>2019-10-29T15:22:21Z</time>
      </trkpt>
      <trkpt lat="48.49215" lon="-2.67072">
        <ele>-1</ele>
        <time>2019-10-29T15:22:24Z</time>
      </trkpt>
      <trkpt lat="48.49212" lon="-2.67072">
        <ele>6.8</ele>
        <time>2019-10-29T15:22:27Z</time>
      </trkpt>
      <trkpt lat="48.49207" lon="-2.6707">
        <ele>6.7</ele>
        <time>2019-10-29T15:22:31Z</time>
      </trkpt>
      <trkpt lat="48.49204" lon="-2.67068">
        <ele>6.6</ele>
        <time>2019-10-29T15:22:34Z</time>
      </trkpt>
      <trkpt lat="48.492" lon="-2.67066">
        <ele>6.4</ele>
        <time>2019-10-29T15:22:38Z</time>
      </trkpt>
      <trkpt lat="48.49196" lon="-2.67064">
        <ele>6.1</ele>
        <time>2019-10-29T15:22:42Z</time>
      </trkpt>
      <trkpt lat="48.49192" lon="-2.67061">
        <ele>6</ele>
        <time>2019-10-29T15:22:46Z</time>
      </trkpt>
      <trkpt lat="48.49189" lon="-2.67059">
        <ele>6</ele>
        <time>2019-10-29T15:22:49Z</time>
      </trkpt>
      <trkpt lat="48.49184" lon="-2.67055">
        <ele>6</ele>
        <time>2019-10-29T15:22:53Z</time>
      </trkpt>
      <trkpt lat="48.49181" lon="-2.6705">
        <ele>6.1</ele>
        <time>2019-10-29T15:22:57Z</time>
      </trkpt>
      <trkpt lat="48.49178" lon="-2.67046">
        <ele>6.1</ele>
        <time>2019-10-29T15:23:01Z</time>
      </trkpt>
      <trkpt lat="48.49174" lon="-2.67044">
        <ele>6.1</ele>
        <time>2019-10-29T15:23:05Z</time>
      </trkpt>
      <trkpt lat="48.4917" lon="-2.67041">
        <ele>6.1</ele>
        <time>2019-10-29T15:23:09Z</time>
      </trkpt>
      <trkpt lat="48.49166" lon="-2.67039">
        <ele>6</ele>
        <time>2019-10-29T15:23:13Z</time>
      </trkpt>
      <trkpt lat="48.49163" lon="-2.67036">
        <ele>6.1</ele>
        <time>2019-10-29T15:23:17Z</time>
      </trkpt>
      <trkpt lat="48.49161" lon="-2.67035">
        <ele>6.2</ele>
        <time>2019-10-29T15:23:21Z</time>
      </trkpt>
      <trkpt lat="48.49157" lon="-2.67032">
        <ele>6.3</ele>
        <time>2019-10-29T15:23:25Z</time>
      </trkpt>
      <trkpt lat="48.49154" lon="-2.67033">
        <ele>6.4</ele>
        <time>2019-10-29T15:23:29Z</time>
      </trkpt>
      <trkpt lat="48.49152" lon="-2.67035">
        <ele>6.4</ele>
        <time>2019-10-29T15:23:32Z</time>
      </trkpt>
      <trkpt lat="48.49151" lon="-2.6704">
        <ele>6.3</ele>
        <time>2019-10-29T15:23:35Z</time>
      </trkpt>
      <trkpt lat="48.49149" lon="-2.67047">
        <ele>6.2</ele>
        <time>2019-10-29T15:23:39Z</time>
      </trkpt>
      <trkpt lat="48.49149" lon="-2.67052">
        <ele>6.1</ele>
        <time>2019-10-29T15:23:42Z</time>
      </trkpt>
      <trkpt lat="48.49149" lon="-2.67058">
        <ele>1</ele>
        <time>2019-10-29T15:23:46Z</time>
      </trkpt>
      <trkpt lat="48.49149" lon="-2.67063">
        <ele>3</ele>
        <time>2019-10-29T15:23:49Z</time>
      </trkpt>
      <trkpt lat="48.49149" lon="-2.67068">
        <ele>4</ele>
        <time>2019-10-29T15:23:52Z</time>
      </trkpt>
      <trkpt lat="48.49147" lon="-2.67073">
        <ele>4</ele>
        <time>2019-10-29T15:23:55Z</time>
      </trkpt>
      <trkpt lat="48.49147" lon="-2.67079">
        <ele>4</ele>
        <time>2019-10-29T15:23:59Z</time>
      </trkpt>
      <trkpt lat="48.49146" lon="-2.67085">
        <ele>4</ele>
        <time>2019-10-29T15:24:03Z</time>
      </trkpt>
      <trkpt lat="48.49145" lon="-2.67091">
        <ele>4</ele>
        <time>2019-10-29T15:24:06Z</time>
      </trkpt>
      <trkpt lat="48.49145" lon="-2.67097">
        <ele>4</ele>
        <time>2019-10-29T15:24:10Z</time>
      </trkpt>
      <trkpt lat="48.49144" lon="-2.67102">
        <ele>5</ele>
        <time>2019-10-29T15:24:13Z</time>
      </trkpt>
      <trkpt lat="48.49143" lon="-2.67107">
        <ele>5</ele>
        <time>2019-10-29T15:24:16Z</time>
      </trkpt>
      <trkpt lat="48.49142" lon="-2.67113">
        <ele>6</ele>
        <time>2019-10-29T15:24:20Z</time>
      </trkpt>
      <trkpt lat="48.49141" lon="-2.67119">
        <ele>6</ele>
        <time>2019-10-29T15:24:23Z</time>
      </trkpt>
      <trkpt lat="48.49139" lon="-2.67125">
        <ele>6</ele>
        <time>2019-10-29T15:24:27Z</time>
      </trkpt>
      <trkpt lat="48.49139" lon="-2.67131">
        <ele>6</ele>
        <time>2019-10-29T15:24:31Z</time>
      </trkpt>
      <trkpt lat="48.49139" lon="-2.67136">
        <ele>6</ele>
        <time>2019-10-29T15:24:34Z</time>
      </trkpt>
      <trkpt lat="48.49138" lon="-2.6714">
        <ele>7</ele>
        <time>2019-10-29T15:24:37Z</time>
      </trkpt>
      <trkpt lat="48.49137" lon="-2.67145">
        <ele>7</ele>
        <time>2019-10-29T15:24:41Z</time>
      </trkpt>
      <trkpt lat="48.49136" lon="-2.6715">
        <ele>7</ele>
        <time>2019-10-29T15:24:44Z</time>
      </trkpt>
      <trkpt lat="48.49135" lon="-2.67155">
        <ele>7</ele>
        <time>2019-10-29T15:24:47Z</time>
      </trkpt>
      <trkpt lat="48.49134" lon="-2.67161">
        <ele>7</ele>
        <time>2019-10-29T15:24:51Z</time>
      </trkpt>
      <trkpt lat="48.49134" lon="-2.67165">
        <ele>7</ele>
        <time>2019-10-29T15:24:54Z</time>
      </trkpt>
      <trkpt lat="48.49133" lon="-2.67172">
        <ele>7</ele>
        <time>2019-10-29T15:24:58Z</time>
      </trkpt>
      <trkpt lat="48.49132" lon="-2.67176">
        <ele>7</ele>
        <time>2019-10-29T15:25:01Z</time>
      </trkpt>
      <trkpt lat="48.49131" lon="-2.67181">
        <ele>7</ele>
        <time>2019-10-29T15:25:04Z</time>
      </trkpt>
      <trkpt lat="48.4913" lon="-2.67186">
        <ele>7</ele>
        <time>2019-10-29T15:25:07Z</time>
      </trkpt>
      <trkpt lat="48.4913" lon="-2.6719">
        <ele>7</ele>
        <time>2019-10-29T15:25:10Z</time>
      </trkpt>
      <trkpt lat="48.4913" lon="-2.67195">
        <ele>7</ele>
        <time>2019-10-29T15:25:13Z</time>
      </trkpt>
      <trkpt lat="48.49128" lon="-2.67202">
        <ele>7</ele>
        <time>2019-10-29T15:25:17Z</time>
      </trkpt>
      <trkpt lat="48.49128" lon="-2.67207">
        <ele>7</ele>
        <time>2019-10-29T15:25:20Z</time>
      </trkpt>
      <trkpt lat="48.49126" lon="-2.67213">
        <ele>7</ele>
        <time>2019-10-29T15:25:24Z</time>
      </trkpt>
      <trkpt lat="48.49125" lon="-2.67217">
        <ele>7</ele>
        <time>2019-10-29T15:25:27Z</time>
      </trkpt>
      <trkpt lat="48.49125" lon="-2.67222">
        <ele>7</ele>
        <time>2019-10-29T15:25:30Z</time>
      </trkpt>
      <trkpt lat="48.49124" lon="-2.67228">
        <ele>7</ele>
        <time>2019-10-29T15:25:34Z</time>
      </trkpt>
      <trkpt lat="48.49123" lon="-2.67233">
        <ele>7</ele>
        <time>2019-10-29T15:25:37Z</time>
      </trkpt>
      <trkpt lat="48.49122" lon="-2.67237">
        <ele>7</ele>
        <time>2019-10-29T15:25:41Z</time>
      </trkpt>
      <trkpt lat="48.49121" lon="-2.67242">
        <ele>7</ele>
        <time>2019-10-29T15:25:44Z</time>
      </trkpt>
      <trkpt lat="48.4912" lon="-2.67248">
        <ele>7</ele>
        <time>2019-10-29T15:25:48Z</time>
      </trkpt>
      <trkpt lat="48.49118" lon="-2.67255">
        <ele>7</ele>
        <time>2019-10-29T15:25:51Z</time>
      </trkpt>
      <trkpt lat="48.49117" lon="-2.6726">
        <ele>7</ele>
        <time>2019-10-29T15:25:54Z</time>
      </trkpt>
      <trkpt lat="48.49116" lon="-2.67266">
        <ele>7</ele>
        <time>2019-10-29T15:25:57Z</time>
      </trkpt>
      <trkpt lat="48.49115" lon="-2.67271">
        <ele>7</ele>
        <time>2019-10-29T15:26:01Z</time>
      </trkpt>
      <trkpt lat="48.49112" lon="-2.67278">
        <ele>7</ele>
        <time>2019-10-29T15:26:05Z</time>
      </trkpt>
      <trkpt lat="48.49109" lon="-2.67283">
        <ele>7</ele>
        <time>2019-10-29T15:26:09Z</time>
      </trkpt>
      <trkpt lat="48.49107" lon="-2.67288">
        <ele>7</ele>
        <time>2019-10-29T15:26:13Z</time>
      </trkpt>
      <trkpt lat="48.49106" lon="-2.67292">
        <ele>7</ele>
        <time>2019-10-29T15:26:16Z</time>
      </trkpt>
      <trkpt lat="48.49105" lon="-2.67296">
        <ele>7</ele>
        <time>2019-10-29T15:26:20Z</time>
      </trkpt>
      <trkpt lat="48.49103" lon="-2.673">
        <ele>7</ele>
        <time>2019-10-29T15:26:24Z</time>
      </trkpt>
      <trkpt lat="48.491" lon="-2.67305">
        <ele>7</ele>
        <time>2019-10-29T15:26:28Z</time>
      </trkpt>
      <trkpt lat="48.49097" lon="-2.67312">
        <ele>7</ele>
        <time>2019-10-29T15:26:32Z</time>
      </trkpt>
      <trkpt lat="48.49094" lon="-2.67319">
        <ele>7</ele>
        <time>2019-10-29T15:26:35Z</time>
      </trkpt>
      <trkpt lat="48.49092" lon="-2.67324">
        <ele>6</ele>
        <time>2019-10-29T15:26:38Z</time>
      </trkpt>
      <trkpt lat="48.49091" lon="-2.6733">
        <ele>4</ele>
        <time>2019-10-29T15:26:42Z</time>
      </trkpt>
      <trkpt lat="48.49089" lon="-2.67335">
        <ele>3</ele>
        <time>2019-10-29T15:26:45Z</time>
      </trkpt>
      <trkpt lat="48.49087" lon="-2.6734">
        <ele>2</ele>
        <time>2019-10-29T15:26:48Z</time>
      </trkpt>
      <trkpt lat="48.49084" lon="-2.67348">
        <ele>2</ele>
        <time>2019-10-29T15:26:51Z</time>
      </trkpt>
      <trkpt lat="48.4908" lon="-2.67354">
        <ele>2</ele>
        <time>2019-10-29T15:26:55Z</time>
      </trkpt>
      <trkpt lat="48.49079" lon="-2.6736">
        <ele>2</ele>
        <time>2019-10-29T15:26:58Z</time>
      </trkpt>
      <trkpt lat="48.49078" lon="-2.67367">
        <ele>2</ele>
        <time>2019-10-29T15:27:02Z</time>
      </trkpt>
      <trkpt lat="48.49076" lon="-2.67373">
        <ele>2</ele>
        <time>2019-10-29T15:27:06Z</time>
      </trkpt>
      <trkpt lat="48.49075" lon="-2.67379">
        <ele>2</ele>
        <time>2019-10-29T15:27:09Z</time>
      </trkpt>
      <trkpt lat="48.49075" lon="-2.67384">
        <ele>2</ele>
        <time>2019-10-29T15:27:12Z</time>
      </trkpt>
      <trkpt lat="48.49075" lon="-2.6739">
        <ele>2</ele>
        <time>2019-10-29T15:27:16Z</time>
      </trkpt>
      <trkpt lat="48.49075" lon="-2.67395">
        <ele>2</ele>
        <time>2019-10-29T15:27:19Z</time>
      </trkpt>
      <trkpt lat="48.49075" lon="-2.674">
        <ele>2</ele>
        <time>2019-10-29T15:27:22Z</time>
      </trkpt>
      <trkpt lat="48.49075" lon="-2.67406">
        <ele>2</ele>
        <time>2019-10-29T15:27:25Z</time>
      </trkpt>
      <trkpt lat="48.49075" lon="-2.67411">
        <ele>2</ele>
        <time>2019-10-29T15:27:28Z</time>
      </trkpt>
      <trkpt lat="48.49076" lon="-2.67417">
        <ele>2</ele>
        <time>2019-10-29T15:27:32Z</time>
      </trkpt>
      <trkpt lat="48.49078" lon="-2.67422">
        <ele>2</ele>
        <time>2019-10-29T15:27:35Z</time>
      </trkpt>
      <trkpt lat="48.4908" lon="-2.67428">
        <ele>2</ele>
        <time>2019-10-29T15:27:39Z</time>
      </trkpt>
      <trkpt lat="48.49083" lon="-2.67434">
        <ele>2</ele>
        <time>2019-10-29T15:27:43Z</time>
      </trkpt>
      <trkpt lat="48.49086" lon="-2.6744">
        <ele>2</ele>
        <time>2019-10-29T15:27:47Z</time>
      </trkpt>
      <trkpt lat="48.49087" lon="-2.67444">
        <ele>2</ele>
        <time>2019-10-29T15:27:50Z</time>
      </trkpt>
      <trkpt lat="48.49089" lon="-2.6745">
        <ele>2</ele>
        <time>2019-10-29T15:27:53Z</time>
      </trkpt>
      <trkpt lat="48.49091" lon="-2.67457">
        <ele>2</ele>
        <time>2019-10-29T15:27:57Z</time>
      </trkpt>
      <trkpt lat="48.49091" lon="-2.67461">
        <ele>2</ele>
        <time>2019-10-29T15:28:00Z</time>
      </trkpt>
      <trkpt lat="48.49093" lon="-2.67467">
        <ele>2</ele>
        <time>2019-10-29T15:28:04Z</time>
      </trkpt>
      <trkpt lat="48.49095" lon="-2.67474">
        <ele>2</ele>
        <time>2019-10-29T15:28:08Z</time>
      </trkpt>
      <trkpt lat="48.49096" lon="-2.67479">
        <ele>2</ele>
        <time>2019-10-29T15:28:11Z</time>
      </trkpt>
      <trkpt lat="48.49097" lon="-2.67484">
        <ele>2</ele>
        <time>2019-10-29T15:28:14Z</time>
      </trkpt>
      <trkpt lat="48.491" lon="-2.67489">
        <ele>2</ele>
        <time>2019-10-29T15:28:18Z</time>
      </trkpt>
      <trkpt lat="48.49101" lon="-2.67493">
        <ele>2</ele>
        <time>2019-10-29T15:28:21Z</time>
      </trkpt>
      <trkpt lat="48.49104" lon="-2.67498">
        <ele>2</ele>
        <time>2019-10-29T15:28:25Z</time>
      </trkpt>
      <trkpt lat="48.49105" lon="-2.67504">
        <ele>2</ele>
        <time>2019-10-29T15:28:28Z</time>
      </trkpt>
      <trkpt lat="48.49106" lon="-2.67509">
        <ele>3</ele>
        <time>2019-10-29T15:28:31Z</time>
      </trkpt>
      <trkpt lat="48.49107" lon="-2.67514">
        <ele>3</ele>
        <time>2019-10-29T15:28:34Z</time>
      </trkpt>
      <trkpt lat="48.49106" lon="-2.67518">
        <ele>3</ele>
        <time>2019-10-29T15:28:37Z</time>
      </trkpt>
      <trkpt lat="48.49104" lon="-2.67523">
        <ele>3</ele>
        <time>2019-10-29T15:28:41Z</time>
      </trkpt>
      <trkpt lat="48.49102" lon="-2.67527">
        <ele>4</ele>
        <time>2019-10-29T15:28:46Z</time>
      </trkpt>
      <trkpt lat="48.49099" lon="-2.67532">
        <ele>4</ele>
        <time>2019-10-29T15:28:50Z</time>
      </trkpt>
      <trkpt lat="48.49096" lon="-2.67537">
        <ele>5</ele>
        <time>2019-10-29T15:28:54Z</time>
      </trkpt>
      <trkpt lat="48.49092" lon="-2.67544">
        <ele>5</ele>
        <time>2019-10-29T15:28:58Z</time>
      </trkpt>
      <trkpt lat="48.49089" lon="-2.67549">
        <ele>6</ele>
        <time>2019-10-29T15:29:02Z</time>
      </trkpt>
      <trkpt lat="48.49086" lon="-2.67554">
        <ele>6</ele>
        <time>2019-10-29T15:29:06Z</time>
      </trkpt>
      <trkpt lat="48.49083" lon="-2.6756">
        <ele>6</ele>
        <time>2019-10-29T15:29:10Z</time>
      </trkpt>
      <trkpt lat="48.49081" lon="-2.67565">
        <ele>6</ele>
        <time>2019-10-29T15:29:13Z</time>
      </trkpt>
      <trkpt lat="48.49079" lon="-2.67569">
        <ele>6</ele>
        <time>2019-10-29T15:29:16Z</time>
      </trkpt>
      <trkpt lat="48.49076" lon="-2.67575">
        <ele>6</ele>
        <time>2019-10-29T15:29:20Z</time>
      </trkpt>
      <trkpt lat="48.49073" lon="-2.67581">
        <ele>6</ele>
        <time>2019-10-29T15:29:24Z</time>
      </trkpt>
      <trkpt lat="48.4907" lon="-2.67585">
        <ele>6</ele>
        <time>2019-10-29T15:29:28Z</time>
      </trkpt>
      <trkpt lat="48.49067" lon="-2.6759">
        <ele>6</ele>
        <time>2019-10-29T15:29:32Z</time>
      </trkpt>
      <trkpt lat="48.49065" lon="-2.67596">
        <ele>6</ele>
        <time>2019-10-29T15:29:36Z</time>
      </trkpt>
      <trkpt lat="48.49062" lon="-2.676">
        <ele>6</ele>
        <time>2019-10-29T15:29:39Z</time>
      </trkpt>
      <trkpt lat="48.4906" lon="-2.67604">
        <ele>6</ele>
        <time>2019-10-29T15:29:43Z</time>
      </trkpt>
      <trkpt lat="48.49057" lon="-2.6761">
        <ele>6</ele>
        <time>2019-10-29T15:29:47Z</time>
      </trkpt>
      <trkpt lat="48.49054" lon="-2.67615">
        <ele>6</ele>
        <time>2019-10-29T15:29:51Z</time>
      </trkpt>
      <trkpt lat="48.49052" lon="-2.6762">
        <ele>6</ele>
        <time>2019-10-29T15:29:55Z</time>
      </trkpt>
      <trkpt lat="48.49049" lon="-2.67624">
        <ele>6</ele>
        <time>2019-10-29T15:29:59Z</time>
      </trkpt>
      <trkpt lat="48.49046" lon="-2.6763">
        <ele>6</ele>
        <time>2019-10-29T15:30:02Z</time>
      </trkpt>
      <trkpt lat="48.49043" lon="-2.67636">
        <ele>6</ele>
        <time>2019-10-29T15:30:06Z</time>
      </trkpt>
      <trkpt lat="48.49041" lon="-2.67641">
        <ele>6</ele>
        <time>2019-10-29T15:30:10Z</time>
      </trkpt>
      <trkpt lat="48.49039" lon="-2.67646">
        <ele>6</ele>
        <time>2019-10-29T15:30:13Z</time>
      </trkpt>
      <trkpt lat="48.49036" lon="-2.67651">
        <ele>6</ele>
        <time>2019-10-29T15:30:17Z</time>
      </trkpt>
      <trkpt lat="48.49035" lon="-2.67656">
        <ele>6</ele>
        <time>2019-10-29T15:30:20Z</time>
      </trkpt>
      <trkpt lat="48.49032" lon="-2.67661">
        <ele>6</ele>
        <time>2019-10-29T15:30:24Z</time>
      </trkpt>
      <trkpt lat="48.49029" lon="-2.67666">
        <ele>6</ele>
        <time>2019-10-29T15:30:28Z</time>
      </trkpt>
      <trkpt lat="48.49027" lon="-2.6767">
        <ele>6</ele>
        <time>2019-10-29T15:30:32Z</time>
      </trkpt>
      <trkpt lat="48.49025" lon="-2.67675">
        <ele>6</ele>
        <time>2019-10-29T15:30:36Z</time>
      </trkpt>
      <trkpt lat="48.49023" lon="-2.67679">
        <ele>6</ele>
        <time>2019-10-29T15:30:40Z</time>
      </trkpt>
      <trkpt lat="48.4902" lon="-2.67683">
        <ele>6</ele>
        <time>2019-10-29T15:30:44Z</time>
      </trkpt>
      <trkpt lat="48.49019" lon="-2.67686">
        <ele>6</ele>
        <time>2019-10-29T15:30:48Z</time>
      </trkpt>
      <trkpt lat="48.49017" lon="-2.67691">
        <ele>6</ele>
        <time>2019-10-29T15:30:51Z</time>
      </trkpt>
      <trkpt lat="48.49015" lon="-2.67696">
        <ele>6</ele>
        <time>2019-10-29T15:30:54Z</time>
      </trkpt>
      <trkpt lat="48.4901" lon="-2.67705">
        <ele>6</ele>
        <time>2019-10-29T15:30:58Z</time>
      </trkpt>
      <trkpt lat="48.49006" lon="-2.67712">
        <ele>6</ele>
        <time>2019-10-29T15:31:02Z</time>
      </trkpt>
      <trkpt lat="48.49001" lon="-2.67713">
        <ele>6</ele>
        <time>2019-10-29T15:31:06Z</time>
      </trkpt>
      <trkpt lat="48.48998" lon="-2.67712">
        <ele>6</ele>
        <time>2019-10-29T15:31:09Z</time>
      </trkpt>
      <trkpt lat="48.48995" lon="-2.67707">
        <ele>6</ele>
        <time>2019-10-29T15:31:13Z</time>
      </trkpt>
      <trkpt lat="48.48994" lon="-2.67701">
        <ele>6</ele>
        <time>2019-10-29T15:31:16Z</time>
      </trkpt>
      <trkpt lat="48.48994" lon="-2.67696">
        <ele>6</ele>
        <time>2019-10-29T15:31:19Z</time>
      </trkpt>
      <trkpt lat="48.48993" lon="-2.6769">
        <ele>6</ele>
        <time>2019-10-29T15:31:22Z</time>
      </trkpt>
      <trkpt lat="48.48992" lon="-2.67684">
        <ele>6</ele>
        <time>2019-10-29T15:31:25Z</time>
      </trkpt>
      <trkpt lat="48.48992" lon="-2.67679">
        <ele>6</ele>
        <time>2019-10-29T15:31:28Z</time>
      </trkpt>
      <trkpt lat="48.48991" lon="-2.67674">
        <ele>6</ele>
        <time>2019-10-29T15:31:31Z</time>
      </trkpt>
      <trkpt lat="48.48991" lon="-2.67668">
        <ele>6</ele>
        <time>2019-10-29T15:31:34Z</time>
      </trkpt>
      <trkpt lat="48.4899" lon="-2.67663">
        <ele>6</ele>
        <time>2019-10-29T15:31:37Z</time>
      </trkpt>
      <trkpt lat="48.4899" lon="-2.67657">
        <ele>6</ele>
        <time>2019-10-29T15:31:40Z</time>
      </trkpt>
      <trkpt lat="48.4899" lon="-2.67652">
        <ele>6</ele>
        <time>2019-10-29T15:31:43Z</time>
      </trkpt>
      <trkpt lat="48.48989" lon="-2.67647">
        <ele>6</ele>
        <time>2019-10-29T15:31:46Z</time>
      </trkpt>
      <trkpt lat="48.48989" lon="-2.67642">
        <ele>6</ele>
        <time>2019-10-29T15:31:49Z</time>
      </trkpt>
      <trkpt lat="48.48988" lon="-2.67636">
        <ele>6</ele>
        <time>2019-10-29T15:31:52Z</time>
      </trkpt>
      <trkpt lat="48.48988" lon="-2.6763">
        <ele>6</ele>
        <time>2019-10-29T15:31:56Z</time>
      </trkpt>
      <trkpt lat="48.48988" lon="-2.67624">
        <ele>6</ele>
        <time>2019-10-29T15:31:59Z</time>
      </trkpt>
      <trkpt lat="48.48987" lon="-2.67618">
        <ele>6</ele>
        <time>2019-10-29T15:32:02Z</time>
      </trkpt>
      <trkpt lat="48.48985" lon="-2.67614">
        <ele>6</ele>
        <time>2019-10-29T15:32:05Z</time>
      </trkpt>
      <trkpt lat="48.48985" lon="-2.67608">
        <ele>6</ele>
        <time>2019-10-29T15:32:09Z</time>
      </trkpt>
      <trkpt lat="48.48984" lon="-2.67604">
        <ele>6</ele>
        <time>2019-10-29T15:32:12Z</time>
      </trkpt>
      <trkpt lat="48.48982" lon="-2.67598">
        <ele>6</ele>
        <time>2019-10-29T15:32:16Z</time>
      </trkpt>
      <trkpt lat="48.48979" lon="-2.67592">
        <ele>6</ele>
        <time>2019-10-29T15:32:20Z</time>
      </trkpt>
      <trkpt lat="48.48977" lon="-2.67587">
        <ele>6</ele>
        <time>2019-10-29T15:32:24Z</time>
      </trkpt>
      <trkpt lat="48.48975" lon="-2.67582">
        <ele>6</ele>
        <time>2019-10-29T15:32:28Z</time>
      </trkpt>
      <trkpt lat="48.48972" lon="-2.67577">
        <ele>6</ele>
        <time>2019-10-29T15:32:32Z</time>
      </trkpt>
      <trkpt lat="48.48968" lon="-2.67571">
        <ele>6</ele>
        <time>2019-10-29T15:32:36Z</time>
      </trkpt>
      <trkpt lat="48.48965" lon="-2.67566">
        <ele>6</ele>
        <time>2019-10-29T15:32:40Z</time>
      </trkpt>
      <trkpt lat="48.48963" lon="-2.67563">
        <ele>6</ele>
        <time>2019-10-29T15:32:45Z</time>
      </trkpt>
      <trkpt lat="48.4896" lon="-2.67559">
        <ele>6</ele>
        <time>2019-10-29T15:32:49Z</time>
      </trkpt>
      <trkpt lat="48.48956" lon="-2.67556">
        <ele>6</ele>
        <time>2019-10-29T15:32:52Z</time>
      </trkpt>
      <trkpt lat="48.48953" lon="-2.67551">
        <ele>6</ele>
        <time>2019-10-29T15:32:56Z</time>
      </trkpt>
      <trkpt lat="48.4895" lon="-2.67547">
        <ele>6</ele>
        <time>2019-10-29T15:33:00Z</time>
      </trkpt>
      <trkpt lat="48.48946" lon="-2.67542">
        <ele>6</ele>
        <time>2019-10-29T15:33:04Z</time>
      </trkpt>
      <trkpt lat="48.48942" lon="-2.67538">
        <ele>6</ele>
        <time>2019-10-29T15:33:07Z</time>
      </trkpt>
      <trkpt lat="48.48939" lon="-2.67533">
        <ele>6</ele>
        <time>2019-10-29T15:33:11Z</time>
      </trkpt>
      <trkpt lat="48.48935" lon="-2.67529">
        <ele>4</ele>
        <time>2019-10-29T15:33:15Z</time>
      </trkpt>
      <trkpt lat="48.48932" lon="-2.67527">
        <ele>3</ele>
        <time>2019-10-29T15:33:18Z</time>
      </trkpt>
      <trkpt lat="48.48928" lon="-2.67526">
        <ele>3</ele>
        <time>2019-10-29T15:33:21Z</time>
      </trkpt>
      <trkpt lat="48.48925" lon="-2.67524">
        <ele>2</ele>
        <time>2019-10-29T15:33:24Z</time>
      </trkpt>
      <trkpt lat="48.48921" lon="-2.67522">
        <ele>2</ele>
        <time>2019-10-29T15:33:27Z</time>
      </trkpt>
      <trkpt lat="48.48917" lon="-2.6752">
        <ele>1</ele>
        <time>2019-10-29T15:33:31Z</time>
      </trkpt>
      <trkpt lat="48.48913" lon="-2.6752">
        <ele>7</ele>
        <time>2019-10-29T15:33:34Z</time>
      </trkpt>
      <trkpt lat="48.4891" lon="-2.67519">
        <ele>6.9</ele>
        <time>2019-10-29T15:33:37Z</time>
      </trkpt>
      <trkpt lat="48.48907" lon="-2.67518">
        <ele>6.9</ele>
        <time>2019-10-29T15:33:40Z</time>
      </trkpt>
      <trkpt lat="48.48904" lon="-2.6752">
        <ele>6.9</ele>
        <time>2019-10-29T15:33:43Z</time>
      </trkpt>
      <trkpt lat="48.489" lon="-2.67521">
        <ele>6.9</ele>
        <time>2019-10-29T15:33:46Z</time>
      </trkpt>
      <trkpt lat="48.48898" lon="-2.67522">
        <ele>6.9</ele>
        <time>2019-10-29T15:33:49Z</time>
      </trkpt>
      <trkpt lat="48.48894" lon="-2.67522">
        <ele>6.8</ele>
        <time>2019-10-29T15:33:52Z</time>
      </trkpt>
      <trkpt lat="48.48889" lon="-2.67523">
        <ele>6.8</ele>
        <time>2019-10-29T15:33:56Z</time>
      </trkpt>
      <trkpt lat="48.48886" lon="-2.67523">
        <ele>6.9</ele>
        <time>2019-10-29T15:33:59Z</time>
      </trkpt>
      <trkpt lat="48.48881" lon="-2.67526">
        <ele>7</ele>
        <time>2019-10-29T15:34:03Z</time>
      </trkpt>
      <trkpt lat="48.48878" lon="-2.67527">
        <ele>7</ele>
        <time>2019-10-29T15:34:06Z</time>
      </trkpt>
      <trkpt lat="48.48875" lon="-2.67529">
        <ele>7</ele>
        <time>2019-10-29T15:34:09Z</time>
      </trkpt>
      <trkpt lat="48.48871" lon="-2.67528">
        <ele>7</ele>
        <time>2019-10-29T15:34:13Z</time>
      </trkpt>
      <trkpt lat="48.48868" lon="-2.67527">
        <ele>7</ele>
        <time>2019-10-29T15:34:16Z</time>
      </trkpt>
      <trkpt lat="48.48864" lon="-2.67528">
        <ele>7</ele>
        <time>2019-10-29T15:34:20Z</time>
      </trkpt>
      <trkpt lat="48.4886" lon="-2.6753">
        <ele>7</ele>
        <time>2019-10-29T15:34:24Z</time>
      </trkpt>
      <trkpt lat="48.48856" lon="-2.67531">
        <ele>7</ele>
        <time>2019-10-29T15:34:28Z</time>
      </trkpt>
      <trkpt lat="48.48854" lon="-2.67531">
        <ele>7</ele>
        <time>2019-10-29T15:34:31Z</time>
      </trkpt>
      <trkpt lat="48.4885" lon="-2.67533">
        <ele>6.9</ele>
        <time>2019-10-29T15:34:35Z</time>
      </trkpt>
      <trkpt lat="48.48846" lon="-2.67535">
        <ele>6.9</ele>
        <time>2019-10-29T15:34:39Z</time>
      </trkpt>
      <trkpt lat="48.48843" lon="-2.67534">
        <ele>6.8</ele>
        <time>2019-10-29T15:34:43Z</time>
      </trkpt>
      <trkpt lat="48.4884" lon="-2.67534">
        <ele>6.8</ele>
        <time>2019-10-29T15:34:47Z</time>
      </trkpt>
      <trkpt lat="48.48836" lon="-2.67534">
        <ele>6.8</ele>
        <time>2019-10-29T15:34:51Z</time>
      </trkpt>
      <trkpt lat="48.48833" lon="-2.67535">
        <ele>6.8</ele>
        <time>2019-10-29T15:34:54Z</time>
      </trkpt>
      <trkpt lat="48.48829" lon="-2.67537">
        <ele>6.8</ele>
        <time>2019-10-29T15:34:58Z</time>
      </trkpt>
      <trkpt lat="48.48824" lon="-2.67538">
        <ele>6.9</ele>
        <time>2019-10-29T15:35:02Z</time>
      </trkpt>
      <trkpt lat="48.4882" lon="-2.67536">
        <ele>7</ele>
        <time>2019-10-29T15:35:06Z</time>
      </trkpt>
      <trkpt lat="48.48817" lon="-2.67535">
        <ele>7</ele>
        <time>2019-10-29T15:35:10Z</time>
      </trkpt>
      <trkpt lat="48.48814" lon="-2.67533">
        <ele>7.1</ele>
        <time>2019-10-29T15:35:15Z</time>
      </trkpt>
      <trkpt lat="48.48812" lon="-2.6753">
        <ele>7</ele>
        <time>2019-10-29T15:35:18Z</time>
      </trkpt>
      <trkpt lat="48.4881" lon="-2.67525">
        <ele>7</ele>
        <time>2019-10-29T15:35:22Z</time>
      </trkpt>
      <trkpt lat="48.48808" lon="-2.6752">
        <ele>7</ele>
        <time>2019-10-29T15:35:26Z</time>
      </trkpt>
      <trkpt lat="48.48805" lon="-2.67515">
        <ele>7</ele>
        <time>2019-10-29T15:35:30Z</time>
      </trkpt>
      <trkpt lat="48.48803" lon="-2.67511">
        <ele>7</ele>
        <time>2019-10-29T15:35:33Z</time>
      </trkpt>
      <trkpt lat="48.48801" lon="-2.67507">
        <ele>7</ele>
        <time>2019-10-29T15:35:36Z</time>
      </trkpt>
      <trkpt lat="48.48799" lon="-2.67503">
        <ele>7</ele>
        <time>2019-10-29T15:35:40Z</time>
      </trkpt>
      <trkpt lat="48.48797" lon="-2.67499">
        <ele>7</ele>
        <time>2019-10-29T15:35:47Z</time>
      </trkpt>
      <trkpt lat="48.48796" lon="-2.67497">
        <ele>7</ele>
        <time>2019-10-29T15:36:05Z</time>
      </trkpt>
      <trkpt lat="48.48795" lon="-2.67493">
        <ele>6.9</ele>
        <time>2019-10-29T15:36:09Z</time>
      </trkpt>
      <trkpt lat="48.48796" lon="-2.67493">
        <ele>6.9</ele>
        <time>2019-10-29T15:36:15Z</time>
      </trkpt>
      <trkpt lat="48.48797" lon="-2.67491">
        <ele>1</ele>
        <time>2019-10-29T15:36:20Z</time>
      </trkpt>
      <trkpt lat="48.48798" lon="-2.6749">
        <ele>4</ele>
        <time>2019-10-29T15:36:24Z</time>
      </trkpt>
      <trkpt lat="48.48798" lon="-2.67488">
        <ele>6</ele>
        <time>2019-10-29T15:36:27Z</time>
      </trkpt>
      <trkpt lat="48.48799" lon="-2.6749">
        <ele>8</ele>
        <time>2019-10-29T15:36:32Z</time>
      </trkpt>
      <trkpt lat="48.48798" lon="-2.67489">
        <ele>8</ele>
        <time>2019-10-29T15:36:37Z</time>
      </trkpt>
      <trkpt lat="48.48799" lon="-2.67491">
        <ele>8</ele>
        <time>2019-10-29T15:36:43Z</time>
      </trkpt>
      <trkpt lat="48.48798" lon="-2.67491">
        <ele>8</ele>
        <time>2019-10-29T15:36:46Z</time>
      </trkpt>
      <trkpt lat="48.48796" lon="-2.6749">
        <ele>8</ele>
        <time>2019-10-29T15:36:57Z</time>
      </trkpt>
      <trkpt lat="48.48795" lon="-2.67488">
        <ele>8</ele>
        <time>2019-10-29T15:37:29Z</time>
      </trkpt>
      <trkpt lat="48.48791" lon="-2.67485">
        <ele>8</ele>
        <time>2019-10-29T15:37:34Z</time>
      </trkpt>
      <trkpt lat="48.48788" lon="-2.67485">
        <ele>8</ele>
        <time>2019-10-29T15:37:38Z</time>
      </trkpt>
      <trkpt lat="48.48786" lon="-2.67481">
        <ele>8</ele>
        <time>2019-10-29T15:37:42Z</time>
      </trkpt>
      <trkpt lat="48.48783" lon="-2.67478">
        <ele>7</ele>
        <time>2019-10-29T15:37:46Z</time>
      </trkpt>
      <trkpt lat="48.48781" lon="-2.67475">
        <ele>7</ele>
        <time>2019-10-29T15:37:50Z</time>
      </trkpt>
      <trkpt lat="48.48779" lon="-2.6747">
        <ele>7</ele>
        <time>2019-10-29T15:37:54Z</time>
      </trkpt>
      <trkpt lat="48.48776" lon="-2.67465">
        <ele>7</ele>
        <time>2019-10-29T15:37:58Z</time>
      </trkpt>
      <trkpt lat="48.48774" lon="-2.6746">
        <ele>7</ele>
        <time>2019-10-29T15:38:02Z</time>
      </trkpt>
      <trkpt lat="48.48772" lon="-2.67456">
        <ele>7</ele>
        <time>2019-10-29T15:38:05Z</time>
      </trkpt>
      <trkpt lat="48.4877" lon="-2.67451">
        <ele>7</ele>
        <time>2019-10-29T15:38:09Z</time>
      </trkpt>
      <trkpt lat="48.48768" lon="-2.67447">
        <ele>7</ele>
        <time>2019-10-29T15:38:12Z</time>
      </trkpt>
      <trkpt lat="48.48766" lon="-2.67442">
        <ele>7</ele>
        <time>2019-10-29T15:38:16Z</time>
      </trkpt>
      <trkpt lat="48.48764" lon="-2.67437">
        <ele>7</ele>
        <time>2019-10-29T15:38:20Z</time>
      </trkpt>
      <trkpt lat="48.48764" lon="-2.67433">
        <ele>7</ele>
        <time>2019-10-29T15:38:23Z</time>
      </trkpt>
      <trkpt lat="48.48765" lon="-2.67427">
        <ele>7</ele>
        <time>2019-10-29T15:38:27Z</time>
      </trkpt>
      <trkpt lat="48.48764" lon="-2.67423">
        <ele>7</ele>
        <time>2019-10-29T15:38:31Z</time>
      </trkpt>
      <trkpt lat="48.48761" lon="-2.67419">
        <ele>7</ele>
        <time>2019-10-29T15:38:35Z</time>
      </trkpt>
      <trkpt lat="48.48758" lon="-2.67415">
        <ele>7</ele>
        <time>2019-10-29T15:38:39Z</time>
      </trkpt>
      <trkpt lat="48.48755" lon="-2.67412">
        <ele>6</ele>
        <time>2019-10-29T15:38:43Z</time>
      </trkpt>
      <trkpt lat="48.48752" lon="-2.6741">
        <ele>6</ele>
        <time>2019-10-29T15:38:47Z</time>
      </trkpt>
      <trkpt lat="48.4875" lon="-2.67407">
        <ele>6</ele>
        <time>2019-10-29T15:38:51Z</time>
      </trkpt>
      <trkpt lat="48.48747" lon="-2.67403">
        <ele>6</ele>
        <time>2019-10-29T15:38:55Z</time>
      </trkpt>
      <trkpt lat="48.48745" lon="-2.67401">
        <ele>6</ele>
        <time>2019-10-29T15:38:58Z</time>
      </trkpt>
      <trkpt lat="48.48743" lon="-2.67398">
        <ele>6</ele>
        <time>2019-10-29T15:39:02Z</time>
      </trkpt>
      <trkpt lat="48.4874" lon="-2.67393">
        <ele>6</ele>
        <time>2019-10-29T15:39:06Z</time>
      </trkpt>
      <trkpt lat="48.48738" lon="-2.67389">
        <ele>6</ele>
        <time>2019-10-29T15:39:10Z</time>
      </trkpt>
      <trkpt lat="48.48735" lon="-2.67385">
        <ele>4</ele>
        <time>2019-10-29T15:39:14Z</time>
      </trkpt>
      <trkpt lat="48.48732" lon="-2.67383">
        <ele>4</ele>
        <time>2019-10-29T15:39:18Z</time>
      </trkpt>
      <trkpt lat="48.48729" lon="-2.6738">
        <ele>4</ele>
        <time>2019-10-29T15:39:21Z</time>
      </trkpt>
      <trkpt lat="48.48726" lon="-2.67381">
        <ele>4</ele>
        <time>2019-10-29T15:39:25Z</time>
      </trkpt>
      <trkpt lat="48.48723" lon="-2.67381">
        <ele>4</ele>
        <time>2019-10-29T15:39:29Z</time>
      </trkpt>
      <trkpt lat="48.4872" lon="-2.67378">
        <ele>2</ele>
        <time>2019-10-29T15:39:33Z</time>
      </trkpt>
      <trkpt lat="48.48717" lon="-2.67375">
        <ele>2</ele>
        <time>2019-10-29T15:39:37Z</time>
      </trkpt>
      <trkpt lat="48.48715" lon="-2.67371">
        <ele>2</ele>
        <time>2019-10-29T15:39:41Z</time>
      </trkpt>
      <trkpt lat="48.48713" lon="-2.67365">
        <ele>2</ele>
        <time>2019-10-29T15:39:44Z</time>
      </trkpt>
      <trkpt lat="48.48711" lon="-2.6736">
        <ele>2</ele>
        <time>2019-10-29T15:39:48Z</time>
      </trkpt>
      <trkpt lat="48.4871" lon="-2.67356">
        <ele>2</ele>
        <time>2019-10-29T15:39:51Z</time>
      </trkpt>
      <trkpt lat="48.48712" lon="-2.67351">
        <ele>2</ele>
        <time>2019-10-29T15:39:55Z</time>
      </trkpt>
      <trkpt lat="48.48715" lon="-2.67347">
        <ele>2</ele>
        <time>2019-10-29T15:39:59Z</time>
      </trkpt>
      <trkpt lat="48.48718" lon="-2.67342">
        <ele>2</ele>
        <time>2019-10-29T15:40:03Z</time>
      </trkpt>
      <trkpt lat="48.48719" lon="-2.67338">
        <ele>2</ele>
        <time>2019-10-29T15:40:07Z</time>
      </trkpt>
      <trkpt lat="48.48718" lon="-2.67333">
        <ele>2</ele>
        <time>2019-10-29T15:40:11Z</time>
      </trkpt>
      <trkpt lat="48.48716" lon="-2.67327">
        <ele>2</ele>
        <time>2019-10-29T15:40:15Z</time>
      </trkpt>
      <trkpt lat="48.48715" lon="-2.67322">
        <ele>2</ele>
        <time>2019-10-29T15:40:19Z</time>
      </trkpt>
      <trkpt lat="48.48713" lon="-2.67317">
        <ele>2</ele>
        <time>2019-10-29T15:40:23Z</time>
      </trkpt>
      <trkpt lat="48.48712" lon="-2.67313">
        <ele>2</ele>
        <time>2019-10-29T15:40:27Z</time>
      </trkpt>
      <trkpt lat="48.4871" lon="-2.67307">
        <ele>2</ele>
        <time>2019-10-29T15:40:30Z</time>
      </trkpt>
      <trkpt lat="48.48708" lon="-2.67302">
        <ele>2</ele>
        <time>2019-10-29T15:40:34Z</time>
      </trkpt>
      <trkpt lat="48.48706" lon="-2.67297">
        <ele>2</ele>
        <time>2019-10-29T15:40:38Z</time>
      </trkpt>
      <trkpt lat="48.48705" lon="-2.67292">
        <ele>2</ele>
        <time>2019-10-29T15:40:42Z</time>
      </trkpt>
      <trkpt lat="48.48704" lon="-2.67288">
        <ele>2</ele>
        <time>2019-10-29T15:40:45Z</time>
      </trkpt>
      <trkpt lat="48.48702" lon="-2.67282">
        <ele>2</ele>
        <time>2019-10-29T15:40:49Z</time>
      </trkpt>
      <trkpt lat="48.48701" lon="-2.67277">
        <ele>2</ele>
        <time>2019-10-29T15:40:52Z</time>
      </trkpt>
      <trkpt lat="48.487" lon="-2.67273">
        <ele>2</ele>
        <time>2019-10-29T15:40:56Z</time>
      </trkpt>
      <trkpt lat="48.48698" lon="-2.67268">
        <ele>2</ele>
        <time>2019-10-29T15:41:00Z</time>
      </trkpt>
      <trkpt lat="48.48696" lon="-2.67263">
        <ele>2</ele>
        <time>2019-10-29T15:41:04Z</time>
      </trkpt>
      <trkpt lat="48.48695" lon="-2.6726">
        <ele>2</ele>
        <time>2019-10-29T15:41:08Z</time>
      </trkpt>
      <trkpt lat="48.48692" lon="-2.67257">
        <ele>2</ele>
        <time>2019-10-29T15:41:12Z</time>
      </trkpt>
      <trkpt lat="48.48689" lon="-2.67254">
        <ele>2</ele>
        <time>2019-10-29T15:41:16Z</time>
      </trkpt>
      <trkpt lat="48.48687" lon="-2.67251">
        <ele>2</ele>
        <time>2019-10-29T15:41:19Z</time>
      </trkpt>
      <trkpt lat="48.48683" lon="-2.6725">
        <ele>2</ele>
        <time>2019-10-29T15:41:22Z</time>
      </trkpt>
      <trkpt lat="48.48679" lon="-2.6725">
        <ele>2</ele>
        <time>2019-10-29T15:41:26Z</time>
      </trkpt>
      <trkpt lat="48.48676" lon="-2.67251">
        <ele>2</ele>
        <time>2019-10-29T15:41:30Z</time>
      </trkpt>
      <trkpt lat="48.4867" lon="-2.67249">
        <ele>6</ele>
        <time>2019-10-29T15:41:34Z</time>
      </trkpt>
      <trkpt lat="48.48667" lon="-2.6725">
        <ele>6</ele>
        <time>2019-10-29T15:41:38Z</time>
      </trkpt>
      <trkpt lat="48.48664" lon="-2.67251">
        <ele>6.1</ele>
        <time>2019-10-29T15:41:42Z</time>
      </trkpt>
      <trkpt lat="48.4866" lon="-2.67251">
        <ele>6.3</ele>
        <time>2019-10-29T15:41:46Z</time>
      </trkpt>
      <trkpt lat="48.48657" lon="-2.6725">
        <ele>6.4</ele>
        <time>2019-10-29T15:41:50Z</time>
      </trkpt>
      <trkpt lat="48.48652" lon="-2.67251">
        <ele>6.5</ele>
        <time>2019-10-29T15:41:55Z</time>
      </trkpt>
      <trkpt lat="48.48649" lon="-2.67249">
        <ele>6.6</ele>
        <time>2019-10-29T15:41:58Z</time>
      </trkpt>
      <trkpt lat="48.48644" lon="-2.67246">
        <ele>6.8</ele>
        <time>2019-10-29T15:42:02Z</time>
      </trkpt>
      <trkpt lat="48.48641" lon="-2.67246">
        <ele>6.9</ele>
        <time>2019-10-29T15:42:06Z</time>
      </trkpt>
      <trkpt lat="48.48638" lon="-2.67246">
        <ele>7</ele>
        <time>2019-10-29T15:42:09Z</time>
      </trkpt>
      <trkpt lat="48.48635" lon="-2.67244">
        <ele>7</ele>
        <time>2019-10-29T15:42:13Z</time>
      </trkpt>
      <trkpt lat="48.48631" lon="-2.67243">
        <ele>7</ele>
        <time>2019-10-29T15:42:16Z</time>
      </trkpt>
      <trkpt lat="48.48628" lon="-2.67243">
        <ele>7</ele>
        <time>2019-10-29T15:42:19Z</time>
      </trkpt>
      <trkpt lat="48.48625" lon="-2.67243">
        <ele>7</ele>
        <time>2019-10-29T15:42:23Z</time>
      </trkpt>
      <trkpt lat="48.48622" lon="-2.67243">
        <ele>7</ele>
        <time>2019-10-29T15:42:26Z</time>
      </trkpt>
      <trkpt lat="48.48618" lon="-2.6724">
        <ele>7</ele>
        <time>2019-10-29T15:42:29Z</time>
      </trkpt>
      <trkpt lat="48.48615" lon="-2.67239">
        <ele>7</ele>
        <time>2019-10-29T15:42:33Z</time>
      </trkpt>
      <trkpt lat="48.48611" lon="-2.67238">
        <ele>7</ele>
        <time>2019-10-29T15:42:37Z</time>
      </trkpt>
      <trkpt lat="48.48607" lon="-2.67237">
        <ele>7</ele>
        <time>2019-10-29T15:42:40Z</time>
      </trkpt>
      <trkpt lat="48.48603" lon="-2.67236">
        <ele>7</ele>
        <time>2019-10-29T15:42:43Z</time>
      </trkpt>
      <trkpt lat="48.486" lon="-2.67236">
        <ele>7</ele>
        <time>2019-10-29T15:42:48Z</time>
      </trkpt>
      <trkpt lat="48.48596" lon="-2.67233">
        <ele>7</ele>
        <time>2019-10-29T15:42:51Z</time>
      </trkpt>
      <trkpt lat="48.48593" lon="-2.67233">
        <ele>7</ele>
        <time>2019-10-29T15:42:54Z</time>
      </trkpt>
      <trkpt lat="48.4859" lon="-2.67235">
        <ele>7</ele>
        <time>2019-10-29T15:42:58Z</time>
      </trkpt>
      <trkpt lat="48.48586" lon="-2.67236">
        <ele>7</ele>
        <time>2019-10-29T15:43:02Z</time>
      </trkpt>
      <trkpt lat="48.48583" lon="-2.67237">
        <ele>7</ele>
        <time>2019-10-29T15:43:07Z</time>
      </trkpt>
      <trkpt lat="48.4858" lon="-2.67235">
        <ele>7</ele>
        <time>2019-10-29T15:43:10Z</time>
      </trkpt>
      <trkpt lat="48.48576" lon="-2.67233">
        <ele>7</ele>
        <time>2019-10-29T15:43:14Z</time>
      </trkpt>
      <trkpt lat="48.48573" lon="-2.67231">
        <ele>7</ele>
        <time>2019-10-29T15:43:17Z</time>
      </trkpt>
      <trkpt lat="48.48569" lon="-2.6723">
        <ele>7</ele>
        <time>2019-10-29T15:43:20Z</time>
      </trkpt>
      <trkpt lat="48.48566" lon="-2.67231">
        <ele>7</ele>
        <time>2019-10-29T15:43:23Z</time>
      </trkpt>
      <trkpt lat="48.48561" lon="-2.67231">
        <ele>7</ele>
        <time>2019-10-29T15:43:27Z</time>
      </trkpt>
      <trkpt lat="48.48558" lon="-2.67231">
        <ele>7</ele>
        <time>2019-10-29T15:43:30Z</time>
      </trkpt>
      <trkpt lat="48.48555" lon="-2.67228">
        <ele>7</ele>
        <time>2019-10-29T15:43:33Z</time>
      </trkpt>
      <trkpt lat="48.48551" lon="-2.67227">
        <ele>7.2</ele>
        <time>2019-10-29T15:43:36Z</time>
      </trkpt>
      <trkpt lat="48.48548" lon="-2.67225">
        <ele>7.3</ele>
        <time>2019-10-29T15:43:40Z</time>
      </trkpt>
      <trkpt lat="48.48544" lon="-2.67222">
        <ele>7.4</ele>
        <time>2019-10-29T15:43:44Z</time>
      </trkpt>
      <trkpt lat="48.48542" lon="-2.67217">
        <ele>7.6</ele>
        <time>2019-10-29T15:43:48Z</time>
      </trkpt>
      <trkpt lat="48.48539" lon="-2.67213">
        <ele>7.7</ele>
        <time>2019-10-29T15:43:52Z</time>
      </trkpt>
      <trkpt lat="48.48535" lon="-2.6721">
        <ele>7.9</ele>
        <time>2019-10-29T15:43:56Z</time>
      </trkpt>
      <trkpt lat="48.48532" lon="-2.67209">
        <ele>7.9</ele>
        <time>2019-10-29T15:44:00Z</time>
      </trkpt>
      <trkpt lat="48.48528" lon="-2.67209">
        <ele>8</ele>
        <time>2019-10-29T15:44:04Z</time>
      </trkpt>
      <trkpt lat="48.48524" lon="-2.67206">
        <ele>8</ele>
        <time>2019-10-29T15:44:08Z</time>
      </trkpt>
      <trkpt lat="48.48523" lon="-2.672">
        <ele>8</ele>
        <time>2019-10-29T15:44:11Z</time>
      </trkpt>
      <trkpt lat="48.48522" lon="-2.67195">
        <ele>8</ele>
        <time>2019-10-29T15:44:14Z</time>
      </trkpt>
      <trkpt lat="48.48521" lon="-2.6719">
        <ele>8</ele>
        <time>2019-10-29T15:44:18Z</time>
      </trkpt>
      <trkpt lat="48.48522" lon="-2.67184">
        <ele>8</ele>
        <time>2019-10-29T15:44:22Z</time>
      </trkpt>
      <trkpt lat="48.48522" lon="-2.67179">
        <ele>8</ele>
        <time>2019-10-29T15:44:25Z</time>
      </trkpt>
      <trkpt lat="48.48521" lon="-2.67174">
        <ele>8</ele>
        <time>2019-10-29T15:44:28Z</time>
      </trkpt>
      <trkpt lat="48.48521" lon="-2.67169">
        <ele>8</ele>
        <time>2019-10-29T15:44:31Z</time>
      </trkpt>
      <trkpt lat="48.48521" lon="-2.67164">
        <ele>8</ele>
        <time>2019-10-29T15:44:35Z</time>
      </trkpt>
      <trkpt lat="48.4852" lon="-2.67158">
        <ele>8</ele>
        <time>2019-10-29T15:44:39Z</time>
      </trkpt>
      <trkpt lat="48.48519" lon="-2.67151">
        <ele>8</ele>
        <time>2019-10-29T15:44:43Z</time>
      </trkpt>
      <trkpt lat="48.48519" lon="-2.67146">
        <ele>8</ele>
        <time>2019-10-29T15:44:46Z</time>
      </trkpt>
      <trkpt lat="48.48519" lon="-2.67142">
        <ele>8</ele>
        <time>2019-10-29T15:44:49Z</time>
      </trkpt>
      <trkpt lat="48.48518" lon="-2.67136">
        <ele>8</ele>
        <time>2019-10-29T15:44:53Z</time>
      </trkpt>
      <trkpt lat="48.48519" lon="-2.67132">
        <ele>8</ele>
        <time>2019-10-29T15:44:56Z</time>
      </trkpt>
      <trkpt lat="48.48519" lon="-2.67127">
        <ele>8</ele>
        <time>2019-10-29T15:44:59Z</time>
      </trkpt>
      <trkpt lat="48.48519" lon="-2.6712">
        <ele>8</ele>
        <time>2019-10-29T15:45:03Z</time>
      </trkpt>
      <trkpt lat="48.48519" lon="-2.67115">
        <ele>8</ele>
        <time>2019-10-29T15:45:06Z</time>
      </trkpt>
      <trkpt lat="48.48519" lon="-2.67111">
        <ele>8</ele>
        <time>2019-10-29T15:45:09Z</time>
      </trkpt>
      <trkpt lat="48.4852" lon="-2.67104">
        <ele>8</ele>
        <time>2019-10-29T15:45:13Z</time>
      </trkpt>
      <trkpt lat="48.4852" lon="-2.67099">
        <ele>8</ele>
        <time>2019-10-29T15:45:16Z</time>
      </trkpt>
      <trkpt lat="48.48518" lon="-2.67093">
        <ele>8</ele>
        <time>2019-10-29T15:45:19Z</time>
      </trkpt>
      <trkpt lat="48.48515" lon="-2.67091">
        <ele>8</ele>
        <time>2019-10-29T15:45:23Z</time>
      </trkpt>
      <trkpt lat="48.48512" lon="-2.67089">
        <ele>8</ele>
        <time>2019-10-29T15:45:27Z</time>
      </trkpt>
      <trkpt lat="48.48508" lon="-2.67089">
        <ele>8</ele>
        <time>2019-10-29T15:45:31Z</time>
      </trkpt>
      <trkpt lat="48.48505" lon="-2.67088">
        <ele>8</ele>
        <time>2019-10-29T15:45:34Z</time>
      </trkpt>
      <trkpt lat="48.48502" lon="-2.67086">
        <ele>8</ele>
        <time>2019-10-29T15:45:38Z</time>
      </trkpt>
      <trkpt lat="48.48498" lon="-2.67085">
        <ele>8</ele>
        <time>2019-10-29T15:45:41Z</time>
      </trkpt>
      <trkpt lat="48.48493" lon="-2.67084">
        <ele>8</ele>
        <time>2019-10-29T15:45:45Z</time>
      </trkpt>
      <trkpt lat="48.4849" lon="-2.67082">
        <ele>8</ele>
        <time>2019-10-29T15:45:49Z</time>
      </trkpt>
      <trkpt lat="48.48486" lon="-2.67079">
        <ele>8</ele>
        <time>2019-10-29T15:45:54Z</time>
      </trkpt>
      <trkpt lat="48.48483" lon="-2.67078">
        <ele>8</ele>
        <time>2019-10-29T15:45:58Z</time>
      </trkpt>
      <trkpt lat="48.48479" lon="-2.67078">
        <ele>8</ele>
        <time>2019-10-29T15:46:02Z</time>
      </trkpt>
      <trkpt lat="48.48476" lon="-2.67078">
        <ele>8</ele>
        <time>2019-10-29T15:46:05Z</time>
      </trkpt>
      <trkpt lat="48.48473" lon="-2.67078">
        <ele>8</ele>
        <time>2019-10-29T15:46:08Z</time>
      </trkpt>
      <trkpt lat="48.48468" lon="-2.67078">
        <ele>8.1</ele>
        <time>2019-10-29T15:46:12Z</time>
      </trkpt>
      <trkpt lat="48.48466" lon="-2.67076">
        <ele>8.2</ele>
        <time>2019-10-29T15:46:17Z</time>
      </trkpt>
      <trkpt lat="48.48465" lon="-2.67075">
        <ele>8.3</ele>
        <time>2019-10-29T15:46:21Z</time>
      </trkpt>
      <trkpt lat="48.48462" lon="-2.67072">
        <ele>8.4</ele>
        <time>2019-10-29T15:46:25Z</time>
      </trkpt>
      <trkpt lat="48.4846" lon="-2.6707">
        <ele>8.4</ele>
        <time>2019-10-29T15:46:28Z</time>
      </trkpt>
      <trkpt lat="48.48457" lon="-2.67067">
        <ele>8.5</ele>
        <time>2019-10-29T15:46:32Z</time>
      </trkpt>
      <trkpt lat="48.48455" lon="-2.67062">
        <ele>8.6</ele>
        <time>2019-10-29T15:46:36Z</time>
      </trkpt>
      <trkpt lat="48.48452" lon="-2.67058">
        <ele>8.7</ele>
        <time>2019-10-29T15:46:40Z</time>
      </trkpt>
      <trkpt lat="48.48449" lon="-2.67056">
        <ele>8.8</ele>
        <time>2019-10-29T15:46:44Z</time>
      </trkpt>
      <trkpt lat="48.48446" lon="-2.67052">
        <ele>1</ele>
        <time>2019-10-29T15:46:48Z</time>
      </trkpt>
      <trkpt lat="48.48444" lon="-2.67048">
        <ele>1</ele>
        <time>2019-10-29T15:46:52Z</time>
      </trkpt>
      <trkpt lat="48.48442" lon="-2.67042">
        <ele>1</ele>
        <time>2019-10-29T15:46:55Z</time>
      </trkpt>
      <trkpt lat="48.4844" lon="-2.67039">
        <ele>1</ele>
        <time>2019-10-29T15:46:58Z</time>
      </trkpt>
      <trkpt lat="48.48439" lon="-2.67035">
        <ele>1</ele>
        <time>2019-10-29T15:47:01Z</time>
      </trkpt>
      <trkpt lat="48.48437" lon="-2.67031">
        <ele>3</ele>
        <time>2019-10-29T15:47:06Z</time>
      </trkpt>
      <trkpt lat="48.48436" lon="-2.67028">
        <ele>3</ele>
        <time>2019-10-29T15:47:09Z</time>
      </trkpt>
      <trkpt lat="48.48432" lon="-2.67026">
        <ele>3</ele>
        <time>2019-10-29T15:47:12Z</time>
      </trkpt>
      <trkpt lat="48.48428" lon="-2.67025">
        <ele>3</ele>
        <time>2019-10-29T15:47:15Z</time>
      </trkpt>
      <trkpt lat="48.48424" lon="-2.6702">
        <ele>9.7</ele>
        <time>2019-10-29T15:47:18Z</time>
      </trkpt>
      <trkpt lat="48.4842" lon="-2.67022">
        <ele>9.8</ele>
        <time>2019-10-29T15:47:22Z</time>
      </trkpt>
      <trkpt lat="48.48417" lon="-2.67024">
        <ele>9.9</ele>
        <time>2019-10-29T15:47:26Z</time>
      </trkpt>
      <trkpt lat="48.48415" lon="-2.67026">
        <ele>9.9</ele>
        <time>2019-10-29T15:47:30Z</time>
      </trkpt>
      <trkpt lat="48.48412" lon="-2.67023">
        <ele>9.8</ele>
        <time>2019-10-29T15:47:33Z</time>
      </trkpt>
      <trkpt lat="48.48408" lon="-2.67022">
        <ele>9.8</ele>
        <time>2019-10-29T15:47:36Z</time>
      </trkpt>
      <trkpt lat="48.48405" lon="-2.67022">
        <ele>9.8</ele>
        <time>2019-10-29T15:47:40Z</time>
      </trkpt>
      <trkpt lat="48.484" lon="-2.6702">
        <ele>9.7</ele>
        <time>2019-10-29T15:47:43Z</time>
      </trkpt>
      <trkpt lat="48.48397" lon="-2.67017">
        <ele>9.6</ele>
        <time>2019-10-29T15:47:48Z</time>
      </trkpt>
      <trkpt lat="48.48393" lon="-2.67015">
        <ele>9.6</ele>
        <time>2019-10-29T15:47:52Z</time>
      </trkpt>
      <trkpt lat="48.48389" lon="-2.67014">
        <ele>9.5</ele>
        <time>2019-10-29T15:47:56Z</time>
      </trkpt>
      <trkpt lat="48.48387" lon="-2.67015">
        <ele>9.5</ele>
        <time>2019-10-29T15:47:59Z</time>
      </trkpt>
      <trkpt lat="48.48386" lon="-2.67013">
        <ele>9.5</ele>
        <time>2019-10-29T15:48:02Z</time>
      </trkpt>
      <trkpt lat="48.48383" lon="-2.67012">
        <ele>9.4</ele>
        <time>2019-10-29T15:48:05Z</time>
      </trkpt>
      <trkpt lat="48.4838" lon="-2.67014">
        <ele>9.5</ele>
        <time>2019-10-29T15:48:08Z</time>
      </trkpt>
      <trkpt lat="48.48374" lon="-2.67012">
        <ele>9.4</ele>
        <time>2019-10-29T15:48:12Z</time>
      </trkpt>
      <trkpt lat="48.48371" lon="-2.67012">
        <ele>9.4</ele>
        <time>2019-10-29T15:48:15Z</time>
      </trkpt>
      <trkpt lat="48.48368" lon="-2.67013">
        <ele>9.5</ele>
        <time>2019-10-29T15:48:18Z</time>
      </trkpt>
      <trkpt lat="48.48366" lon="-2.67012">
        <ele>9.4</ele>
        <time>2019-10-29T15:48:22Z</time>
      </trkpt>
      <trkpt lat="48.48363" lon="-2.67011">
        <ele>9.4</ele>
        <time>2019-10-29T15:48:25Z</time>
      </trkpt>
      <trkpt lat="48.48358" lon="-2.67007">
        <ele>9.4</ele>
        <time>2019-10-29T15:48:29Z</time>
      </trkpt>
      <trkpt lat="48.48354" lon="-2.67001">
        <ele>9.5</ele>
        <time>2019-10-29T15:48:32Z</time>
      </trkpt>
      <trkpt lat="48.48351" lon="-2.66999">
        <ele>9.7</ele>
        <time>2019-10-29T15:48:36Z</time>
      </trkpt>
      <trkpt lat="48.48347" lon="-2.66999">
        <ele>10</ele>
        <time>2019-10-29T15:48:41Z</time>
      </trkpt>
      <trkpt lat="48.48344" lon="-2.66999">
        <ele>10.2</ele>
        <time>2019-10-29T15:48:45Z</time>
      </trkpt>
      <trkpt lat="48.48341" lon="-2.66999">
        <ele>10.4</ele>
        <time>2019-10-29T15:48:49Z</time>
      </trkpt>
      <trkpt lat="48.48339" lon="-2.66997">
        <ele>10.4</ele>
        <time>2019-10-29T15:48:52Z</time>
      </trkpt>
      <trkpt lat="48.48334" lon="-2.66993">
        <ele>10.5</ele>
        <time>2019-10-29T15:48:55Z</time>
      </trkpt>
      <trkpt lat="48.48331" lon="-2.66992">
        <ele>10.4</ele>
        <time>2019-10-29T15:49:00Z</time>
      </trkpt>
      <trkpt lat="48.48328" lon="-2.66992">
        <ele>10.4</ele>
        <time>2019-10-29T15:49:04Z</time>
      </trkpt>
      <trkpt lat="48.48326" lon="-2.66991">
        <ele>10.2</ele>
        <time>2019-10-29T15:49:07Z</time>
      </trkpt>
      <trkpt lat="48.48323" lon="-2.6699">
        <ele>10.2</ele>
        <time>2019-10-29T15:49:10Z</time>
      </trkpt>
      <trkpt lat="48.4832" lon="-2.66985">
        <ele>10</ele>
        <time>2019-10-29T15:49:14Z</time>
      </trkpt>
      <trkpt lat="48.48318" lon="-2.6698">
        <ele>9.8</ele>
        <time>2019-10-29T15:49:19Z</time>
      </trkpt>
      <trkpt lat="48.48317" lon="-2.66973">
        <ele>9.6</ele>
        <time>2019-10-29T15:49:22Z</time>
      </trkpt>
      <trkpt lat="48.48316" lon="-2.66971">
        <ele>9.6</ele>
        <time>2019-10-29T15:49:25Z</time>
      </trkpt>
      <trkpt lat="48.48311" lon="-2.66975">
        <ele>9.8</ele>
        <time>2019-10-29T15:49:28Z</time>
      </trkpt>
      <trkpt lat="48.48309" lon="-2.66979">
        <ele>9.9</ele>
        <time>2019-10-29T15:49:31Z</time>
      </trkpt>
      <trkpt lat="48.48306" lon="-2.66984">
        <ele>10</ele>
        <time>2019-10-29T15:49:34Z</time>
      </trkpt>
      <trkpt lat="48.48304" lon="-2.6699">
        <ele>10</ele>
        <time>2019-10-29T15:49:38Z</time>
      </trkpt>
      <trkpt lat="48.48304" lon="-2.66994">
        <ele>10</ele>
        <time>2019-10-29T15:49:42Z</time>
      </trkpt>
      <trkpt lat="48.48302" lon="-2.66999">
        <ele>10</ele>
        <time>2019-10-29T15:49:46Z</time>
      </trkpt>
      <trkpt lat="48.48302" lon="-2.67003">
        <ele>1</ele>
        <time>2019-10-29T15:49:49Z</time>
      </trkpt>
      <trkpt lat="48.48302" lon="-2.67008">
        <ele>1</ele>
        <time>2019-10-29T15:49:53Z</time>
      </trkpt>
      <trkpt lat="48.48301" lon="-2.67013">
        <ele>1</ele>
        <time>2019-10-29T15:49:57Z</time>
      </trkpt>
      <trkpt lat="48.483" lon="-2.67017">
        <ele>1</ele>
        <time>2019-10-29T15:50:00Z</time>
      </trkpt>
      <trkpt lat="48.483" lon="-2.67022">
        <ele>1</ele>
        <time>2019-10-29T15:50:04Z</time>
      </trkpt>
      <trkpt lat="48.48299" lon="-2.67027">
        <ele>1</ele>
        <time>2019-10-29T15:50:09Z</time>
      </trkpt>
      <trkpt lat="48.48298" lon="-2.67032">
        <ele>1</ele>
        <time>2019-10-29T15:50:13Z</time>
      </trkpt>
      <trkpt lat="48.48297" lon="-2.67037">
        <ele>1</ele>
        <time>2019-10-29T15:50:17Z</time>
      </trkpt>
      <trkpt lat="48.48297" lon="-2.67042">
        <ele>1</ele>
        <time>2019-10-29T15:50:21Z</time>
      </trkpt>
      <trkpt lat="48.48296" lon="-2.67047">
        <ele>1</ele>
        <time>2019-10-29T15:50:25Z</time>
      </trkpt>
      <trkpt lat="48.48296" lon="-2.67052">
        <ele>1</ele>
        <time>2019-10-29T15:50:28Z</time>
      </trkpt>
      <trkpt lat="48.48294" lon="-2.67058">
        <ele>1</ele>
        <time>2019-10-29T15:50:32Z</time>
      </trkpt>
      <trkpt lat="48.48294" lon="-2.67063">
        <ele>1</ele>
        <time>2019-10-29T15:50:36Z</time>
      </trkpt>
      <trkpt lat="48.48293" lon="-2.67068">
        <ele>1</ele>
        <time>2019-10-29T15:50:40Z</time>
      </trkpt>
      <trkpt lat="48.48293" lon="-2.6707">
        <ele>1</ele>
        <time>2019-10-29T15:50:43Z</time>
      </trkpt>
      <trkpt lat="48.48291" lon="-2.67075">
        <ele>1</ele>
        <time>2019-10-29T15:50:46Z</time>
      </trkpt>
      <trkpt lat="48.4829" lon="-2.67082">
        <ele>1</ele>
        <time>2019-10-29T15:50:49Z</time>
      </trkpt>
      <trkpt lat="48.4829" lon="-2.67086">
        <ele>1</ele>
        <time>2019-10-29T15:50:52Z</time>
      </trkpt>
      <trkpt lat="48.4829" lon="-2.67092">
        <ele>1</ele>
        <time>2019-10-29T15:50:55Z</time>
      </trkpt>
      <trkpt lat="48.4829" lon="-2.67097">
        <ele>1</ele>
        <time>2019-10-29T15:50:59Z</time>
      </trkpt>
      <trkpt lat="48.48288" lon="-2.67102">
        <ele>1</ele>
        <time>2019-10-29T15:51:03Z</time>
      </trkpt>
      <trkpt lat="48.48287" lon="-2.67104">
        <ele>1</ele>
        <time>2019-10-29T15:51:06Z</time>
      </trkpt>
      <trkpt lat="48.48286" lon="-2.6711">
        <ele>1</ele>
        <time>2019-10-29T15:51:10Z</time>
      </trkpt>
      <trkpt lat="48.48286" lon="-2.67115">
        <ele>1</ele>
        <time>2019-10-29T15:51:13Z</time>
      </trkpt>
      <trkpt lat="48.48286" lon="-2.6712">
        <ele>10</ele>
        <time>2019-10-29T15:51:16Z</time>
      </trkpt>
      <trkpt lat="48.48286" lon="-2.67124">
        <ele>10</ele>
        <time>2019-10-29T15:51:20Z</time>
      </trkpt>
      <trkpt lat="48.48285" lon="-2.67129">
        <ele>10</ele>
        <time>2019-10-29T15:51:24Z</time>
      </trkpt>
      <trkpt lat="48.48285" lon="-2.67133">
        <ele>10</ele>
        <time>2019-10-29T15:51:28Z</time>
      </trkpt>
      <trkpt lat="48.48286" lon="-2.67139">
        <ele>10</ele>
        <time>2019-10-29T15:51:32Z</time>
      </trkpt>
      <trkpt lat="48.48283" lon="-2.67143">
        <ele>10</ele>
        <time>2019-10-29T15:51:36Z</time>
      </trkpt>
      <trkpt lat="48.48279" lon="-2.67147">
        <ele>10</ele>
        <time>2019-10-29T15:51:39Z</time>
      </trkpt>
      <trkpt lat="48.48275" lon="-2.67149">
        <ele>10.1</ele>
        <time>2019-10-29T15:51:43Z</time>
      </trkpt>
      <trkpt lat="48.48272" lon="-2.67152">
        <ele>10.1</ele>
        <time>2019-10-29T15:51:47Z</time>
      </trkpt>
      <trkpt lat="48.48269" lon="-2.67157">
        <ele>10.1</ele>
        <time>2019-10-29T15:51:51Z</time>
      </trkpt>
      <trkpt lat="48.48268" lon="-2.67159">
        <ele>10.1</ele>
        <time>2019-10-29T15:51:54Z</time>
      </trkpt>
      <trkpt lat="48.48267" lon="-2.67161">
        <ele>10.1</ele>
        <time>2019-10-29T15:52:02Z</time>
      </trkpt>
      <trkpt lat="48.48266" lon="-2.67163">
        <ele>1</ele>
        <time>2019-10-29T15:52:06Z</time>
      </trkpt>
      <trkpt lat="48.48265" lon="-2.67165">
        <ele>10</ele>
        <time>2019-10-29T15:52:11Z</time>
      </trkpt>
      <trkpt lat="48.48264" lon="-2.67166">
        <ele>10</ele>
        <time>2019-10-29T15:52:17Z</time>
      </trkpt>
      <trkpt lat="48.48265" lon="-2.67165">
        <ele>10</ele>
        <time>2019-10-29T15:52:35Z</time>
      </trkpt>
      <trkpt lat="48.48266" lon="-2.67165">
        <ele>10</ele>
        <time>2019-10-29T15:52:44Z</time>
      </trkpt>
      <trkpt lat="48.48267" lon="-2.67165">
        <ele>10</ele>
        <time>2019-10-29T15:52:50Z</time>
      </trkpt>
      <trkpt lat="48.48267" lon="-2.67167">
        <ele>6</ele>
        <time>2019-10-29T15:52:58Z</time>
      </trkpt>
      <trkpt lat="48.48267" lon="-2.67165">
        <ele>8</ele>
        <time>2019-10-29T15:53:03Z</time>
      </trkpt>
      <trkpt lat="48.48269" lon="-2.67166">
        <ele>8</ele>
        <time>2019-10-29T15:53:16Z</time>
      </trkpt>
      <trkpt lat="48.48267" lon="-2.67165">
        <ele>8</ele>
        <time>2019-10-29T15:53:25Z</time>
      </trkpt>
      <trkpt lat="48.48267" lon="-2.67164">
        <ele>8</ele>
        <time>2019-10-29T15:53:36Z</time>
      </trkpt>
      <trkpt lat="48.48269" lon="-2.67165">
        <ele>8</ele>
        <time>2019-10-29T15:53:44Z</time>
      </trkpt>
      <trkpt lat="48.48268" lon="-2.67164">
        <ele>8</ele>
        <time>2019-10-29T15:53:56Z</time>
      </trkpt>
    </trkseg>
  </trk>
</gpx>